GFSNGP_sfc_dewp_000.txt.gz
Dewpoint
14 14 20 19 22 25 22 22 21 21 24 28 37 41 44 49 51 51 50 52 56 57 59 60 61 63 64 65 67 67 66 64 64 64 64 64 64 64 63 62 62 62 62 61
14 13 17 15 19 26 25 26 25 26 26 29 40 44 44 47 50 50 51 50 51 55 58 59 60 61 64 66 66 68 67 65 66 65 65 65 65 65 63 62 62 62 61 61
14 17 16 18 15 20 24 27 25 24 27 32 39 41 43 44 47 48 49 51 52 52 55 56 58 61 64 66 68 68 67 67 66 65 64 64 65 65 63 62 62 61 61 61
16 21 16 16 32 22 26 40 39 39 34 36 39 44 45 45 45 47 50 53 53 53 55 57 58 60 64 66 68 68 68 68 66 64 64 64 63 62 63 62 61 61 62 62
20 19 22 37 41 38 34 38 44 43 46 43 42 44 45 46 49 48 52 54 56 56 56 59 61 62 64 66 67 68 68 66 66 65 64 65 63 63 62 63 63 62 63 63
31 21 26 35 44 47 45 35 44 45 44 43 43 37 43 48 48 48 51 53 55 57 59 61 63 64 64 65 67 67 67 66 66 65 63 63 64 64 63 63 63 64 63 62
37 34 36 45 46 48 33 35 47 46 46 44 43 45 47 51 50 53 56 57 59 62 63 63 64 65 64 64 65 67 66 66 67 66 66 65 64 63 63 64 63 63 62 60
41 37 34 47 47 38 45 46 48 48 48 48 48 50 52 53 53 54 55 57 59 61 63 65 64 64 63 64 65 66 66 66 65 65 65 63 61 61 62 61 60 60 61 59
43 43 48 50 48 49 49 45 46 47 48 52 51 52 54 55 55 57 59 60 63 64 64 63 63 64 63 63 64 64 63 63 64 63 63 62 61 61 61 60 60 60 61 61
47 47 48 47 48 47 48 48 48 49 51 53 53 56 56 57 57 58 60 61 63 63 62 61 62 62 63 64 64 63 62 62 63 63 62 61 62 62 61 60 59 61 61 61
46 47 48 45 48 50 48 47 45 46 48 50 51 52 53 55 60 60 60 62 62 61 61 62 63 62 63 64 62 61 61 61 61 61 62 62 61 60 61 59 57 61 60 59
43 47 46 45 47 50 44 43 44 44 43 46 47 48 50 50 56 61 61 62 61 61 62 62 61 62 62 62 62 62 61 60 60 61 61 60 54 52 46 45 45 44 46 51
46 46 46 45 44 43 40 41 41 42 44 44 45 45 48 50 52 59 61 62 62 61 61 61 61 61 62 61 60 60 60 58 56 56 59 57 55 54 52 47 43 41 41 41
50 49 43 45 44 41 41 40 41 39 41 43 43 44 44 45 50 53 56 60 62 60 59 59 60 60 59 59 59 59 59 54 59 59 58 57 55 54 52 52 50 46 43 42
45 44 45 47 46 44 42 42 41 41 40 41 43 43 45 45 47 50 55 57 61 60 59 59 58 58 59 58 57 58 58 57 57 58 57 55 55 54 53 51 49 48 47 44
45 46 45 44 43 44 42 41 41 43 44 43 44 46 46 47 48 51 55 58 59 59 59 59 58 59 60 60 60 59 59 56 56 56 55 55 54 53 52 51 50 48 48 48
43 44 44 45 45 45 43 43 44 46 46 46 47 48 49 48 49 50 54 56 59 58 59 59 59 61 61 59 58 57 55 56 56 56 55 54 54 53 53 52 51 49 49 47
46 46 47 47 47 46 46 47 46 47 47 48 50 51 51 51 51 52 55 56 57 57 58 58 58 58 59 58 58 57 54 54 56 56 56 55 55 55 55 54 51 50 48 46
48 48 50 49 49 49 49 50 50 50 50 50 52 51 53 54 55 56 55 55 55 56 55 56 57 57 58 57 55 55 54 53 54 54 54 52 53 53 53 52 51 50 47 44
49 50 49 48 49 50 50 50 49 49 49 48 49 49 50 52 54 55 55 54 54 56 55 57 55 56 55 56 53 52 52 52 52 51 52 51 51 51 52 48 50 49 47 45
48 48 47 47 48 48 48 50 49 49 49 50 49 49 50 53 55 55 54 54 55 56 57 56 55 53 53 51 50 49 48 49 49 50 49 49 49 48 49 50 49 48 47 46
46 46 46 47 46 47 49 49 51 50 50 51 51 52 52 51 52 53 54 53 53 53 55 54 54 51 50 49 47 47 46 47 47 48 47 47 46 46 45 45 45 48 47 47
46 46 46 45 47 46 48 48 50 50 50 51 51 50 51 51 52 53 52 54 54 53 55 54 52 52 50 46 44 41 39 39 39 39 42 45 45 44 44 44 44 44 45 46
46 46 47 47 47 46 45 47 51 52 51 52 51 51 49 49 48 52 53 52 51 52 53 52 52 52 49 46 42 39 37 37 37 36 37 42 45 45 44 44 42 41 43 42
46 46 46 45 45 45 46 46 48 50 50 50 51 51 51 49 49 48 49 52 50 51 52 50 50 50 49 45 41 38 38 37 34 35 36 36 36 38 40 40 40 39 39 41
44 43 45 45 43 44 45 47 47 47 49 49 49 48 49 50 48 46 48 48 51 50 51 50 49 49 47 44 41 38 38 38 37 35 34 34 34 36 36 37 37 38 38 39
44 42 41 41 41 41 43 45 46 45 47 47 47 48 49 49 49 48 46 47 47 47 48 49 48 47 46 44 42 40 39 39 37 36 34 33 33 34 34 35 36 36 38 38

GFSNGP_sfc_dewp_003.txt.gz
Dewpoint
27 24 19 15 12 19 24 25 25 22 28 31 41 45 46 48 53 53 54 57 60 61 66 67 68 68 68 67 68 69 70 69 70 70 69 68 66 65 64 65 65 64 64 66
24 24 19 16 16 17 22 20 25 25 30 33 39 44 46 48 53 53 53 55 58 60 62 64 65 66 66 67 68 70 70 70 70 69 68 67 68 65 64 64 64 65 65 65
28 20 18 20 19 19 25 27 25 26 31 37 36 42 45 47 52 54 54 55 57 59 61 63 63 65 65 67 68 69 70 70 69 69 67 68 67 67 65 63 64 64 65 64
32 30 23 20 21 20 20 22 26 30 34 39 41 45 47 48 50 53 54 55 56 55 59 62 60 61 64 66 69 70 70 70 69 68 68 68 68 67 66 64 64 65 65 66
31 27 28 27 33 26 22 24 43 40 43 40 39 45 48 48 47 50 53 56 58 57 59 62 61 63 65 66 68 69 69 70 69 68 68 67 67 67 67 65 65 66 64 65
38 33 28 39 45 46 45 29 46 47 47 45 44 35 45 50 49 51 54 58 59 61 61 63 64 64 66 66 68 69 69 70 69 68 67 66 67 67 66 66 65 64 65 66
42 39 34 47 48 48 34 36 48 47 47 47 47 49 52 55 57 58 58 60 62 62 63 65 67 66 67 68 68 69 70 69 69 69 68 68 68 67 66 66 65 66 66 66
46 42 36 48 48 42 48 50 49 50 51 51 52 53 54 55 57 58 59 61 62 64 66 67 67 68 68 69 70 69 70 69 69 68 67 66 67 66 66 66 66 66 65 64
47 47 49 49 51 51 50 50 50 52 51 53 52 54 55 58 59 60 63 64 63 63 66 67 68 68 68 68 68 69 69 67 68 68 67 66 65 65 63 64 63 63 60 59
50 52 48 49 49 50 52 52 52 53 53 54 52 55 59 60 60 60 62 64 65 66 66 66 67 67 67 68 69 68 67 67 68 67 66 65 63 63 61 60 62 62 62 59
48 49 47 46 49 49 50 50 50 51 52 53 54 53 57 62 64 63 65 65 66 66 67 67 67 67 68 68 68 67 67 67 66 65 64 64 61 59 61 63 58 61 59 59
43 51 50 49 48 48 47 47 47 48 48 51 53 55 56 58 63 65 65 66 66 67 67 66 66 67 67 68 68 67 66 65 64 62 61 60 59 57 45 45 45 45 45 56
48 50 48 44 43 43 45 44 44 44 47 46 47 48 52 54 57 58 60 62 66 67 66 66 66 66 67 67 66 65 64 64 61 61 61 61 59 58 56 47 42 41 42 42
49 47 44 43 42 42 43 42 43 42 44 45 45 46 46 47 50 54 57 59 64 66 65 65 65 64 65 64 63 63 62 55 59 57 58 59 59 58 57 56 55 50 43 42
47 47 47 47 46 44 44 44 45 43 43 45 46 45 47 49 49 51 54 58 62 65 65 64 63 63 63 61 60 60 58 56 57 58 58 56 59 58 56 56 54 51 48 45
49 49 49 48 47 46 44 45 45 45 45 46 46 48 50 51 52 52 54 56 59 59 64 64 63 63 62 60 61 60 62 58 58 59 59 58 58 56 56 55 52 51 50 49
47 46 47 46 46 47 47 47 47 46 46 48 50 52 52 54 55 55 57 59 60 62 63 64 63 63 63 63 62 61 60 57 57 57 57 57 56 56 55 53 51 51 51 51
49 49 49 49 47 47 47 48 48 48 49 50 49 49 51 53 56 58 60 61 61 62 62 63 63 63 63 62 62 59 56 57 57 56 57 57 56 56 55 54 53 52 51 49
49 47 47 47 47 48 48 48 49 50 50 50 49 50 52 55 57 59 60 60 60 60 59 61 59 60 61 60 59 57 55 54 55 55 56 54 55 56 56 56 54 53 52 50
46 46 45 45 47 48 48 50 50 49 50 51 50 52 53 54 57 58 60 59 59 58 60 58 59 59 60 57 56 53 53 52 52 53 54 53 53 54 54 50 52 52 51 50
46 45 45 45 45 46 49 50 51 51 52 53 54 54 55 55 55 58 57 54 59 60 60 58 58 55 54 54 52 51 51 51 51 52 52 53 52 51 51 50 49 50 50 50
47 47 46 46 46 46 48 50 52 52 53 54 53 53 54 54 55 56 57 55 55 54 57 56 53 52 51 52 48 47 46 47 47 47 47 47 46 45 45 45 44 45 45 47
49 49 48 48 48 49 49 50 52 53 53 54 54 54 52 49 51 52 51 56 55 55 55 55 52 52 50 47 45 43 42 42 42 41 41 42 42 43 42 40 40 41 42 44
49 49 51 50 49 48 49 50 52 53 54 55 54 54 53 48 47 48 52 52 51 53 54 53 52 51 49 46 45 43 42 42 41 40 37 39 39 42 42 42 40 41 41 42
50 49 49 49 47 46 51 51 50 51 52 53 53 52 53 52 50 48 49 51 51 53 54 51 51 51 51 49 48 46 44 42 41 40 39 38 35 35 39 42 41 39 39 39
48 44 44 48 45 43 44 45 44 44 45 47 49 48 48 49 49 49 50 48 51 51 52 52 52 51 51 50 50 48 46 44 41 38 39 39 38 36 34 35 35 36 36 35
40 39 40 40 40 41 41 42 41 40 42 44 44 44 46 46 46 47 47 46 47 47 47 48 49 49 49 49 49 48 47 45 42 42 41 40 39 37 34 34 36 36 35 35

GFSNGP_sfc_dewp_006.txt.gz
Dewpoint
24 20 19 18 13 13 15 18 23 24 24 28 31 31 31 30 34 44 54 56 58 59 64 68 68 68 68 66 67 66 68 68 70 73 73 73 73 71 68 68 67 63 66 63
30 24 22 19 19 15 13 14 17 18 22 24 28 31 30 30 32 44 53 55 58 61 63 66 66 68 68 69 68 69 70 69 71 73 74 73 73 70 69 68 66 66 64 63
32 27 26 25 23 20 18 15 16 18 23 23 25 29 33 34 40 45 52 55 58 60 62 65 66 68 68 69 69 70 71 71 72 73 73 72 71 70 68 67 67 65 64 64
33 35 29 24 25 24 20 16 18 23 25 27 31 35 39 41 38 45 52 55 58 57 61 65 64 64 66 68 70 70 72 72 72 72 72 71 71 69 68 65 65 66 66 66
33 30 31 30 31 24 22 21 19 25 28 27 30 39 47 49 49 50 54 56 58 59 62 65 63 65 66 67 68 69 70 71 72 71 71 69 69 69 69 66 65 66 66 66
35 31 31 39 45 47 46 33 26 24 27 28 34 36 29 51 48 49 54 56 58 59 61 62 63 63 65 65 68 69 70 71 71 71 71 70 70 70 69 68 66 64 65 66
34 35 33 47 46 47 40 33 29 32 37 37 40 43 53 53 53 54 57 60 61 61 60 63 63 64 65 66 66 68 70 71 71 71 71 71 71 70 69 68 67 67 66 66
37 38 34 48 46 44 51 52 50 48 47 48 53 55 56 57 58 59 59 58 57 61 64 65 65 66 67 68 70 71 71 71 70 71 69 69 70 69 67 68 68 66 69 68
40 36 51 50 50 52 51 50 51 52 52 53 52 54 55 56 56 56 56 56 58 61 65 67 69 69 69 72 72 72 70 69 70 70 69 69 68 67 65 67 64 65 67 64
47 49 49 50 50 50 51 51 51 52 50 51 51 52 53 55 56 59 60 60 60 62 65 68 70 70 71 71 71 71 70 70 69 69 69 68 67 67 66 64 63 67 66 64
47 51 48 50 51 51 50 51 52 52 52 54 56 57 60 61 61 61 62 62 62 63 66 68 69 70 70 70 70 69 69 69 67 66 67 67 63 59 62 61 57 60 60 61
42 51 53 50 48 48 48 48 50 50 51 52 54 56 60 62 63 64 65 65 66 66 68 69 69 69 70 70 70 69 66 65 64 64 65 65 63 60 44 45 46 46 45 55
50 51 49 49 47 44 45 45 45 46 48 49 49 49 52 55 58 57 61 63 66 66 67 68 68 68 69 69 69 68 65 66 63 61 60 61 61 58 56 49 42 41 41 42
49 48 47 49 49 48 44 42 43 43 43 43 43 45 47 48 50 53 57 58 61 65 65 66 66 67 68 67 68 67 65 57 61 60 59 58 58 58 57 56 54 53 43 44
50 49 46 46 51 50 44 42 42 44 43 44 46 47 47 48 48 49 52 54 56 59 63 65 65 66 66 65 65 63 59 58 58 56 55 55 56 56 55 55 54 54 47 44
51 50 50 49 49 46 47 44 43 44 45 46 47 49 50 51 50 49 51 54 53 54 61 64 65 65 64 62 60 57 58 57 56 55 57 57 57 56 55 54 54 54 51 50
47 46 49 49 49 48 47 47 45 45 46 48 48 49 51 52 52 54 56 56 60 61 62 64 65 65 63 61 59 56 55 58 57 57 56 55 54 53 52 52 52 50 50 51
51 52 52 49 45 46 46 46 47 47 48 47 47 48 50 52 55 56 58 59 61 62 63 64 65 64 63 61 59 56 55 55 53 51 52 53 53 53 53 51 50 49 49 50
47 45 45 46 46 47 47 47 48 48 49 49 48 50 52 54 57 58 58 57 59 60 61 63 61 62 62 61 58 54 53 53 53 54 54 54 54 52 52 51 50 51 51 51
43 43 43 43 45 47 48 49 48 47 50 51 51 51 52 54 56 57 59 59 60 59 61 60 60 60 60 58 57 54 53 53 52 52 52 50 49 50 51 50 52 53 53 52
43 43 42 43 44 46 49 49 49 50 52 53 53 54 54 55 55 55 54 52 60 60 59 58 58 57 55 54 52 50 50 51 52 52 51 49 50 49 48 48 49 49 47 48
45 44 44 43 43 45 49 50 51 52 53 54 53 53 52 53 54 55 56 54 56 54 57 55 53 54 52 54 48 47 45 46 47 47 46 46 45 45 45 45 44 44 45 45
46 46 45 45 47 48 46 48 49 52 53 54 53 52 49 47 47 48 53 55 56 54 52 51 51 53 52 47 44 42 42 43 42 42 41 41 41 41 42 42 41 40 40 41
48 48 50 48 46 46 47 49 48 50 51 52 50 51 47 40 44 45 50 52 53 52 52 52 51 51 49 44 43 42 42 42 41 40 40 37 35 36 38 40 40 40 39 39
50 49 49 47 42 40 45 47 43 42 45 49 49 47 47 45 44 43 47 48 51 52 54 52 52 51 47 45 45 43 43 42 41 40 39 40 38 36 35 37 40 40 40 39
45 41 43 47 43 41 39 39 38 38 39 38 40 40 41 42 43 42 44 46 45 48 43 47 51 52 49 47 45 44 44 43 42 41 40 39 38 38 37 36 35 35 36 35
38 37 37 37 36 37 37 39 39 39 40 40 39 40 41 40 41 41 43 41 41 40 41 42 42 45 44 42 42 43 43 42 42 41 40 40 39 39 37 36 35 36 35 36

GFSNGP_sfc_dewp_009.txt.gz
Dewpoint
24 23 22 18 10 10 13 16 19 21 24 28 34 32 32 31 34 34 36 49 53 54 61 65 65 66 66 63 65 63 68 68 71 75 75 76 76 77 77 76 75 73 71 69
26 21 20 18 18 15 12 11 14 16 20 23 28 33 33 32 34 34 35 38 53 57 59 65 66 68 68 68 67 67 71 70 73 76 77 76 77 78 77 75 74 72 69 67
32 28 27 24 21 19 20 18 15 16 21 23 26 32 34 32 33 36 36 38 51 56 60 63 64 69 69 70 69 71 73 74 75 77 77 78 77 76 75 73 73 71 68 64
29 33 28 27 27 24 22 22 21 21 22 23 32 35 34 31 32 38 41 41 48 53 60 65 63 64 68 69 73 74 75 75 76 77 77 77 76 75 74 72 72 69 67 66
32 31 39 36 37 36 36 29 25 26 24 20 22 24 34 33 32 36 38 39 49 55 60 68 66 69 70 69 72 72 72 74 75 74 75 74 74 73 72 71 70 67 66 66
36 31 30 31 42 42 38 32 30 28 27 21 23 23 29 36 39 44 45 40 54 58 61 65 68 66 68 68 69 70 72 72 74 75 74 72 73 73 72 72 70 66 65 68
32 33 32 41 41 42 34 36 51 48 45 36 25 32 39 41 42 49 48 55 60 61 66 68 68 66 69 69 68 68 70 71 73 73 73 73 73 73 72 72 70 69 67 69
32 31 30 46 43 40 51 51 51 51 49 49 34 33 51 52 52 52 54 58 59 63 66 66 68 69 70 71 72 73 73 72 73 73 71 71 72 72 71 71 69 69 69 69
33 35 52 52 50 51 51 51 51 51 49 47 43 51 54 56 58 59 60 60 60 61 66 66 70 70 71 75 74 74 73 73 72 72 72 72 72 70 68 69 67 67 65 66
45 50 51 51 51 51 52 51 50 51 51 51 52 54 56 57 57 56 57 60 61 63 65 68 70 70 72 73 73 73 72 71 71 70 69 69 68 67 66 65 65 65 65 67
50 51 51 52 52 53 54 53 52 54 58 54 56 56 57 59 60 59 60 62 63 64 66 68 70 71 70 72 72 70 71 71 70 68 68 67 64 63 65 62 60 62 64 65
47 51 52 51 51 51 51 52 53 54 56 59 60 61 61 60 61 61 61 63 65 65 67 69 69 70 71 71 71 69 69 67 67 66 66 66 63 58 45 46 45 45 46 54
52 51 48 48 47 48 46 47 48 49 51 50 51 52 53 56 60 60 62 63 63 65 67 69 69 70 70 70 70 70 67 66 63 62 62 64 61 61 60 51 43 42 43 45
52 51 49 48 49 49 46 43 43 42 43 45 46 47 46 47 50 55 60 63 65 65 67 67 67 68 70 69 70 68 66 59 61 59 58 59 59 58 56 56 55 54 45 47
49 51 50 51 53 51 51 50 42 42 44 45 46 47 48 48 49 50 52 54 58 63 64 64 66 66 67 67 67 66 63 60 59 58 57 56 56 55 54 54 54 54 50 46
51 51 51 49 47 50 51 49 47 45 44 47 48 50 51 51 51 50 52 52 51 55 60 63 65 65 65 65 65 61 58 58 57 56 55 54 54 53 52 52 51 56 52 50
48 49 50 49 50 50 48 49 51 50 46 47 48 51 52 52 53 55 55 54 56 56 58 61 65 66 65 63 60 56 54 55 57 54 54 53 53 52 51 50 49 50 53 52
50 51 52 53 52 50 49 49 50 47 49 47 47 49 51 53 56 58 55 56 58 59 59 65 66 67 64 61 59 54 53 54 53 52 52 52 52 50 49 48 48 50 53 49
48 48 48 46 47 49 50 49 48 48 49 48 49 51 51 53 55 55 55 55 57 58 62 65 62 62 63 61 59 53 53 51 51 51 53 54 52 51 50 54 51 53 53 51
45 45 43 43 46 47 48 47 48 49 50 50 49 50 52 52 54 54 57 59 61 60 63 61 62 62 61 59 58 53 56 51 54 54 56 51 49 55 54 49 50 50 50 52
42 42 41 42 45 47 48 49 49 52 51 52 52 53 53 53 53 57 59 56 59 60 60 59 58 56 55 55 53 53 52 51 53 53 50 49 48 47 49 49 49 49 51 52
43 42 42 42 44 45 48 48 50 51 52 53 51 52 55 51 56 54 55 56 55 56 55 56 55 54 53 54 49 47 47 48 48 48 47 47 46 45 45 47 49 49 48 51
43 43 43 43 45 45 44 45 46 49 51 51 51 50 47 47 49 56 57 54 54 53 55 52 52 52 51 48 46 45 44 45 43 43 42 42 41 41 41 42 42 42 42 41
46 47 47 45 45 44 45 45 45 47 48 52 47 48 46 42 48 44 50 51 52 52 52 50 49 51 49 45 43 42 41 42 42 40 40 40 37 35 35 38 38 40 41 39
46 47 47 45 42 40 43 44 45 42 46 52 50 49 47 44 43 41 42 47 51 50 55 51 51 50 45 42 42 43 43 42 41 40 40 39 38 38 37 36 35 38 40 39
44 40 41 44 40 38 37 38 37 38 38 39 39 39 39 40 41 41 49 45 42 46 40 51 50 49 46 43 42 42 46 44 42 41 40 39 38 38 38 37 36 36 36 36
39 37 36 36 35 35 34 36 36 36 37 38 37 38 38 39 40 40 42 40 40 40 41 40 45 48 44 42 42 44 44 42 41 41 40 40 40 39 38 38 38 36 35 35

GFSNGP_sfc_dewp_012.txt.gz
Dewpoint
20 18 19 20 17 17 18 21 21 20 21 29 34 40 38 40 44 42 49 52 56 58 62 61 63 64 64 64 65 66 70 71 73 74 75 75 75 76 76 76 76 75 74 72
26 22 20 20 21 17 15 16 19 19 20 22 28 34 38 40 38 44 45 46 55 58 65 66 64 64 64 64 64 66 68 69 72 74 75 75 76 76 76 76 76 76 74 72
28 24 23 22 24 22 21 14 16 17 24 27 28 33 40 46 44 45 45 46 56 59 61 64 65 66 64 64 65 66 69 70 71 73 75 75 75 76 76 76 76 75 74 72
27 30 26 25 24 21 21 22 20 23 27 29 31 34 35 36 42 45 45 45 48 50 60 65 64 63 66 66 68 68 72 71 72 74 75 76 76 76 76 77 76 75 73 70
30 27 30 27 29 30 26 26 28 27 30 25 28 29 34 33 35 39 41 50 49 42 59 65 65 67 69 68 68 71 70 75 73 77 76 76 76 76 77 75 73 72 71 67
33 30 30 35 32 41 38 34 39 42 38 34 33 26 28 37 34 33 34 40 49 45 62 67 68 67 69 69 70 69 73 74 77 77 77 77 77 76 74 72 72 71 68 67
32 29 29 38 40 40 35 38 49 47 47 46 44 48 52 45 56 47 40 46 62 65 65 69 70 69 70 71 71 72 74 75 76 77 77 77 77 74 72 72 73 70 68 67
37 37 38 45 45 40 50 49 47 47 47 48 51 50 50 53 58 57 53 55 64 67 70 71 71 72 73 73 75 76 75 75 76 77 74 74 74 73 73 72 70 69 68 68
34 34 49 52 52 51 50 49 50 49 47 47 47 48 47 55 54 55 56 64 63 68 71 72 74 73 73 75 75 74 74 75 75 75 74 74 72 72 71 71 69 68 68 68
37 43 47 48 47 49 49 51 51 57 59 53 48 48 52 57 60 63 64 66 66 68 69 71 73 73 75 75 75 75 75 74 73 72 71 72 71 70 69 68 67 67 68 70
41 51 52 53 54 53 52 57 59 59 60 62 62 61 60 63 65 64 65 67 68 69 70 72 74 74 74 75 75 73 72 71 70 69 69 67 60 63 67 59 59 69 69 67
53 53 54 53 53 53 53 54 56 56 56 59 61 61 62 64 65 66 67 67 68 70 71 72 72 73 74 74 73 72 70 69 68 68 67 65 61 58 46 46 44 44 46 60
52 54 51 49 47 49 50 49 50 50 53 54 58 58 59 62 63 61 63 66 68 69 70 71 71 71 72 73 73 71 69 69 67 66 66 65 64 62 58 50 44 43 43 48
54 52 51 49 47 46 44 44 46 45 45 46 49 52 58 59 58 61 64 65 67 68 69 70 69 69 71 71 72 72 70 62 66 65 65 65 65 63 62 60 57 55 45 46
54 49 50 50 50 49 48 48 45 44 45 46 49 49 49 51 53 56 58 63 65 66 67 68 69 69 70 70 70 69 67 64 64 65 63 63 62 61 59 59 58 55 51 47
51 50 49 48 48 49 48 49 49 48 46 44 48 51 53 54 55 55 56 59 62 66 67 67 67 68 68 69 69 67 67 61 61 61 59 60 58 57 56 58 56 54 54 51
48 47 48 47 49 51 50 50 51 53 48 48 50 49 53 55 56 58 59 58 62 63 65 67 68 69 68 67 69 62 58 60 58 59 57 56 55 55 54 53 55 55 53 52
50 49 49 49 48 48 49 51 53 54 53 50 51 51 53 56 57 58 61 60 60 64 65 67 68 68 65 64 63 61 56 56 55 54 57 58 56 56 55 53 54 56 54 50
51 50 50 49 48 46 47 50 53 53 52 53 53 54 55 55 55 60 59 59 60 61 64 66 62 63 65 63 61 58 55 53 53 56 55 54 55 52 56 55 55 52 52 50
46 45 44 45 47 49 51 52 52 52 52 53 55 56 56 56 58 60 60 61 63 62 63 63 64 63 63 62 59 55 54 55 55 56 59 55 55 59 56 50 54 52 52 52
42 43 45 49 50 50 50 50 51 52 54 54 55 55 56 57 58 58 60 60 61 61 61 60 64 59 57 58 53 53 53 55 58 56 54 53 51 52 54 50 50 51 52 53
43 43 43 45 44 49 50 53 54 55 55 55 53 54 56 57 57 56 59 58 57 55 55 55 52 54 53 55 51 50 50 52 52 49 48 50 49 49 50 51 50 51 52 52
46 47 47 49 48 48 47 48 49 52 53 54 53 53 52 54 55 54 58 55 54 52 52 50 53 55 52 48 47 46 47 45 44 44 44 44 43 45 45 44 44 48 51 51
48 50 50 49 48 50 51 51 47 51 51 51 50 50 52 42 49 49 50 51 51 52 51 50 50 51 49 45 46 43 42 43 43 42 42 41 40 39 38 39 39 41 44 44
49 49 48 47 45 44 48 51 48 47 49 51 47 49 50 47 47 42 43 45 48 50 51 50 50 50 45 42 42 43 45 44 42 45 46 43 39 39 41 39 38 40 41 43
46 40 41 47 42 38 36 38 38 41 37 43 42 42 42 48 45 43 49 48 46 46 43 50 49 48 47 44 42 42 48 45 44 44 43 42 41 39 38 42 38 38 40 37
39 36 35 34 32 32 31 35 35 34 37 38 37 38 38 40 43 40 43 43 43 44 46 50 49 51 46 45 45 47 47 46 47 47 42 44 45 45 42 42 44 43 40 40

GFSNGP_sfc_dewp_015.txt.gz
Dewpoint
19 19 18 15 18 15 13 11 13 13 12 16 22 40 40 39 42 38 42 45 51 51 53 57 60 62 63 65 67 71 72 73 73 73 73 74 74 74 73 73 73 72 70 70
24 23 16 15 18 20 14 14 15 15 16 23 28 35 44 42 39 34 34 50 54 54 53 55 57 61 62 64 66 68 71 71 72 72 73 73 74 74 74 73 74 72 72 71
21 25 25 21 17 19 23 20 20 17 17 22 23 26 34 40 40 36 38 48 52 54 56 55 58 60 62 64 65 66 69 71 71 71 72 73 73 73 74 74 74 74 73 72
24 28 25 27 27 26 24 28 25 22 24 30 30 33 37 35 31 36 39 45 53 54 61 60 60 60 62 63 65 65 66 69 70 71 71 73 73 74 73 74 74 75 74 71
26 24 25 27 27 28 26 26 27 38 38 31 30 29 30 36 36 31 32 37 39 54 59 64 61 61 61 62 64 64 65 67 69 70 71 72 73 73 73 74 75 74 72 69
27 24 21 27 31 40 39 35 47 47 47 46 42 33 31 48 45 38 42 36 35 41 56 60 64 63 61 61 63 63 63 67 68 69 71 73 73 73 74 74 72 72 69 68
30 22 26 33 38 40 34 42 50 48 47 47 46 49 49 50 49 53 53 42 44 51 59 61 65 64 63 62 62 65 64 74 71 73 74 74 75 74 72 71 71 69 67 67
35 32 31 49 43 40 48 51 47 47 46 47 48 49 49 48 48 50 49 59 51 62 63 67 67 67 67 66 69 71 74 75 76 76 76 74 73 71 70 71 70 68 66 66
36 42 53 52 48 49 50 51 52 56 60 55 52 53 50 54 54 52 62 68 69 69 71 72 71 70 71 73 74 74 74 74 74 73 72 72 71 70 70 69 68 67 66 66
47 41 47 51 51 55 62 60 60 61 61 61 61 62 63 62 62 65 66 67 69 70 70 71 73 72 73 73 73 73 73 72 72 71 71 71 70 69 69 68 67 67 67 65
49 50 53 55 60 58 60 60 58 58 59 59 59 60 61 62 65 66 66 67 69 70 71 71 72 72 72 73 73 72 71 70 70 70 67 59 53 56 63 55 60 65 66 65
49 51 52 51 54 59 55 56 56 55 55 57 58 58 58 59 60 62 61 69 70 70 71 72 72 72 72 72 71 70 68 68 68 65 62 60 57 53 45 46 45 45 51 58
52 54 52 52 49 50 48 49 51 52 54 55 58 58 58 58 58 58 60 66 68 69 69 70 70 70 71 70 70 69 68 67 66 64 63 62 60 57 53 49 45 43 44 49
54 54 51 52 51 49 48 47 47 47 50 54 56 57 58 59 59 59 59 61 68 68 68 68 69 69 71 70 69 68 67 61 66 65 64 63 61 59 56 55 54 53 44 44
53 51 52 53 53 52 50 49 47 46 48 49 51 53 53 55 56 58 59 64 67 68 68 68 68 67 69 70 70 68 67 66 66 65 65 63 63 61 58 57 56 52 47 44
51 52 50 49 50 51 50 51 49 46 46 46 49 55 56 56 56 58 57 62 64 64 66 67 68 68 68 68 66 66 63 62 63 64 66 65 64 62 61 58 54 52 51 50
49 48 49 49 50 50 50 52 53 51 47 44 49 54 56 57 57 58 58 63 63 65 65 65 66 67 66 67 66 65 64 61 59 60 64 62 57 56 59 57 54 53 53 51
51 51 50 50 50 50 50 53 54 54 49 46 51 53 54 55 53 57 59 60 60 62 63 63 64 65 64 64 64 60 58 58 57 58 59 60 57 55 56 57 55 55 53 49
52 51 49 45 46 47 48 52 53 54 53 47 54 54 54 55 57 58 58 60 59 60 62 62 62 63 62 61 60 59 56 55 58 57 54 55 57 57 54 55 55 55 55 49
47 48 50 50 50 51 52 52 52 53 53 54 55 55 55 56 57 58 59 59 60 61 63 62 62 62 62 61 59 58 58 58 58 56 58 58 56 56 56 54 55 54 53 49
49 49 49 49 50 51 53 53 53 53 54 53 52 53 55 57 57 56 57 57 58 56 57 59 57 58 59 59 57 55 57 58 58 58 55 55 54 54 55 54 54 55 53 51
46 46 47 49 50 50 50 53 54 53 54 54 53 53 53 55 56 55 57 55 54 53 53 53 53 55 53 57 54 52 53 54 55 54 53 53 52 51 49 55 56 55 53 53
47 50 50 49 49 49 51 50 49 52 51 52 50 51 53 53 54 53 52 53 54 51 50 48 52 50 50 52 51 48 48 48 47 46 46 45 44 44 43 44 44 47 50 51
47 47 51 43 49 50 47 48 47 53 52 52 51 51 50 48 52 51 51 50 51 53 50 49 47 50 48 46 46 46 47 45 44 43 42 42 40 40 38 38 39 41 44 44
50 45 44 41 38 40 40 45 41 40 47 47 46 42 43 47 48 48 48 46 47 49 51 49 50 49 47 47 45 44 46 43 44 42 45 43 42 41 42 40 39 40 40 39
42 40 39 39 35 36 37 37 37 40 39 39 40 40 42 45 43 42 44 46 45 47 47 52 50 49 47 47 48 49 49 49 50 47 45 45 45 43 40 40 41 38 39 39
37 37 35 34 33 34 36 36 35 38 38 40 39 43 43 40 40 40 40 39 42 41 46 46 47 50 48 47 47 48 49 50 48 50 50 50 50 50 49 49 49 49 47 46

GFSNGP_sfc_dewp_018.txt.gz
Dewpoint
18 17 15 18 17 16 13 11 10 11 10 12 14 17 23 28 42 40 39 43 48 47 52 56 60 61 63 66 69 70 71 72 72 73 73 73 73 72 71 72 72 70 70 69
25 22 15 15 17 17 18 15 13 11 11 14 15 21 28 36 34 40 37 38 44 49 52 54 59 61 62 65 69 70 72 72 73 73 73 73 74 74 72 72 73 71 70 69
25 21 16 17 16 17 17 18 15 13 14 20 20 25 27 28 40 40 36 39 49 50 52 55 59 61 61 64 68 71 71 72 73 73 73 73 73 73 74 72 72 72 70 70
26 25 18 20 20 18 18 22 23 16 19 23 21 22 28 30 36 40 38 39 51 51 52 55 58 61 62 63 66 70 71 72 73 73 73 73 73 73 73 74 72 73 72 71
26 25 22 25 27 24 21 23 29 26 26 27 27 29 31 37 30 27 35 42 45 55 54 55 57 60 62 63 65 67 69 70 72 72 72 73 72 73 73 74 74 74 74 72
26 24 20 22 27 38 34 32 47 44 43 39 33 26 27 43 44 38 32 35 39 53 60 56 56 58 60 62 64 65 67 69 71 71 71 72 72 73 73 74 74 74 73 72
27 28 23 31 37 39 31 33 48 47 46 44 43 38 45 49 44 47 39 37 38 38 54 62 58 58 59 61 63 64 66 67 69 70 71 71 72 73 74 74 73 72 69 67
37 30 28 46 43 30 40 52 48 47 46 46 46 47 47 48 46 51 49 50 43 39 42 52 62 59 59 60 62 64 65 65 67 69 70 72 73 74 73 72 70 68 67 67
43 42 50 53 48 55 58 59 60 60 60 59 60 62 63 62 64 57 63 65 66 46 47 54 61 61 60 60 62 64 64 67 68 69 71 74 73 72 71 70 69 67 66 66
43 48 51 52 57 60 58 58 57 58 59 60 60 61 61 61 61 63 64 64 68 70 68 68 67 64 62 65 68 68 69 73 74 73 73 73 72 71 70 68 67 66 66 66
48 49 51 51 54 57 57 57 55 57 57 57 58 58 59 58 59 59 59 56 57 64 69 70 71 72 72 70 73 73 73 73 72 71 69 63 57 64 67 63 66 67 66 65
47 51 49 51 52 56 55 54 53 55 56 57 58 57 57 56 57 58 58 58 58 55 56 56 57 72 72 72 72 71 70 69 66 64 63 61 59 56 48 48 48 52 54 61
51 54 52 51 51 50 49 51 52 52 53 55 56 57 57 56 57 58 61 58 58 59 60 61 60 62 71 71 71 70 68 66 64 64 63 62 61 58 54 50 45 45 49 50
54 54 51 52 50 50 48 49 50 51 52 53 54 55 56 56 58 60 62 64 65 59 58 59 59 57 69 69 68 67 66 59 65 65 63 62 60 58 56 56 56 52 45 45
51 52 52 53 53 52 51 49 47 47 48 52 54 55 54 55 57 60 63 65 66 65 62 64 68 68 68 68 67 67 66 65 65 63 63 61 60 58 57 55 54 50 47 45
51 51 51 50 50 52 52 51 47 45 44 50 52 54 55 56 57 61 62 64 63 63 65 65 65 66 66 67 67 67 65 62 64 64 63 63 60 58 57 56 53 51 52 49
48 48 48 49 50 51 53 54 53 48 44 50 52 53 51 55 57 57 57 61 62 62 62 63 62 63 63 64 64 63 62 63 63 65 65 64 63 61 59 57 54 52 52 50
51 51 51 50 50 51 52 52 53 54 49 50 50 52 54 53 52 54 56 54 57 60 61 62 63 62 61 60 60 59 61 60 61 64 65 64 63 62 61 58 55 53 52 48
53 50 50 50 50 49 49 52 52 53 54 52 54 52 54 56 57 55 54 57 57 56 58 60 61 61 60 60 60 59 59 57 58 57 58 57 57 58 61 57 56 56 55 51
52 52 51 51 52 51 50 52 53 53 53 54 54 55 55 55 56 58 57 56 57 58 59 58 56 59 58 59 58 58 59 57 57 58 58 57 57 57 57 54 57 56 54 52
49 47 47 49 51 51 52 52 52 52 52 52 53 54 54 55 56 56 55 53 55 55 52 53 55 57 57 58 58 58 58 57 58 58 57 56 56 56 55 55 55 54 52 50
48 49 49 49 49 49 50 51 52 51 51 49 51 52 53 53 54 53 54 53 52 53 49 47 50 54 54 56 52 57 57 57 56 56 56 55 54 54 54 54 55 53 53 51
38 37 39 38 39 41 40 45 48 49 45 45 45 49 51 52 50 46 48 51 49 49 47 48 50 51 50 51 46 52 53 53 52 49 49 51 49 46 47 52 53 52 53 53
36 33 33 34 35 35 36 38 38 40 42 39 40 43 45 48 45 49 49 49 50 50 48 48 49 50 49 47 45 45 46 45 44 43 43 41 39 38 38 40 42 45 46 48
34 32 31 31 34 34 33 35 36 38 37 39 41 42 40 40 40 41 43 46 47 49 51 49 49 49 49 49 50 50 49 49 47 44 44 42 40 39 38 38 38 41 40 40
33 32 31 31 32 34 33 34 36 37 38 40 42 41 39 37 36 34 36 41 43 47 47 48 48 47 47 48 49 50 51 50 50 49 49 50 49 48 48 48 44 42 43 43
33 34 30 30 31 33 35 36 36 36 38 39 38 39 40 37 38 37 37 34 38 40 42 44 45 48 46 45 47 48 48 50 47 49 48 48 47 46 46 47 46 46 45 45

GFSNGP_sfc_dewp_021.txt.gz
Dewpoint
26 26 24 16 15 15 15 15 13 14 11 12 17 20 21 25 37 42 47 48 46 47 50 52 55 59 61 64 67 67 68 69 69 70 70 71 70 70 70 71 71 69 69 69
26 24 23 21 18 17 15 15 14 14 13 15 16 18 18 18 24 41 42 46 46 46 48 51 54 58 60 64 66 68 68 69 69 70 71 71 72 72 71 70 71 70 69 68
26 26 25 20 19 17 16 16 15 14 15 16 15 17 18 21 29 33 41 41 41 44 45 47 52 57 59 63 65 68 69 69 70 70 71 72 72 72 72 71 71 70 70 69
26 26 22 19 19 18 17 19 20 17 19 21 20 20 23 26 29 36 39 40 39 40 45 49 53 57 59 62 65 68 69 70 70 71 71 72 72 72 72 71 72 72 70 70
25 26 26 24 25 18 18 19 24 19 21 22 24 27 24 29 30 29 35 40 41 46 45 50 53 57 60 62 64 68 69 69 70 71 71 72 72 72 73 72 71 72 71 70
27 24 23 26 46 49 24 19 39 28 27 25 27 22 24 27 35 34 33 36 43 51 54 52 54 57 60 61 64 67 69 69 71 72 72 72 72 72 73 73 73 72 72 72
27 26 27 45 52 51 27 21 46 40 34 34 29 30 31 39 46 45 44 36 37 47 56 54 56 59 60 61 62 65 68 70 70 72 72 72 72 73 73 73 74 73 73 73
29 30 28 52 52 47 49 55 49 48 46 47 50 55 55 59 55 60 65 67 65 42 41 54 57 58 60 61 63 64 66 68 70 71 72 72 73 73 73 73 73 73 71 70
36 36 51 52 53 57 58 56 57 58 59 60 61 62 62 61 62 58 60 64 68 67 62 54 53 60 58 60 62 63 65 66 68 70 71 72 72 73 73 73 73 70 69 68
44 48 52 53 54 57 57 56 57 58 59 60 59 58 57 58 58 56 54 54 61 63 64 62 64 66 62 59 60 62 64 65 66 69 70 72 73 73 73 73 71 69 69 66
46 50 53 54 53 54 54 55 55 56 56 56 55 55 55 56 56 56 56 56 54 60 60 58 57 59 59 63 63 62 63 65 67 69 70 71 62 68 72 68 68 68 68 67
45 50 50 51 53 53 54 53 54 55 55 56 56 56 57 57 57 58 58 57 57 56 57 59 60 60 59 59 69 66 67 70 71 71 65 62 61 58 54 53 55 55 55 59
50 52 51 52 53 53 52 52 53 54 53 54 55 56 56 56 57 58 63 63 61 58 57 58 59 58 59 61 68 71 71 68 66 64 65 65 66 64 62 59 51 46 50 49
53 51 50 52 50 50 50 52 52 54 54 55 55 56 56 58 60 61 62 63 62 60 60 65 63 65 65 59 63 65 65 59 66 65 65 65 63 62 61 60 61 57 45 49
52 52 52 53 54 52 51 49 48 51 51 51 53 55 57 58 60 61 62 63 63 63 63 63 63 64 64 61 63 65 66 65 64 64 63 61 61 61 61 61 60 53 50 46
51 51 51 51 52 52 50 48 47 48 51 49 52 53 55 55 53 55 59 61 61 61 61 61 61 63 65 62 61 56 60 60 62 63 61 60 59 58 59 59 56 55 56 54
49 48 49 50 50 51 51 52 51 50 50 51 53 53 51 50 50 53 53 56 59 60 61 61 60 61 61 64 65 61 64 64 61 63 61 61 60 58 57 56 55 55 54 50
50 51 51 50 50 50 51 52 52 52 52 53 54 55 55 53 51 53 55 56 55 54 56 59 59 59 60 60 62 63 63 64 64 63 63 62 61 60 58 56 54 54 51 46
51 50 51 52 52 52 52 53 53 53 53 54 53 53 55 56 56 55 56 56 57 57 57 57 58 57 58 60 60 59 59 60 61 63 63 59 61 61 59 57 56 53 52 49
53 54 53 50 52 52 52 53 52 51 52 54 55 55 55 55 55 54 54 52 53 54 53 56 56 55 56 58 58 58 58 57 57 57 59 60 60 58 58 54 56 55 54 52
50 49 50 50 49 50 51 52 50 49 51 54 55 54 55 54 54 54 52 48 51 50 47 51 52 54 54 56 58 58 57 56 57 56 56 56 56 57 56 57 57 56 54 53
36 37 37 38 40 42 43 44 43 43 45 48 51 51 49 49 49 51 52 51 49 49 48 47 49 52 50 53 55 57 57 57 57 56 56 56 56 56 55 55 56 54 53 52
33 33 33 34 35 36 37 37 39 41 42 42 42 43 46 47 47 47 46 48 50 47 47 49 51 51 51 47 47 50 54 54 54 54 53 53 54 54 55 54 55 54 53 53
31 32 33 33 34 34 35 37 39 40 41 39 38 36 36 38 38 40 46 49 49 48 49 49 50 51 50 50 49 49 48 47 45 44 45 42 42 42 47 50 51 53 54 53
30 31 32 33 34 34 35 38 40 40 39 39 39 37 36 36 36 39 44 46 46 47 47 48 49 49 49 50 50 50 50 49 48 49 49 45 42 43 42 39 41 42 42 43
31 32 33 33 34 35 36 38 38 39 38 38 39 39 39 38 38 37 37 38 36 37 38 39 42 44 45 47 48 50 49 49 49 48 47 47 47 47 46 45 45 44 44 44
28 31 30 30 31 36 37 38 37 37 38 36 35 37 37 37 37 37 38 36 35 35 35 34 34 36 37 39 43 47 48 48 46 48 47 48 47 45 44 43 42 42 41 40

GFSNGP_sfc_dewp_024.txt.gz
Dewpoint
28 28 27 26 24 22 18 16 16 16 17 21 23 24 25 26 40 42 46 51 51 50 51 54 56 59 60 62 64 65 66 66 68 69 69 70 71 71 71 71 71 71 70 71
28 27 26 25 25 24 22 18 19 17 18 19 22 25 26 27 31 33 42 48 52 52 53 54 56 59 60 63 64 66 67 66 68 69 69 69 70 71 71 71 71 71 70 70
25 28 27 22 21 21 21 19 18 17 21 21 21 23 23 23 27 29 32 38 49 51 51 53 55 59 60 62 64 66 67 68 69 69 70 70 70 70 70 70 71 71 70 70
27 27 21 23 26 24 21 19 20 20 23 24 24 25 24 24 24 28 31 40 46 49 51 52 53 53 59 62 65 67 67 68 69 70 70 71 71 71 71 71 70 71 71 70
24 25 23 22 38 46 45 36 23 21 24 25 23 25 29 31 30 30 33 39 43 46 49 53 53 57 60 62 65 67 68 68 69 70 70 71 71 71 71 71 71 71 71 71
27 24 22 28 48 50 51 38 32 27 24 24 27 23 27 30 34 32 35 38 42 46 50 50 54 58 60 61 64 66 68 69 70 70 70 71 71 72 72 72 72 72 72 71
26 27 27 31 51 53 32 38 55 56 50 26 26 26 39 45 50 55 50 50 44 50 53 57 58 60 61 61 63 65 67 69 70 71 71 71 71 72 73 73 73 72 72 72
27 28 24 50 51 49 50 56 55 57 56 35 47 58 61 62 63 65 66 68 66 54 53 53 60 62 63 63 64 67 69 69 70 71 71 71 72 72 73 73 73 72 72 72
28 28 40 52 53 55 56 54 55 56 58 60 61 60 60 58 57 57 61 64 67 65 63 62 65 64 62 64 65 66 68 69 71 71 72 72 73 72 72 73 72 72 71 71
38 40 41 53 54 55 55 55 56 57 56 57 56 56 55 55 55 55 55 55 63 62 60 59 62 63 63 65 69 66 67 68 70 71 71 72 73 73 72 72 72 71 71 71
37 40 50 53 52 53 54 55 56 56 56 56 57 57 57 58 59 60 60 59 57 57 59 59 60 60 61 61 68 69 65 67 68 70 70 73 65 68 73 73 71 72 71 70
39 41 48 50 51 53 53 53 56 56 57 57 57 57 59 58 60 61 60 60 60 61 61 61 61 61 61 61 66 71 68 66 68 70 71 63 61 57 49 54 54 52 54 62
45 48 50 52 53 53 53 54 56 56 57 57 57 59 60 59 60 60 61 62 61 60 62 62 62 63 64 64 62 68 70 69 69 68 65 63 66 65 60 54 52 52 53 54
48 52 51 52 51 53 53 54 55 56 57 57 58 60 60 60 60 61 61 62 63 62 62 63 63 64 64 64 62 66 71 60 67 66 66 68 66 65 63 61 60 58 52 52
51 53 53 53 52 52 52 53 52 52 54 55 55 56 57 59 59 60 62 62 62 61 61 61 61 61 63 65 62 63 64 66 66 67 67 63 62 62 62 62 61 59 54 50
52 53 52 51 51 52 52 52 52 52 52 52 51 51 53 55 56 56 59 60 59 59 60 60 59 60 62 62 59 60 63 60 61 63 63 62 62 61 61 61 58 57 59 54
49 49 50 49 50 51 52 52 52 52 53 54 55 53 52 53 54 55 55 56 56 56 57 57 57 60 62 62 62 60 63 64 60 62 61 61 61 61 61 60 59 60 60 56
51 52 52 52 51 51 52 52 52 53 53 54 55 55 55 55 55 55 56 57 55 55 56 57 57 58 61 62 63 64 64 64 63 62 61 61 61 61 61 60 59 58 57 52
53 53 52 53 54 53 52 52 52 53 54 54 55 54 54 53 52 51 51 49 50 50 51 54 57 56 58 60 60 62 63 64 63 62 62 58 60 59 59 59 58 56 55 53
50 51 51 50 51 51 51 52 53 54 55 55 54 53 53 53 53 52 50 49 50 51 51 53 53 53 56 59 59 59 60 61 61 61 61 62 61 60 58 54 56 55 54 55
45 44 43 43 41 43 43 47 50 50 51 51 51 50 50 51 50 50 47 45 49 50 50 51 51 52 55 57 58 59 58 57 60 60 61 59 60 59 59 58 57 57 56 54
41 38 38 42 41 39 41 42 42 42 41 42 43 43 43 46 48 50 50 49 49 50 50 50 51 53 51 53 54 57 58 58 57 57 57 59 58 58 58 58 58 57 57 56
39 37 37 37 38 40 40 40 39 39 39 38 38 39 43 44 46 47 46 48 48 48 48 49 51 51 51 50 49 49 50 51 52 55 56 55 56 57 57 57 57 56 55 55
34 35 36 38 38 39 39 39 38 39 40 40 39 39 39 40 38 40 40 41 43 43 42 45 47 49 50 49 49 48 48 49 48 47 45 42 43 42 45 51 53 57 57 55
33 34 35 36 37 37 38 39 38 38 38 39 38 38 38 38 37 37 37 37 39 37 37 41 43 45 46 48 49 49 48 48 47 46 46 46 45 45 45 44 44 44 44 44
29 30 32 34 37 38 38 37 36 37 36 35 36 37 36 36 35 35 35 37 35 36 33 34 36 39 42 43 47 47 48 49 49 48 46 45 44 43 42 42 41 41 42 42
26 30 28 31 32 36 37 35 33 33 34 34 33 33 33 33 33 32 33 32 33 33 33 33 32 33 34 40 42 44 45 47 46 48 49 48 47 45 43 42 41 41 40 40

GFSNGP_sfc_dewp_027.txt.gz
Dewpoint
27 26 25 26 25 25 24 25 24 23 24 26 29 31 33 33 38 41 43 47 51 55 60 63 63 64 64 64 66 66 69 68 70 72 73 73 73 73 74 74 74 74 74 74
24 23 25 25 26 26 25 24 23 23 23 26 29 34 35 34 37 41 40 44 50 57 59 61 63 63 64 65 66 68 69 69 71 73 73 73 73 74 74 74 74 74 74 74
19 23 21 21 23 24 24 25 23 23 25 27 27 30 34 37 39 42 41 44 48 54 58 60 60 63 63 65 66 68 69 70 71 72 73 73 73 74 74 74 74 74 74 74
15 20 17 21 26 26 27 27 25 25 26 28 32 35 38 38 38 40 42 43 48 43 52 61 57 56 63 64 68 69 70 70 71 71 72 73 73 73 74 74 74 74 74 74
15 15 20 19 22 38 40 30 39 35 29 27 27 30 38 37 38 42 43 45 46 43 49 61 61 62 65 65 67 69 69 70 71 71 72 73 73 73 73 73 74 74 74 74
20 13 14 22 22 28 48 32 51 53 50 40 29 26 29 41 38 36 38 41 45 46 52 54 61 59 63 64 66 68 69 70 71 72 72 72 73 74 74 73 73 72 73 74
20 18 18 23 31 52 37 34 53 54 55 56 52 37 44 44 44 48 49 47 47 48 52 57 59 59 65 65 66 67 68 69 72 73 74 73 73 74 74 74 73 74 73 74
24 19 15 26 35 30 45 54 55 56 56 57 59 58 47 55 62 66 66 64 50 53 59 64 64 63 66 68 68 69 70 71 74 74 72 71 74 74 75 74 74 74 74 72
27 23 33 36 43 52 56 56 56 57 57 57 59 59 56 62 65 66 67 67 65 64 66 67 67 67 67 69 69 70 71 73 74 74 74 74 74 74 72 72 72 72 72 72
30 29 33 34 39 40 54 56 57 57 57 57 60 59 59 59 59 62 65 65 63 63 64 65 68 69 70 71 71 70 71 72 73 74 74 75 73 73 72 72 71 70 71 71
34 35 37 39 41 42 46 56 57 57 58 58 58 57 58 59 60 59 60 61 62 63 63 64 65 65 64 65 71 72 70 70 71 71 72 73 74 73 72 72 71 72 72 71
31 35 38 43 40 46 53 55 57 57 59 59 60 58 58 61 62 62 62 63 63 63 63 64 65 65 65 66 65 67 68 68 67 67 68 71 73 69 54 53 55 54 56 67
38 40 42 46 48 52 54 56 57 58 59 60 59 60 60 60 60 60 63 63 63 65 66 66 66 66 67 68 67 66 66 67 67 66 66 72 67 69 65 56 48 50 51 52
44 45 43 47 48 54 55 56 57 59 60 60 60 60 60 60 60 61 62 63 64 63 64 65 65 65 65 64 66 66 67 58 66 69 70 68 68 67 63 62 61 58 50 54
41 43 48 50 54 54 55 56 56 56 56 56 58 59 59 59 59 60 62 61 61 61 62 64 65 65 64 65 66 66 65 64 65 64 63 63 66 66 65 62 60 60 53 49
43 45 48 51 52 54 55 56 54 54 55 54 56 57 57 57 57 56 56 57 57 56 59 62 64 65 65 65 64 63 64 59 61 63 62 60 61 61 62 62 61 57 58 56
48 48 51 52 53 54 55 56 55 54 54 56 57 58 58 58 57 57 57 56 57 58 57 59 61 64 66 65 64 62 62 63 60 65 63 63 62 61 62 61 60 61 59 56
53 53 53 54 53 53 53 54 55 56 56 56 55 54 53 52 52 53 53 54 54 54 54 56 57 61 63 65 66 64 63 63 64 62 63 63 62 62 62 61 61 60 57 53
48 50 52 53 54 54 54 55 56 56 55 54 52 51 50 50 50 51 51 51 52 52 53 55 56 57 60 61 62 64 64 64 63 62 63 59 61 61 60 60 59 58 58 58
48 47 48 50 49 51 52 52 53 52 53 53 51 51 50 50 51 52 51 51 52 51 54 54 56 57 59 60 59 61 63 64 63 63 63 62 62 60 60 55 59 59 59 60
46 47 46 46 45 45 45 47 46 45 46 47 50 50 51 51 49 49 49 47 49 51 51 53 52 53 53 55 56 57 57 58 61 62 63 63 62 61 60 59 58 58 57 57
42 41 44 46 44 42 43 44 44 44 44 46 48 48 49 49 49 47 45 45 44 47 48 49 50 52 51 53 51 52 52 54 54 56 58 59 61 61 61 59 58 58 57 56
40 40 41 41 41 41 41 41 42 43 42 42 45 45 42 40 40 40 39 41 41 43 45 46 49 51 51 49 48 49 48 48 46 46 48 49 56 56 57 57 58 58 57 57
39 41 41 40 40 41 41 41 41 41 42 41 41 41 39 38 37 37 38 39 41 42 41 44 46 49 49 49 49 49 47 48 45 45 44 43 47 48 47 48 49 49 52 54
39 39 39 39 39 38 38 39 38 38 39 39 38 37 36 37 36 36 36 36 39 38 38 41 45 45 43 46 48 49 49 47 46 45 45 44 42 43 43 43 44 45 46 46
35 35 36 38 37 36 35 35 34 34 34 33 32 32 31 31 31 32 32 35 33 35 33 34 36 39 40 40 41 43 46 47 48 47 45 44 43 42 42 42 42 42 42 43
28 32 34 35 34 33 32 32 31 31 31 29 29 29 28 28 28 28 30 27 27 28 28 30 32 36 37 37 38 38 38 39 41 45 49 49 48 46 44 44 43 44 44 44

GFSNGP_sfc_dewp_030.txt.gz
Dewpoint
30 28 26 25 22 22 24 25 23 22 23 26 27 28 30 31 32 34 36 38 45 52 55 59 61 65 67 64 66 65 69 68 71 74 75 75 76 76 76 77 77 77 77 77
29 25 25 24 25 25 24 25 25 24 25 26 29 31 32 33 35 35 35 34 35 45 52 57 60 63 64 68 66 67 70 70 72 75 76 76 76 77 77 77 77 77 76 76
26 25 25 25 26 26 27 27 26 26 29 30 30 31 33 33 32 33 36 38 40 43 47 55 58 62 63 68 67 69 71 72 73 75 76 76 76 77 77 77 77 77 76 76
22 26 22 25 26 26 26 27 27 28 30 31 32 33 34 33 34 34 34 37 39 35 40 50 53 48 60 62 70 70 72 73 74 75 75 76 77 76 77 76 76 76 76 77
21 21 23 22 23 24 27 28 28 29 30 29 30 30 33 32 32 35 38 38 39 38 41 48 48 53 56 62 66 69 71 73 73 74 74 75 76 76 76 76 76 75 75 77
20 21 20 23 23 25 32 30 34 38 41 40 44 30 29 33 31 32 36 38 40 40 41 44 54 54 58 60 63 68 70 72 73 74 75 74 76 77 76 76 75 72 74 76
18 18 20 23 28 42 31 42 47 47 48 50 50 49 51 51 51 49 47 46 47 49 49 52 57 58 61 62 63 67 68 69 73 75 75 76 77 77 77 76 74 76 74 75
19 18 15 19 21 25 42 47 48 49 49 51 53 55 58 59 58 55 52 55 59 56 52 54 60 60 63 69 68 70 71 71 74 75 72 71 77 77 76 76 76 75 74 73
19 18 28 29 26 32 38 40 43 50 53 54 55 56 59 60 60 52 56 60 62 52 57 64 67 66 66 70 71 70 71 73 74 74 74 76 76 77 73 75 71 72 70 71
26 25 29 30 32 34 34 36 40 42 49 54 55 58 60 60 58 60 63 66 65 62 62 67 69 69 70 72 71 71 71 72 72 73 73 73 71 72 71 70 71 70 70 70
32 33 32 29 29 31 35 36 35 37 47 53 57 59 60 59 61 63 65 65 65 65 66 67 68 69 69 71 73 71 71 71 72 71 73 73 73 70 70 72 68 70 70 70
27 33 34 36 35 36 34 39 40 45 47 54 59 60 61 61 63 63 64 64 64 64 65 66 66 66 67 68 68 68 69 67 66 65 67 69 69 72 52 54 53 52 53 61
35 36 36 37 40 40 43 45 45 48 51 58 60 61 60 62 62 61 64 64 66 66 67 67 67 67 67 68 69 69 68 68 64 63 63 63 66 67 67 65 48 47 47 52
40 40 40 40 39 44 44 47 49 53 56 61 61 61 61 62 62 63 63 64 65 65 66 66 66 65 66 68 69 69 67 57 65 65 65 66 69 69 70 72 71 72 57 50
41 42 40 40 44 46 49 50 53 56 59 61 61 60 60 61 61 61 61 62 64 65 66 66 65 66 67 67 66 64 61 63 63 62 64 64 65 63 64 65 63 61 58 54
41 41 42 43 43 46 51 53 55 57 59 60 60 59 59 58 57 57 58 59 59 59 61 63 66 67 65 65 64 63 63 60 60 62 59 61 63 64 63 62 61 61 61 58
43 44 45 44 46 50 50 54 56 57 58 59 58 58 58 57 56 56 56 55 57 58 58 59 62 65 67 66 65 62 61 63 60 60 61 61 60 59 61 62 62 62 58 54
51 50 50 50 53 53 54 57 57 57 57 57 57 55 55 55 54 54 54 55 57 57 57 59 60 62 63 64 64 63 63 61 60 59 60 60 60 61 60 60 61 61 60 57
48 48 49 49 50 50 51 51 54 54 53 53 53 53 52 52 54 54 53 53 54 54 55 57 58 58 60 60 61 61 61 62 62 62 62 59 60 60 61 61 60 60 59 59
47 47 47 47 48 48 49 50 51 51 53 53 51 50 50 50 51 51 50 50 51 51 54 54 56 56 57 59 58 58 60 61 61 61 62 61 61 62 61 56 60 60 61 62
46 46 47 46 47 47 48 48 48 50 50 50 51 51 50 47 46 46 48 45 49 51 52 53 52 52 53 54 54 54 55 57 60 61 62 61 61 60 60 60 59 59 59 59
42 43 44 45 45 46 47 48 48 47 48 47 47 46 46 47 46 44 43 44 45 48 48 50 50 52 51 53 48 48 49 51 52 54 57 58 58 59 59 59 58 58 58 58
42 41 42 43 43 43 43 43 42 44 44 43 43 45 43 40 39 39 39 43 41 44 44 44 49 51 51 50 48 47 46 45 46 48 51 52 51 52 53 53 54 55 55 56
41 42 41 41 41 41 42 42 41 42 43 42 40 40 41 37 37 37 37 39 41 41 40 43 45 48 47 48 48 48 48 48 45 44 44 44 47 48 49 49 51 52 51 51
40 40 41 39 38 36 39 40 38 38 38 38 38 35 35 34 34 33 34 34 38 37 36 41 45 44 39 40 43 47 49 49 47 45 45 44 43 43 44 44 45 47 48 48
32 33 36 39 36 34 34 34 32 32 32 31 31 30 29 29 29 29 30 32 30 33 30 31 34 36 36 37 37 38 39 41 47 47 47 47 46 45 45 45 44 44 44 44
26 30 30 33 33 32 31 32 31 30 30 29 28 28 28 27 27 28 30 26 25 25 26 26 26 30 32 35 36 36 37 37 36 37 40 46 48 48 46 45 44 44 44 45

GFSNGP_sfc_dewp_033.txt.gz
Dewpoint
28 26 25 21 20 19 21 23 21 21 23 26 29 29 30 32 35 36 40 41 43 46 51 57 61 65 67 64 66 66 69 69 71 75 76 76 77 77 78 78 78 78 78 77
31 27 28 26 25 21 19 21 22 22 23 25 29 30 30 30 32 34 36 35 37 39 48 53 57 64 66 68 66 68 70 70 73 75 77 77 78 78 78 78 78 78 78 77
31 30 29 27 26 26 24 23 23 23 27 28 28 30 32 33 34 35 35 35 37 38 40 50 53 60 62 68 69 68 71 72 73 75 76 77 78 78 78 78 78 78 77 77
26 31 28 28 28 26 27 27 26 28 31 31 33 34 34 34 35 36 36 37 37 33 38 45 42 47 59 61 72 71 72 72 73 74 76 77 78 78 78 78 78 78 78 78
25 25 26 25 26 27 28 28 29 30 31 30 30 32 35 34 35 37 37 37 36 35 36 48 42 47 53 61 67 71 72 73 73 75 75 77 77 78 78 77 77 77 77 78
26 24 25 27 26 26 30 27 31 30 31 30 33 32 35 47 47 42 37 37 38 38 38 40 48 43 46 50 61 70 71 73 74 76 76 76 77 78 78 78 77 75 76 77
21 24 25 27 30 32 29 42 39 35 37 40 41 47 54 53 54 56 56 55 53 52 50 52 51 48 60 59 59 66 70 72 75 76 77 77 78 78 78 78 76 77 77 77
21 22 23 26 23 29 41 45 45 48 50 51 52 52 52 53 56 57 58 57 54 54 57 60 57 58 67 68 69 72 72 73 75 77 74 73 78 78 79 78 77 77 77 76
20 20 31 30 30 30 30 37 39 40 41 44 45 50 52 55 58 59 59 57 50 52 62 58 61 63 68 73 75 74 75 76 76 77 77 76 77 78 75 77 74 74 73 73
24 26 28 27 27 28 30 33 35 35 38 37 38 46 52 56 59 59 59 61 62 63 62 61 67 69 69 72 73 74 76 77 76 77 76 76 72 73 72 71 72 72 70 71
27 28 30 31 31 31 31 34 32 33 37 38 38 43 52 58 62 60 63 66 65 66 67 68 71 72 72 72 72 71 72 71 72 71 73 75 75 70 70 73 68 69 70 70
27 33 33 35 34 36 34 32 33 35 36 44 45 49 58 59 63 65 64 65 67 67 67 67 68 68 70 70 73 73 71 70 68 67 68 70 70 72 59 60 57 52 48 58
36 36 35 35 38 36 36 35 35 39 43 45 47 50 60 61 64 63 66 65 65 66 67 68 68 66 68 70 70 70 69 70 65 63 62 63 66 67 66 64 52 52 48 49
41 40 41 39 37 38 38 37 40 39 40 44 48 54 60 62 63 64 64 65 65 66 66 66 66 67 68 70 71 69 67 57 65 64 64 64 66 67 67 67 67 69 54 50
40 39 39 40 42 42 41 41 40 41 41 44 49 59 62 62 63 63 65 66 66 66 66 66 66 67 68 65 65 66 64 62 62 62 64 63 64 65 65 66 65 63 63 57
44 41 40 40 41 42 41 43 46 46 43 49 56 61 62 62 62 62 63 61 61 62 63 65 67 66 66 67 65 63 63 60 61 61 60 60 61 62 62 63 63 62 61 60
41 41 41 42 42 41 43 45 48 50 51 55 58 61 61 59 57 59 59 59 60 61 62 64 64 66 67 66 64 61 60 61 59 60 60 60 60 60 59 59 60 59 59 57
49 49 47 47 47 46 48 51 54 54 55 58 59 58 57 56 57 58 59 58 58 59 59 60 62 64 64 64 62 60 60 59 59 59 58 59 59 59 59 59 61 60 58 59
49 49 49 50 51 51 51 51 52 52 52 52 53 53 53 53 54 55 55 56 55 55 57 58 58 59 61 60 62 59 59 60 61 62 61 58 59 60 60 60 59 59 60 59
49 50 49 49 50 50 50 50 50 50 51 50 48 48 47 51 53 52 51 52 54 53 55 55 56 56 57 57 57 57 61 61 60 59 59 59 59 60 60 56 60 61 61 62
44 48 48 48 48 48 49 50 49 49 49 49 50 49 48 47 47 49 50 49 51 53 52 53 52 51 50 52 52 52 53 56 58 59 60 60 59 59 59 59 59 59 59 59
41 41 45 47 46 45 47 47 47 46 48 47 48 48 46 47 47 45 46 46 47 46 46 48 49 52 51 52 48 48 50 51 53 54 55 56 56 55 55 55 55 55 56 57
41 41 40 41 42 44 42 42 41 42 42 42 43 44 41 38 38 37 37 41 40 42 41 40 48 50 50 49 48 47 46 46 46 49 52 52 53 53 52 51 52 53 52 53
39 40 40 40 40 39 42 42 40 41 42 40 38 39 37 33 34 33 35 36 39 40 37 40 43 47 45 43 46 48 47 48 47 46 44 44 46 47 48 48 50 52 51 50
34 37 39 37 37 34 38 37 36 36 38 39 37 36 35 32 32 31 31 32 37 34 32 39 43 43 37 38 39 40 46 46 46 47 47 47 45 45 45 45 45 48 49 50
32 27 32 36 33 32 32 33 31 32 32 31 31 30 30 29 29 29 30 32 29 32 27 27 28 31 34 35 36 37 37 37 43 46 45 45 46 46 45 45 45 45 45 44
28 31 29 29 29 30 30 30 29 28 29 29 28 28 27 26 26 25 29 24 23 23 24 24 23 26 25 28 31 34 36 36 36 36 36 39 41 41 40 39 39 38 38 38

GFSNGP_sfc_dewp_036.txt.gz
Dewpoint
28 28 24 19 18 19 21 25 24 22 22 30 35 34 35 36 42 44 48 49 54 53 59 62 64 66 66 66 67 67 69 71 73 74 75 75 75 76 76 76 75 76 76 76
33 31 29 27 20 20 19 19 21 21 22 30 33 38 37 41 41 45 46 45 49 54 58 63 64 67 66 67 67 68 69 69 72 74 74 75 75 76 76 77 76 76 76 76
30 32 31 28 27 22 21 20 20 23 29 32 34 36 38 38 37 38 36 39 43 50 54 59 60 68 68 68 69 70 70 71 72 73 74 75 76 76 76 76 77 77 76 76
30 33 29 31 31 28 26 23 22 26 30 33 39 40 39 38 37 40 41 45 51 39 48 59 50 50 63 68 71 71 73 72 73 74 74 75 76 76 76 76 77 76 76 77
28 28 32 30 30 29 28 28 26 26 29 31 33 34 37 35 36 39 45 47 48 42 46 62 57 58 62 64 71 71 71 73 73 74 74 75 75 76 76 77 76 77 77 77
29 27 26 32 28 28 28 27 34 30 31 30 31 29 46 54 53 53 55 58 60 58 57 50 63 55 65 63 67 71 71 71 74 74 74 74 76 77 77 77 76 76 76 77
24 26 27 31 30 28 29 43 47 47 48 40 39 51 54 53 54 56 58 60 61 62 61 66 67 65 69 65 65 68 71 72 74 74 74 75 76 77 77 77 77 77 76 77
24 25 26 32 30 35 46 45 42 43 44 46 47 48 51 53 57 58 60 60 59 62 63 63 70 70 71 73 74 75 74 73 74 76 73 73 77 77 77 77 77 77 76 76
23 24 39 35 33 32 31 35 41 39 38 40 39 40 44 50 57 60 62 63 61 60 64 65 71 73 71 77 78 77 78 77 76 77 76 75 77 77 76 77 76 76 75 75
26 27 29 29 29 30 31 32 33 35 35 35 38 39 41 45 53 60 65 64 67 68 69 71 72 71 75 76 77 78 79 79 78 77 76 76 74 75 75 74 75 75 75 74
29 32 35 32 30 32 31 33 32 32 33 34 36 38 46 50 57 59 62 67 68 70 71 72 74 75 74 76 77 76 77 77 78 75 76 76 76 73 75 75 73 74 74 73
30 35 38 40 36 36 34 33 35 36 36 37 39 44 49 51 59 61 65 68 69 69 69 69 69 70 71 72 75 77 75 73 72 72 72 74 75 75 63 63 57 50 50 61
36 39 38 40 41 39 39 37 37 38 38 40 40 44 48 51 60 61 65 68 68 69 69 70 70 68 69 72 72 74 74 76 72 69 71 73 72 73 73 59 49 49 46 46
39 39 40 39 38 39 40 38 39 37 35 37 40 42 44 48 60 62 63 66 68 69 68 68 66 67 70 71 71 71 70 58 69 68 68 69 70 70 69 70 70 69 53 53
45 43 40 41 41 41 41 40 40 36 39 39 40 43 45 50 60 62 64 66 66 66 67 68 68 68 67 67 68 70 70 65 66 65 66 64 66 65 64 65 64 64 65 58
42 44 45 42 42 40 40 41 41 39 40 41 44 47 49 59 61 64 65 65 65 64 66 67 68 69 67 69 68 65 65 61 62 64 63 64 64 64 64 64 64 64 61 59
45 41 40 40 40 40 40 41 41 40 41 43 49 53 57 60 62 62 62 62 63 63 64 65 66 69 68 68 69 64 61 63 60 62 62 62 62 62 62 62 61 62 60 57
48 49 46 45 43 41 42 44 44 47 49 50 54 56 59 58 57 59 59 58 59 60 60 63 65 66 65 64 64 63 61 61 61 59 60 61 62 61 61 60 59 59 59 59
47 47 48 48 49 49 50 50 50 50 49 50 52 53 53 54 54 54 54 53 53 53 54 55 59 60 60 63 62 60 60 60 61 61 61 60 60 60 59 59 60 60 61 61
47 47 47 48 48 48 48 49 49 50 49 48 47 47 46 47 49 50 49 48 50 50 51 52 54 53 56 59 60 59 60 60 61 60 60 59 59 60 59 56 58 59 58 59
46 48 47 46 46 46 47 47 48 48 48 48 47 46 47 47 47 47 47 46 48 48 50 52 51 52 51 52 53 54 56 57 58 58 57 57 56 55 55 54 55 55 55 56
41 41 46 46 46 45 46 46 45 47 48 47 48 48 46 46 46 46 47 46 48 48 49 50 51 52 51 51 48 48 49 52 52 54 56 55 54 53 53 54 53 53 53 54
41 40 42 43 42 43 44 44 44 44 43 44 45 44 45 46 45 43 43 48 48 46 47 48 50 51 51 51 49 48 48 48 48 51 52 53 52 50 50 51 51 51 52 51
37 40 40 42 43 41 39 38 37 41 41 40 37 38 38 37 36 34 34 37 41 38 35 39 44 47 47 47 47 44 45 48 48 48 47 45 47 48 48 48 48 48 49 48
37 38 37 37 38 37 40 41 40 40 39 39 39 36 34 35 34 34 34 33 38 35 31 39 42 43 38 39 39 42 43 43 44 45 45 46 45 45 46 46 46 47 45 46
34 30 31 37 32 30 30 32 30 29 31 31 30 29 29 29 29 28 32 33 31 33 28 27 28 29 32 33 35 37 37 38 42 43 42 41 40 39 38 39 38 37 38 39
30 32 29 29 28 28 27 28 26 24 26 28 26 27 26 25 27 26 30 26 24 24 25 27 24 28 26 26 28 30 32 34 35 36 37 39 40 39 38 38 36 35 34 33

GFSNGP_sfc_dewp_039.txt.gz
Dewpoint
32 30 29 26 18 18 17 19 20 18 25 30 34 37 40 40 40 44 46 50 52 55 57 60 61 61 62 63 64 66 70 71 72 73 72 72 73 73 73 71 73 73 74 73
34 32 30 30 29 19 18 18 19 22 20 35 36 41 40 43 41 40 43 48 49 54 57 59 61 62 63 63 64 65 68 70 72 72 72 72 73 73 74 74 72 73 73 73
30 33 32 32 32 27 19 20 19 22 25 34 35 40 37 40 40 38 38 41 42 42 52 61 63 63 63 64 64 65 66 68 70 72 72 72 72 73 73 73 74 73 72 73
31 32 29 32 34 33 25 26 20 21 33 36 41 47 48 45 39 40 44 44 43 43 46 50 61 64 64 64 66 66 66 67 69 71 72 72 72 72 73 73 73 74 74 73
30 31 33 34 33 31 31 43 44 44 37 36 46 51 52 53 55 56 57 58 59 58 57 57 54 54 66 65 66 68 67 68 69 71 71 72 72 72 73 73 73 73 74 74
30 31 31 34 34 33 34 41 42 45 48 40 49 50 52 55 56 57 59 59 59 59 59 59 59 59 64 66 65 67 68 70 71 71 72 71 72 72 73 73 73 73 73 75
25 28 36 35 32 42 36 42 40 40 41 42 42 46 49 56 57 59 61 61 61 60 60 61 61 59 61 62 67 67 68 71 73 73 72 72 72 73 73 73 74 74 74 74
26 28 32 31 33 32 43 42 39 38 40 40 40 42 44 47 56 60 59 64 63 60 59 60 60 61 61 59 66 68 70 71 71 72 72 73 74 74 74 74 74 74 74 74
30 30 33 35 32 32 33 35 37 38 36 36 38 40 45 48 53 58 59 59 66 67 68 68 61 62 62 69 70 72 70 71 72 73 73 71 74 74 75 75 75 75 74 74
30 31 30 33 34 36 36 36 34 35 35 37 37 39 43 48 50 57 59 60 65 67 69 72 72 73 72 73 71 69 72 74 74 74 75 73 75 74 74 75 75 74 75 74
31 31 36 39 38 40 39 40 40 37 37 37 38 42 44 47 49 59 59 61 64 66 68 69 70 70 71 71 72 74 70 75 74 75 74 75 73 75 74 74 73 75 75 74
32 34 35 36 38 39 39 39 40 40 42 44 41 44 47 46 48 59 60 61 63 65 67 68 68 68 67 68 70 72 73 74 74 73 74 75 75 72 52 54 54 52 50 65
37 38 37 38 40 41 40 39 40 40 40 41 41 44 43 43 45 51 61 62 63 65 66 66 66 66 67 68 70 68 69 72 71 70 72 73 74 73 66 56 47 46 49 48
46 41 39 40 40 41 40 40 42 40 40 41 43 42 43 45 44 51 60 62 63 65 66 66 66 66 68 69 69 68 66 59 66 68 67 68 68 69 69 65 65 62 50 50
46 45 42 42 43 43 43 41 39 40 41 41 42 43 43 48 48 53 62 64 65 65 65 66 65 64 65 65 66 65 68 66 66 66 66 64 65 65 64 64 63 63 60 53
46 45 42 42 45 44 43 43 40 40 42 42 42 43 45 51 51 60 62 64 64 64 64 65 65 66 67 67 65 63 62 61 63 64 64 64 64 64 63 63 62 61 58 57
42 43 45 41 42 42 43 42 41 43 43 43 44 49 52 52 54 60 61 62 60 55 55 56 60 66 64 64 67 64 62 62 61 63 63 63 63 62 62 61 61 60 58 55
44 45 45 46 46 48 47 45 45 47 50 52 52 52 53 54 56 54 54 55 54 52 51 53 54 59 62 64 64 63 62 62 61 60 60 60 60 60 60 60 60 60 59 58
44 44 45 45 45 46 48 48 48 48 50 49 49 48 49 50 50 49 50 49 49 50 51 52 54 51 57 62 61 61 60 60 60 60 59 58 59 59 59 59 59 59 59 59
44 44 44 45 45 45 45 47 48 47 48 48 47 46 46 47 48 48 48 47 48 50 50 52 52 50 50 56 60 60 60 59 57 57 56 56 56 55 55 52 55 56 56 56
45 45 44 44 45 45 45 46 45 45 46 46 45 45 45 46 46 47 46 45 47 49 51 52 52 52 52 54 50 51 57 57 56 55 54 54 54 54 53 53 53 53 53 53
41 44 44 43 43 43 45 45 45 45 45 44 45 44 43 43 44 45 46 45 46 47 49 51 52 52 51 52 50 50 49 54 55 54 52 52 52 52 51 52 51 51 50 49
37 43 42 41 43 43 43 44 43 43 44 45 43 43 43 44 45 43 42 46 46 45 46 50 51 51 51 49 48 48 49 48 47 50 50 48 48 47 47 47 47 47 48 48
39 41 42 41 40 39 40 42 43 43 42 42 44 44 43 42 44 46 45 44 44 43 43 45 49 51 50 50 50 49 49 50 49 47 45 46 48 47 47 46 44 42 41 41
41 41 39 38 38 37 37 34 28 33 36 37 33 32 34 38 41 42 43 43 42 39 36 41 44 43 41 45 48 49 49 48 48 46 44 42 40 41 39 37 36 40 41 39
39 36 39 38 34 33 33 30 28 28 31 30 31 31 30 30 30 32 31 34 31 35 28 28 31 29 29 32 34 35 34 36 43 41 39 39 37 35 34 33 32 32 32 31
33 34 31 29 30 31 32 30 28 29 30 28 27 29 30 30 30 29 32 29 29 29 30 27 27 30 28 30 31 32 32 32 33 34 37 39 39 39 37 36 36 36 34 34

GFSNGP_sfc_dewp_042.txt.gz
Dewpoint
25 26 27 31 26 21 15 16 16 16 19 20 26 35 33 34 37 42 48 52 56 57 57 59 59 59 62 64 67 70 70 71 71 71 72 73 72 71 71 72 73 70 72 73
24 30 32 31 31 31 17 16 21 19 19 22 29 39 40 41 44 47 45 52 56 57 58 59 59 59 61 63 65 68 70 70 71 72 71 72 73 73 71 71 71 73 72 73
26 31 32 30 31 31 23 18 18 19 22 29 46 51 51 39 38 40 46 53 56 57 58 59 59 59 60 62 64 67 69 69 71 71 72 72 72 73 73 72 71 70 71 72
26 30 28 32 33 32 37 38 40 44 34 50 52 53 54 55 55 54 53 50 46 50 58 63 63 61 61 62 63 64 66 69 70 72 72 72 72 72 72 73 73 72 71 71
26 31 32 32 34 30 32 35 37 40 47 50 51 52 54 57 59 58 57 58 57 57 57 55 63 63 62 63 64 64 65 66 70 71 72 72 72 72 72 72 72 73 73 73
25 28 31 32 34 36 39 33 35 37 38 44 47 50 51 55 59 60 64 61 58 57 57 56 60 56 63 63 64 64 64 66 67 70 71 72 72 72 72 72 72 72 73 73
25 29 36 36 36 37 34 36 38 34 35 37 40 42 43 53 58 57 60 65 66 64 61 58 59 59 64 64 64 65 66 66 68 68 70 71 72 72 72 72 72 72 72 73
31 32 32 38 38 35 35 36 36 36 35 34 37 42 46 48 50 57 57 63 66 69 70 69 62 59 57 60 64 68 68 70 69 70 69 70 71 71 71 71 72 72 72 73
34 36 37 38 45 41 39 37 39 38 34 35 35 41 44 47 46 58 58 59 64 67 69 70 70 70 70 70 69 69 69 69 70 71 72 72 71 71 71 72 72 72 73 73
31 30 34 37 42 39 39 38 38 39 39 36 37 43 44 44 44 55 59 59 62 65 66 68 69 69 69 69 71 72 66 71 70 71 71 71 73 73 73 73 73 73 73 73
32 33 35 36 37 37 38 39 39 38 40 41 39 44 42 43 43 44 55 59 62 63 64 66 68 67 67 66 68 69 71 70 72 72 71 72 68 68 73 74 73 74 75 75
33 36 37 37 39 40 39 39 40 39 39 41 41 42 41 40 42 43 46 59 61 62 63 64 67 65 65 66 68 68 68 71 73 72 72 73 67 61 51 49 49 52 55 66
41 44 43 40 40 41 40 40 41 40 38 40 42 42 42 41 44 47 48 57 60 62 63 65 66 65 66 68 69 67 66 65 69 71 73 73 73 66 61 56 48 46 47 48
42 45 42 42 40 41 42 42 43 42 41 40 41 41 42 46 49 49 51 59 62 63 64 65 65 64 64 65 66 65 66 60 66 69 70 71 71 67 63 62 59 58 51 49
41 42 45 44 43 42 42 43 43 42 40 41 42 42 42 45 50 50 51 60 62 63 64 64 64 64 65 65 64 64 66 66 66 66 65 65 67 67 66 65 62 59 57 52
40 42 43 43 45 44 45 44 43 42 40 41 42 44 50 51 50 53 58 60 59 54 54 55 60 62 65 63 65 64 62 62 64 65 65 64 64 64 64 62 60 59 59 58
41 41 42 42 44 47 45 44 44 42 42 44 48 51 52 53 53 51 52 56 52 51 52 52 52 55 60 61 62 64 62 63 61 62 62 62 61 61 62 61 59 58 57 53
43 44 44 44 44 46 47 48 48 49 49 50 50 50 49 49 49 48 49 51 51 51 51 51 52 53 59 62 63 64 62 60 60 59 59 59 60 60 60 60 59 59 58 56
44 44 43 43 44 44 44 45 46 47 48 48 47 47 48 48 48 48 48 48 48 49 50 51 54 53 53 61 61 61 60 59 59 58 58 56 56 56 56 56 56 56 55 56
44 43 44 43 43 43 43 44 44 44 45 45 46 46 46 46 47 47 47 46 46 47 51 51 52 53 53 53 60 59 58 58 57 56 55 54 54 54 53 51 53 53 53 53
44 43 42 42 42 42 43 43 43 43 43 43 43 43 44 45 46 46 45 45 46 47 51 52 51 51 54 55 56 58 57 56 55 55 54 53 52 52 51 51 50 50 49 48
43 43 42 42 42 42 42 42 42 42 42 42 42 42 43 43 44 44 45 44 46 47 50 51 51 52 52 52 53 56 56 54 53 53 52 51 51 50 49 49 48 48 47 46
43 42 42 43 42 42 44 43 42 42 42 42 42 42 42 43 44 42 42 45 45 46 48 50 51 51 51 51 51 49 50 51 50 47 47 46 45 45 44 43 43 44 45 45
37 41 39 40 42 42 41 42 42 42 41 41 41 43 44 42 42 45 45 45 46 45 46 47 50 51 50 50 50 49 48 48 47 48 48 45 45 43 41 39 38 37 37 37
36 34 34 35 37 34 31 28 32 39 36 32 33 34 33 37 42 42 44 44 43 45 46 47 47 47 46 46 47 48 48 47 47 46 45 43 41 38 36 35 34 34 32 33
30 28 29 27 30 29 27 28 27 30 29 27 27 29 30 30 31 33 35 39 38 36 33 42 43 44 44 44 43 42 44 46 45 45 43 41 39 36 32 32 32 32 31 31
26 30 25 25 28 28 26 27 28 28 28 27 26 27 28 30 31 28 32 30 31 30 30 30 31 33 33 35 36 37 37 37 36 35 34 35 38 37 36 35 35 34 33 32

GFSNGP_sfc_dewp_045.txt.gz
Dewpoint
29 29 28 26 25 25 28 20 16 16 15 16 20 24 38 42 32 29 43 50 53 55 55 57 58 59 62 64 66 66 67 67 68 70 70 70 69 69 70 71 70 70 70 71
29 27 26 25 26 27 29 29 17 17 17 22 49 52 53 53 40 33 48 52 54 55 55 57 57 58 61 64 66 67 67 68 69 69 70 71 71 70 69 70 72 70 69 70
25 26 26 28 31 32 33 35 32 19 25 44 52 54 56 57 55 44 45 51 53 54 55 56 58 58 61 64 66 68 68 69 69 70 70 71 72 72 71 70 70 71 71 70
26 25 29 32 36 34 32 31 34 37 44 52 55 57 57 58 60 60 55 52 53 55 56 57 58 58 60 63 65 68 69 69 70 71 70 71 71 72 72 71 70 70 70 71
24 26 33 33 35 36 34 30 32 34 39 48 55 55 55 53 58 62 64 57 56 58 59 60 59 59 60 62 64 66 67 69 70 71 71 71 71 71 72 72 72 71 71 70
31 29 32 34 36 38 38 30 36 34 35 43 51 52 49 49 56 60 65 66 60 57 59 61 61 61 61 62 62 64 66 68 69 70 71 71 72 71 71 72 72 72 72 73
32 31 36 38 37 38 32 34 38 38 36 37 41 44 46 50 57 58 61 66 69 68 61 59 59 61 61 61 62 62 64 65 68 70 71 71 71 72 72 71 72 71 72 72
35 34 34 37 41 37 36 38 37 38 39 37 41 45 46 45 53 57 58 62 66 69 69 68 61 63 64 65 67 66 66 65 66 68 70 71 71 71 71 72 71 71 71 72
34 35 38 37 43 41 37 37 37 37 37 39 40 43 45 46 42 47 58 60 63 65 68 69 69 69 68 68 71 68 68 67 67 68 68 69 70 71 71 71 71 71 71 71
34 32 35 37 40 39 42 41 39 38 38 37 38 41 40 44 44 42 49 59 61 63 64 66 67 66 66 67 68 70 69 68 70 70 70 69 70 70 70 71 71 70 71 71
33 33 38 38 39 41 43 43 42 41 40 38 37 40 40 44 47 48 49 55 61 61 62 64 66 65 65 67 68 68 68 69 69 70 68 70 65 65 70 71 69 71 71 72
34 39 40 40 41 43 42 44 44 42 42 41 40 41 42 43 47 49 53 56 60 61 62 63 65 64 65 68 68 67 66 66 66 70 70 69 64 60 49 47 46 49 53 67
41 43 44 44 46 45 43 44 46 44 43 42 41 42 42 44 47 49 48 53 59 60 62 63 64 64 65 67 67 65 64 66 65 65 71 70 66 64 59 54 48 45 45 48
41 42 41 43 43 44 43 43 44 47 45 44 42 41 43 44 47 47 48 52 59 61 62 63 64 64 64 64 64 63 63 60 65 66 70 71 69 64 61 61 58 56 49 47
41 41 41 42 43 44 46 44 43 43 45 44 43 42 43 47 46 49 54 58 59 59 56 56 59 63 63 65 64 63 63 64 64 64 64 66 68 65 63 60 58 57 58 53
40 41 41 42 43 44 47 44 44 43 43 44 43 42 47 50 51 53 53 53 54 52 52 52 53 53 54 60 62 63 62 60 62 64 64 65 66 65 62 60 60 60 59 59
38 40 41 41 41 42 44 47 47 47 46 43 43 48 53 54 51 52 52 52 51 50 50 50 51 53 54 55 61 63 62 61 60 61 61 62 62 61 61 60 59 59 56 53
42 43 41 42 42 42 42 43 44 46 47 49 49 50 50 49 49 48 47 49 50 49 50 51 52 54 53 56 62 62 61 60 60 60 60 60 60 60 60 60 59 58 58 55
43 42 41 41 42 42 42 42 43 44 44 46 46 47 47 48 48 49 48 47 47 48 49 51 53 53 53 56 62 61 60 59 59 58 57 56 57 57 56 56 55 55 55 54
42 42 41 41 41 41 41 42 42 42 42 43 43 43 44 44 45 47 48 46 46 46 50 51 51 51 52 55 59 59 59 58 57 56 55 55 54 53 52 50 51 51 50 49
41 41 41 41 41 42 42 42 41 41 42 42 41 41 42 43 45 45 44 45 46 48 51 52 51 52 52 55 57 56 56 55 55 54 53 52 52 51 50 49 49 48 47 47
42 41 40 41 41 42 43 42 41 41 41 41 41 41 41 41 42 44 45 44 46 48 50 51 52 52 52 54 56 55 55 54 53 53 52 51 50 49 48 47 46 46 45 45
42 42 40 41 40 41 43 43 42 40 40 41 40 41 41 42 43 41 42 46 47 48 48 48 49 50 51 50 50 50 50 49 48 47 47 46 46 45 43 43 42 42 40 40
39 41 40 40 41 41 38 40 42 41 38 39 39 41 42 41 42 44 46 45 45 47 47 47 47 47 48 49 49 48 48 47 47 47 46 44 44 41 37 36 36 35 35 35
33 35 38 39 39 35 29 30 33 37 35 33 33 34 39 40 41 39 41 44 44 45 46 47 46 46 45 46 47 46 45 45 45 44 43 43 41 39 37 35 33 32 31 31
25 25 25 29 28 26 26 28 28 29 28 28 28 29 31 30 30 35 36 38 39 44 44 45 45 45 45 44 43 43 44 44 44 43 43 42 42 41 40 40 39 36 32 31
25 29 26 26 27 26 28 28 26 26 28 28 27 30 31 32 31 30 34 31 31 32 37 41 43 44 44 43 43 42 42 41 41 43 43 43 42 41 40 38 35 33 31 31

GFSNGP_sfc_dewp_048.txt.gz
Dewpoint
30 31 29 28 28 28 26 25 26 25 21 23 28 27 33 44 45 43 38 36 52 56 56 58 60 62 64 64 65 65 66 67 67 68 69 69 70 71 72 70 69 70 70 70
29 29 29 26 27 27 27 27 27 29 24 31 47 54 57 58 59 59 51 39 42 55 56 58 60 60 63 65 65 66 66 66 68 69 69 69 69 70 71 72 71 71 70 70
24 27 25 25 27 31 32 32 35 25 34 43 53 56 55 56 58 60 61 49 39 53 56 57 59 60 62 65 66 66 66 67 68 69 70 70 70 70 70 70 72 72 71 71
25 26 25 34 37 33 31 34 36 36 39 54 56 56 54 53 54 58 63 61 53 54 56 58 59 59 62 64 67 67 67 68 69 69 70 71 71 71 71 70 70 71 72 71
26 25 27 34 35 36 34 31 37 37 38 43 49 53 55 52 54 58 61 66 57 57 58 60 60 61 63 65 66 68 68 69 69 70 70 71 71 71 72 71 71 70 71 72
32 27 32 37 37 37 38 30 37 37 38 38 52 52 50 46 52 58 61 66 64 61 61 60 61 61 63 64 66 68 69 69 70 71 71 70 71 71 72 73 72 72 71 72
28 29 34 38 37 40 33 33 37 36 36 38 42 45 44 43 45 52 60 64 67 63 62 62 62 62 63 64 65 67 69 70 71 71 71 72 72 72 72 72 73 73 73 73
31 31 33 38 40 36 37 38 38 37 37 36 39 42 44 45 47 49 56 61 65 68 68 66 64 63 64 65 67 67 68 69 70 71 71 71 72 73 73 72 72 72 72 73
34 34 40 40 41 40 41 40 40 38 39 38 36 40 42 47 51 53 55 60 62 65 66 67 69 69 69 70 70 68 67 68 69 71 71 72 72 72 72 72 72 72 72 72
34 37 38 40 40 41 43 43 42 42 40 39 37 38 41 45 49 54 57 58 60 62 64 65 66 67 67 69 71 70 70 69 69 69 69 71 72 72 72 72 71 72 71 71
35 38 40 40 42 42 44 44 45 44 42 41 40 38 42 45 48 49 54 59 60 61 63 64 66 66 68 69 69 69 70 70 71 71 70 70 69 68 72 72 69 71 72 72
35 40 41 41 44 46 45 45 45 45 44 44 43 41 42 44 48 49 49 55 59 61 63 64 65 66 67 69 68 68 68 68 68 71 70 71 65 61 49 48 48 49 53 67
40 42 43 42 43 43 44 45 45 45 45 45 45 44 43 43 46 49 49 52 58 61 62 63 65 65 65 65 66 66 65 66 67 65 72 69 67 66 63 54 46 44 44 50
42 41 40 42 42 44 45 46 47 46 45 46 45 44 43 43 47 47 50 54 58 59 58 58 59 63 60 63 65 64 65 58 66 67 69 71 68 67 64 63 64 59 47 47
39 41 41 42 42 42 43 46 45 45 45 45 46 45 43 43 47 48 54 56 57 56 55 54 55 56 55 56 61 65 64 66 66 66 67 69 68 65 63 61 60 58 58 53
39 40 41 40 41 41 42 43 44 45 46 45 47 46 44 47 52 55 55 54 53 54 52 52 53 54 54 56 57 62 64 60 62 65 66 67 66 64 61 60 61 61 61 60
37 38 39 40 40 41 41 41 42 44 45 48 49 50 52 51 52 51 50 50 50 51 51 51 51 53 55 56 58 61 63 63 60 63 63 63 62 61 61 61 60 58 56 54
42 41 41 41 41 41 40 41 41 41 43 45 46 47 46 47 48 48 48 49 49 49 50 50 51 53 53 54 56 61 62 61 61 61 61 61 61 61 60 60 59 57 56 53
42 41 41 41 40 41 41 41 41 42 42 42 43 43 44 45 45 47 48 47 46 46 48 49 53 52 52 54 58 62 61 60 60 60 60 57 59 59 58 57 56 55 53 51
41 41 41 41 41 41 40 41 42 41 42 42 42 41 42 43 45 45 46 46 46 47 50 51 52 52 52 53 58 61 60 59 58 58 58 57 56 56 54 50 52 51 50 49
41 41 41 41 40 41 41 41 41 41 41 42 41 41 41 42 44 45 43 44 46 48 49 49 51 52 53 56 57 57 57 57 56 56 55 54 53 51 50 49 49 48 47 47
41 40 40 41 41 41 41 42 41 41 41 40 41 41 41 41 42 42 43 43 47 48 47 47 49 52 52 54 56 56 55 54 53 52 51 50 49 48 47 46 45 45 45 44
42 41 40 39 40 40 41 42 41 41 40 41 41 40 40 42 43 40 40 44 45 47 47 47 48 49 50 50 50 49 48 47 46 45 45 44 43 43 42 40 40 39 39 40
39 41 41 41 40 40 38 39 39 42 40 39 40 42 42 42 43 45 45 44 45 45 45 47 47 47 46 47 47 46 46 45 45 44 43 42 42 40 40 38 37 37 35 34
34 37 38 39 38 34 29 30 33 34 33 36 35 34 35 38 41 40 44 45 45 45 44 46 46 45 45 44 45 45 44 43 43 42 42 41 41 40 40 40 39 38 37 36
28 27 29 33 29 27 28 28 27 28 29 29 31 31 32 33 33 35 37 41 42 43 44 45 45 45 44 43 43 43 44 44 43 43 42 42 42 41 40 39 39 38 36 33
28 30 28 28 28 29 28 28 28 29 31 31 31 33 34 34 34 33 35 34 36 40 41 42 44 44 44 43 42 42 42 42 42 43 43 43 42 41 40 37 34 32 31 31

GFSNGP_sfc_dewp_051.txt.gz
Dewpoint
21 22 26 25 24 23 28 29 30 32 31 36 37 36 37 34 45 51 50 45 55 59 62 64 66 67 67 67 68 67 68 68 69 71 71 72 72 73 73 73 73 73 73 72
21 19 25 26 25 24 26 28 29 29 31 34 49 51 50 56 58 58 59 59 56 52 61 63 64 66 67 67 68 69 69 69 70 72 72 72 73 73 74 73 73 74 73 72
15 23 26 25 25 24 28 33 31 30 33 43 48 55 55 56 57 58 59 61 62 61 53 62 62 66 66 68 68 69 70 70 71 72 72 73 73 74 74 74 73 74 73 72
19 20 23 28 35 28 35 37 37 38 41 45 52 57 57 52 52 57 60 61 63 63 57 59 60 61 66 67 70 70 70 71 72 72 72 73 73 73 74 73 74 73 73 74
23 29 30 34 37 36 36 35 38 39 41 44 51 57 57 48 48 50 58 62 65 65 60 61 63 65 67 68 69 69 70 71 71 72 72 73 73 73 73 72 73 73 73 74
28 28 31 37 38 39 39 34 35 37 39 42 53 52 48 46 50 53 60 63 66 64 58 62 65 64 66 66 68 69 70 71 72 72 73 73 74 74 74 73 73 71 71 74
26 28 32 38 39 40 36 34 36 37 38 40 42 43 45 51 55 58 62 64 67 64 64 66 66 65 67 68 68 69 69 70 72 73 73 74 75 75 74 73 73 73 73 74
29 28 28 39 38 37 40 39 40 39 40 40 40 43 45 51 55 57 60 64 66 67 65 65 67 67 68 69 71 72 72 72 73 74 71 71 75 74 74 75 74 74 74 73
36 35 39 42 42 42 43 43 43 42 42 40 39 41 44 46 50 55 58 62 65 66 68 69 67 67 68 70 71 72 73 74 73 74 73 75 74 74 72 74 71 72 71 71
35 38 40 42 44 44 44 45 44 44 44 42 41 40 43 45 48 48 55 61 65 66 67 68 70 71 72 72 71 71 72 73 73 73 73 74 72 72 71 71 71 71 71 71
37 38 40 42 44 45 45 45 45 45 45 44 43 43 43 45 49 49 52 59 63 65 66 67 69 69 70 71 73 71 71 70 71 71 72 72 73 71 71 73 69 71 71 71
35 39 41 41 44 45 45 45 46 45 44 46 46 45 46 45 48 51 52 57 57 56 63 66 67 67 68 68 68 70 70 71 70 69 70 70 71 67 48 49 49 50 53 64
40 43 43 43 44 44 45 46 47 47 46 45 47 46 46 46 48 50 52 55 56 55 56 60 64 63 62 64 68 69 68 69 68 72 74 72 71 68 68 57 46 44 44 51
42 42 40 42 41 42 44 44 46 47 47 45 47 48 46 45 48 51 53 56 55 55 57 58 58 59 60 61 64 67 67 59 68 68 69 72 71 70 70 69 68 66 50 49
38 41 39 41 41 42 43 43 44 44 46 48 46 48 49 46 48 54 54 54 55 55 56 55 55 56 57 59 61 64 66 65 68 70 70 69 71 70 69 69 69 62 59 53
37 39 40 40 40 40 41 41 42 42 43 46 48 49 51 53 52 52 51 52 52 53 54 54 54 55 56 57 59 61 64 62 62 68 68 69 68 67 67 67 66 65 64 62
36 37 38 38 38 39 40 40 41 42 42 44 45 47 48 49 49 50 50 50 51 52 53 53 53 54 55 55 57 58 61 64 61 65 67 67 65 64 64 65 65 64 64 61
41 40 39 39 38 39 40 41 41 42 42 43 44 45 46 46 47 48 48 48 50 50 52 52 52 53 54 54 56 57 59 62 63 64 66 65 64 62 62 61 60 58 57 54
40 40 39 38 39 39 39 41 41 41 42 42 42 43 44 45 46 47 47 47 46 47 48 50 52 52 53 54 55 57 59 61 62 63 64 60 62 61 60 59 57 56 55 55
40 40 40 40 40 39 39 40 40 41 42 42 42 42 42 43 44 44 46 45 46 47 49 48 49 50 52 53 55 57 60 62 62 62 61 61 61 60 58 53 54 53 52 51
41 40 40 41 41 42 42 40 39 40 42 42 42 41 41 42 43 43 43 43 46 47 48 48 50 50 51 52 54 57 59 60 60 59 58 57 55 54 53 52 51 50 49 49
42 41 40 40 41 42 43 44 40 39 40 41 41 41 41 42 42 42 44 44 45 46 48 48 48 49 50 52 52 55 56 55 54 54 53 52 51 50 49 48 47 47 47 47
40 43 41 40 40 41 41 41 41 42 40 40 40 40 40 40 42 40 41 44 45 46 47 46 47 47 47 47 47 47 46 46 45 44 44 44 44 43 43 43 43 43 41 42
40 43 43 43 42 38 34 36 36 37 37 38 37 38 38 36 37 41 44 44 45 45 46 46 46 46 45 44 44 43 43 42 42 41 41 40 40 40 39 39 39 38 37 37
38 39 40 40 34 29 33 33 30 31 33 34 34 34 34 34 36 35 39 41 43 44 44 44 45 45 44 44 44 43 43 43 43 42 42 41 40 40 39 39 39 38 38 37
34 31 32 34 29 29 27 27 26 28 30 30 30 31 32 32 33 34 37 40 40 40 43 44 44 44 43 43 43 42 42 42 42 41 41 41 41 40 40 39 39 38 36 33
31 33 30 28 29 28 28 30 29 30 32 32 30 34 34 32 33 34 36 35 36 37 38 39 42 44 43 42 41 41 41 41 40 41 41 41 41 41 40 40 39 39 39 38

GFSNGP_sfc_dewp_054.txt.gz
Dewpoint
16 15 12 18 20 24 26 29 29 28 31 34 33 31 34 36 38 42 41 42 48 53 58 64 65 68 68 65 66 65 68 66 69 72 72 73 74 75 74 74 74 74 73 73
18 14 8 7 12 20 23 25 27 30 31 33 37 44 46 43 49 51 50 52 51 52 57 60 63 66 68 69 67 68 70 69 71 74 74 74 75 76 76 75 75 75 73 73
16 11 10 15 16 23 24 25 26 28 33 36 39 44 51 52 53 53 55 57 59 59 58 56 61 64 66 70 69 70 72 72 73 75 75 75 75 76 76 76 75 76 73 73
15 15 8 6 7 19 25 27 27 31 33 36 43 49 56 55 55 56 57 58 61 61 61 63 56 57 64 67 71 72 73 73 73 75 75 76 76 76 77 75 75 75 74 75
17 13 10 19 37 37 33 29 35 38 39 42 44 51 56 55 56 58 59 61 62 63 64 66 64 59 62 65 69 71 72 73 74 74 75 74 75 75 75 75 74 74 74 75
23 21 21 35 38 39 40 39 38 40 42 43 47 45 45 55 58 59 61 63 65 66 66 65 66 57 59 64 67 71 72 73 74 75 75 75 75 76 76 75 74 72 73 75
26 25 25 35 38 39 37 38 39 40 42 44 48 48 51 51 54 57 61 64 66 68 66 64 64 57 65 66 67 70 70 71 73 75 75 76 77 77 76 75 74 75 73 75
30 28 27 40 37 38 43 43 42 42 42 42 44 45 46 46 48 52 60 66 66 66 64 62 63 63 69 70 70 72 72 72 74 75 72 71 77 76 75 75 76 76 75 73
33 34 41 42 40 43 47 45 45 44 44 43 41 43 44 45 49 50 58 63 67 67 67 66 66 66 68 73 73 73 73 74 73 73 73 75 75 75 73 75 72 72 71 71
37 38 39 42 43 44 46 46 47 45 45 45 44 44 44 45 49 51 55 54 61 68 69 70 71 69 70 72 72 72 73 73 73 73 73 73 72 72 71 70 71 69 70 69
36 39 39 41 42 44 46 47 46 46 45 46 47 46 46 47 51 52 55 57 57 59 66 67 69 70 70 72 72 71 72 72 73 72 73 73 73 70 71 73 66 70 69 69
34 39 40 40 44 45 45 46 46 46 46 46 47 48 48 47 51 53 55 56 57 59 60 63 64 66 68 71 71 73 70 69 69 68 71 71 71 70 49 49 49 49 51 61
39 41 42 43 44 45 44 45 47 48 49 46 48 49 48 48 52 54 55 55 57 58 58 61 62 63 64 68 70 70 70 72 71 68 70 71 71 71 68 60 48 47 46 50
41 41 40 41 41 43 44 44 45 45 47 49 48 49 49 48 53 53 53 53 55 55 56 58 58 59 61 64 68 70 69 59 69 67 70 70 70 68 69 69 70 73 52 52
38 41 40 40 41 41 42 43 42 43 44 46 47 51 51 51 52 52 52 52 53 54 55 55 55 58 59 60 63 67 66 66 67 68 69 69 72 71 67 71 71 69 67 55
34 36 37 37 39 40 40 41 42 42 43 44 45 46 48 50 51 51 50 52 51 52 54 55 55 57 58 59 60 62 64 62 64 68 69 72 72 71 71 73 71 69 68 66
34 35 35 36 37 39 40 41 42 42 43 43 45 46 47 48 48 48 49 50 51 53 52 53 55 55 56 57 57 55 58 62 63 65 66 68 69 68 69 70 71 70 68 61
38 38 36 36 36 36 39 41 41 42 42 43 44 45 45 46 46 47 48 48 49 49 50 51 52 52 54 55 55 54 54 57 61 61 65 66 67 65 66 68 65 61 59 59
39 38 37 37 37 36 37 39 41 42 42 43 42 42 43 44 45 46 47 46 46 45 48 49 50 52 54 54 53 52 53 53 56 61 64 61 64 64 63 63 62 61 61 60
40 39 38 38 39 39 38 38 39 41 42 42 42 41 42 43 44 44 46 46 46 47 48 47 49 50 51 52 53 51 52 56 59 61 62 63 63 62 62 56 59 58 57 56
37 39 38 37 37 38 38 38 37 38 41 42 42 42 42 43 43 43 44 44 46 47 47 47 48 47 49 51 52 54 54 58 59 59 60 59 59 59 58 57 56 55 54 54
35 35 36 35 34 34 35 35 37 38 39 39 39 40 41 41 42 43 44 44 46 47 47 46 46 48 47 48 48 48 48 50 50 50 49 49 50 50 50 51 51 51 51 50
35 34 35 34 34 34 32 32 32 35 37 38 38 39 38 38 39 38 39 44 46 46 46 46 46 46 45 44 44 43 43 43 43 43 42 42 42 41 40 40 40 42 44 44
36 37 37 36 34 31 32 34 32 34 35 35 35 37 35 33 36 38 40 43 44 45 45 45 44 44 44 43 43 42 42 42 42 42 41 40 40 40 39 39 38 38 38 37
36 34 37 34 32 27 30 32 29 30 32 33 33 34 34 34 35 37 38 38 43 44 44 44 44 43 43 42 42 41 41 41 41 41 40 40 39 39 39 39 38 38 37 37
35 30 30 33 28 26 26 27 25 27 27 27 28 29 30 32 34 35 37 38 37 41 43 44 43 43 42 41 41 41 41 41 41 41 40 40 40 40 39 39 39 39 39 38
31 32 31 28 27 27 27 29 27 26 29 29 27 29 30 32 32 34 36 34 34 34 36 40 41 42 41 41 42 42 42 42 41 41 41 41 41 41 41 41 40 40 39 39

GFSNGP_sfc_dewp_057.txt.gz
Dewpoint
14 14 13 14 18 22 27 30 32 29 28 32 32 33 34 35 37 39 40 42 46 48 58 65 65 68 68 65 66 65 67 67 69 72 73 74 74 75 75 76 76 77 77 76
19 14 12 12 11 14 21 24 27 29 30 33 35 40 38 35 40 40 42 43 44 50 54 57 61 67 69 69 68 67 69 68 70 73 74 74 74 75 76 76 77 77 76 76
20 14 13 10 8 7 11 16 20 24 31 34 35 38 42 42 44 47 50 50 52 53 52 54 57 63 66 70 69 70 71 71 72 74 74 75 75 76 76 77 77 77 77 76
29 22 14 12 8 9 11 13 21 24 28 31 34 41 44 54 54 55 55 56 57 57 57 58 55 56 62 66 72 71 72 73 73 74 75 75 76 76 77 77 77 77 77 77
28 23 19 11 23 36 37 32 30 25 27 28 31 34 41 48 56 58 59 60 61 60 60 62 62 59 59 64 71 71 72 73 74 74 75 76 76 76 77 77 77 76 77 78
29 23 19 17 35 36 39 31 33 40 29 29 33 34 39 55 57 58 60 62 64 64 64 64 65 64 62 59 67 71 72 73 75 75 76 76 77 77 77 77 76 74 75 77
30 27 20 34 35 34 34 36 43 42 42 41 41 48 51 51 53 56 59 63 65 68 66 67 67 66 67 63 65 70 72 73 76 76 77 77 78 78 78 77 75 77 76 77
32 29 25 40 34 31 40 41 40 45 44 44 46 46 46 49 51 53 57 57 61 68 67 67 67 67 70 70 68 73 73 74 76 77 74 74 78 78 78 78 77 78 77 76
29 30 39 42 42 44 43 42 42 46 44 45 45 44 45 47 51 52 55 56 59 65 70 70 68 66 70 71 74 74 75 75 76 77 76 76 77 78 75 77 73 73 72 71
37 37 40 41 42 43 43 42 45 48 46 45 46 46 45 48 51 53 55 56 59 62 66 70 71 73 72 72 75 76 76 76 76 76 75 76 74 74 72 71 71 70 70 69
37 39 40 41 43 43 43 46 48 49 47 46 46 47 48 49 52 55 57 57 58 59 61 62 65 67 69 72 75 72 75 74 74 73 73 75 73 72 71 73 67 70 68 66
34 39 39 40 42 44 44 47 48 48 48 48 48 49 49 51 53 57 57 57 57 57 58 59 60 61 64 67 73 74 73 72 70 70 72 71 71 70 51 55 53 54 53 63
39 41 42 42 43 44 44 47 47 47 48 48 49 50 50 52 56 56 56 56 57 57 57 59 59 60 61 64 67 74 74 73 70 68 70 71 71 70 70 64 50 50 50 53
41 40 39 41 41 43 45 46 47 46 47 48 49 51 52 53 54 54 54 55 57 57 56 57 57 57 60 62 64 69 73 62 73 71 70 71 72 71 70 69 67 70 53 56
35 40 40 41 42 42 43 44 44 44 44 45 47 48 50 52 53 53 54 54 55 56 55 56 56 57 61 61 62 67 69 69 71 73 72 68 72 70 65 65 67 68 67 58
33 34 35 37 40 41 41 41 42 43 44 44 46 46 48 48 49 51 51 51 52 53 53 54 55 56 59 61 61 64 68 63 66 69 67 68 65 66 63 65 65 64 63 66
34 35 34 34 34 39 40 41 42 42 43 44 45 46 46 47 46 46 48 49 49 50 51 52 52 53 56 57 57 58 62 67 63 69 71 67 68 68 69 69 69 69 68 63
35 36 35 35 36 35 39 40 41 42 43 43 43 45 45 45 45 47 46 46 46 47 47 49 50 51 54 56 53 53 53 55 60 65 64 67 69 69 71 71 68 67 64 62
37 36 36 37 36 37 37 39 39 41 41 42 43 43 43 43 45 46 48 46 45 45 46 48 49 50 50 53 53 51 50 51 53 60 65 62 63 65 68 67 66 66 64 63
38 37 36 36 37 37 38 38 39 41 42 42 42 43 43 44 44 45 45 46 46 47 46 45 46 47 50 51 52 51 54 56 58 61 62 62 62 63 64 57 59 62 62 62
36 38 37 35 34 36 36 37 37 38 39 40 41 42 41 44 43 44 43 43 45 46 45 46 46 46 47 47 48 49 53 57 56 55 56 59 59 57 57 56 57 55 55 56
34 35 36 34 34 33 33 33 35 37 38 39 40 41 41 41 42 41 43 44 45 45 44 44 44 46 46 46 44 44 44 45 45 45 45 45 46 47 46 46 48 48 50 52
35 34 35 34 33 32 32 32 32 35 36 37 38 40 39 38 39 38 41 44 44 45 44 44 44 44 44 41 42 41 42 42 42 41 41 41 41 41 41 41 41 40 39 39
37 37 36 35 33 32 33 34 32 34 35 35 35 37 37 33 36 36 41 43 44 43 44 43 43 43 42 42 41 41 41 41 40 40 40 39 39 39 39 39 39 39 37 37
38 36 39 34 32 27 32 32 31 30 33 34 34 35 37 36 35 36 36 41 43 43 44 43 43 43 40 40 41 41 41 41 40 39 39 39 39 39 39 39 39 38 38 37
40 34 36 34 28 25 25 25 25 26 29 28 28 31 32 35 34 35 35 38 39 41 41 40 41 40 39 39 40 40 40 41 41 41 40 40 39 39 39 39 39 39 39 40
34 32 33 33 31 27 26 28 26 25 26 26 30 32 33 32 34 35 37 33 33 33 34 34 33 35 33 34 34 36 38 38 39 40 41 41 41 41 41 40 39 39 40 40

GFSNGP_sfc_dewp_060.txt.gz
Dewpoint
17 14 12 13 14 14 16 21 22 21 23 28 38 43 44 44 46 41 42 50 47 54 60 62 65 66 66 65 66 66 68 69 71 73 72 73 72 73 71 73 74 75 75 75
21 20 16 13 13 13 15 20 22 23 30 33 36 44 42 46 51 56 46 42 51 55 59 63 66 67 67 67 66 67 68 69 71 73 73 73 73 73 74 73 74 75 75 75
26 23 23 16 15 14 15 16 20 24 29 32 33 37 43 45 49 58 57 52 58 59 59 63 65 67 68 68 68 69 69 70 71 73 73 73 74 73 74 74 75 75 75 75
30 28 25 27 20 14 14 14 12 16 20 24 29 34 37 41 51 56 60 59 60 57 60 62 67 68 67 69 71 71 70 71 71 72 72 73 73 74 74 74 74 75 75 75
28 26 25 21 21 30 32 20 19 37 35 36 28 26 34 54 59 60 59 59 61 60 61 66 66 66 67 68 69 69 71 71 72 71 72 73 73 73 74 74 74 74 75 75
30 23 18 21 33 33 32 26 40 42 43 43 44 35 42 51 53 56 60 59 62 64 64 65 66 65 66 65 70 70 69 72 72 73 72 73 74 74 74 74 74 74 74 75
29 29 24 35 33 33 26 26 40 41 42 43 44 49 50 49 51 54 55 59 60 62 65 68 70 68 68 67 67 71 71 71 74 75 73 75 75 75 75 75 75 75 75 75
33 28 27 37 35 30 40 41 40 41 42 43 46 46 47 47 50 53 55 56 58 60 65 71 74 72 70 70 69 72 74 73 74 75 73 73 76 76 76 75 75 75 75 75
31 29 43 42 41 41 41 41 41 41 42 43 45 46 46 47 50 53 55 56 57 59 62 64 68 72 73 73 73 72 76 74 75 75 75 75 76 76 75 76 75 75 74 74
35 37 39 40 41 42 41 42 43 44 43 44 46 45 46 47 50 52 56 57 56 57 58 60 62 65 69 70 75 75 72 75 75 75 75 75 75 75 75 75 75 74 73 73
37 39 39 40 41 41 42 42 42 44 47 48 46 46 47 48 51 53 57 57 58 58 57 57 59 63 64 66 69 73 75 75 75 74 74 75 74 75 75 75 73 74 73 72
34 39 39 39 42 43 41 42 44 47 48 49 48 48 50 50 53 56 56 56 58 57 56 57 57 59 61 63 65 70 75 74 73 73 74 74 73 71 53 58 55 57 58 68
38 40 42 42 42 43 42 44 46 46 48 50 49 50 51 52 54 55 55 55 56 57 57 57 57 57 59 62 62 66 71 76 73 70 72 73 73 72 70 62 49 48 50 55
41 40 39 42 40 43 44 44 46 46 47 48 49 49 50 53 54 54 54 55 56 56 55 56 56 56 57 60 61 62 68 65 75 73 71 72 73 73 71 71 70 68 52 55
36 40 39 41 42 42 43 43 43 42 44 45 48 48 49 50 49 50 52 53 55 54 53 54 53 53 56 58 60 61 62 65 68 71 71 69 74 73 72 72 71 71 69 59
33 34 36 38 41 41 41 41 41 41 44 45 46 47 48 48 48 48 48 49 51 50 51 51 51 52 55 58 59 59 61 60 63 69 71 68 71 69 70 72 73 71 70 69
33 35 35 34 38 41 40 42 43 43 44 44 45 47 47 46 47 47 48 46 49 50 50 50 49 50 54 57 57 58 59 61 62 67 69 69 69 70 69 68 68 68 68 65
38 40 37 37 36 37 39 41 42 43 43 45 46 46 45 45 46 46 46 47 46 45 47 47 48 49 51 53 55 56 57 60 64 69 69 70 70 71 72 70 68 67 66 64
39 37 37 37 36 38 39 40 41 43 45 46 46 45 46 46 46 46 47 46 45 43 44 46 48 48 49 50 51 53 55 56 64 62 66 64 66 64 62 62 63 64 65 67
40 39 37 37 37 36 38 40 39 39 41 44 44 43 44 43 44 44 45 44 45 45 46 44 44 45 46 48 50 50 54 57 57 57 57 60 62 63 59 55 57 57 58 60
39 38 37 36 36 34 34 40 37 39 39 41 41 43 44 44 43 42 42 42 45 46 43 44 44 43 44 44 44 45 45 46 47 48 47 50 50 51 57 58 57 57 57 57
35 37 36 35 33 34 34 34 35 41 38 39 40 42 43 43 42 42 43 43 44 44 43 43 43 45 44 44 41 41 41 41 41 41 41 42 42 42 42 43 43 43 48 52
39 38 35 35 33 33 32 32 33 34 37 39 41 41 40 39 39 38 40 43 43 44 42 42 42 43 43 40 40 40 40 40 40 39 39 39 39 40 39 39 38 38 38 39
42 40 40 35 33 34 33 35 35 37 41 44 41 42 39 39 39 40 42 43 42 43 43 42 42 43 41 40 40 40 40 40 39 39 39 39 39 38 38 38 38 38 37 36
46 43 41 36 36 32 33 33 32 37 35 41 40 39 39 36 39 40 40 41 42 43 43 44 44 43 39 38 39 40 40 40 39 39 39 39 39 39 39 39 39 38 38 38
40 43 44 38 31 27 26 26 28 27 26 32 34 35 34 36 35 38 40 40 40 40 34 35 39 39 39 38 38 38 38 39 39 39 39 40 39 39 39 39 39 40 39 39
42 42 36 35 31 31 26 28 27 29 28 28 36 36 35 36 34 34 37 33 33 32 32 31 30 33 32 32 35 38 38 38 38 38 39 40 41 41 41 40 40 39 40 40

GFSNGP_sfc_dewp_063.txt.gz
Dewpoint
18 17 18 17 14 12 13 16 17 18 19 29 35 36 39 43 52 56 59 59 58 55 55 65 61 64 63 62 63 65 70 70 70 70 70 70 68 68 65 71 69 73 72 74
26 21 19 18 20 21 14 14 14 17 20 30 32 34 37 39 46 54 60 59 62 61 60 62 61 61 64 62 64 64 67 69 70 70 70 70 70 70 68 66 71 69 71 72
26 26 25 25 23 21 19 15 15 14 18 30 41 32 36 55 57 58 58 59 59 62 64 64 66 67 67 66 65 64 65 68 69 70 70 70 71 70 71 67 69 72 71 71
27 28 23 26 27 28 25 27 25 22 41 42 44 45 49 50 54 56 58 59 60 62 61 64 66 68 69 69 68 68 66 66 69 70 70 71 70 70 70 70 68 68 71 72
27 24 23 24 24 31 30 33 39 40 41 42 44 45 46 47 51 53 55 57 59 60 62 63 64 65 67 66 67 67 67 67 68 69 70 71 70 70 70 71 71 70 71 72
32 25 19 24 31 31 31 28 38 38 39 42 44 42 44 46 49 52 55 55 56 58 60 62 64 68 68 66 68 66 67 68 69 69 70 70 71 70 71 70 70 72 71 72
31 29 26 33 34 33 28 31 40 39 39 40 42 45 46 47 48 51 54 55 57 58 58 61 65 66 71 69 66 69 70 70 69 70 69 70 70 71 70 71 71 71 72 72
33 29 26 40 38 35 39 40 40 40 40 40 42 44 46 46 48 50 52 56 56 56 58 59 62 63 65 68 69 70 69 71 71 71 69 71 71 71 71 71 71 71 71 72
36 34 40 39 39 41 40 39 40 41 41 41 42 43 46 46 47 50 53 55 55 56 57 57 58 59 62 63 65 66 70 72 71 72 71 70 72 71 71 71 71 71 71 71
33 37 38 38 40 41 40 40 39 41 41 42 44 44 47 45 47 51 53 56 56 56 55 56 57 57 58 60 62 63 68 71 72 71 71 70 73 72 72 71 72 71 71 71
34 36 36 39 40 42 42 41 39 41 42 45 47 48 47 46 49 52 53 56 57 57 56 56 57 57 57 58 60 61 65 71 72 71 71 72 71 73 73 73 71 72 72 72
33 37 38 38 41 42 42 41 41 43 44 46 47 47 48 49 50 53 55 55 55 57 56 56 56 56 56 57 59 60 62 69 72 71 72 72 72 69 52 56 58 59 61 69
38 40 41 42 43 42 42 42 42 44 45 46 47 50 51 51 51 54 55 54 54 55 55 55 55 53 54 56 57 59 60 63 66 71 72 72 72 71 70 62 49 47 49 58
42 41 40 40 39 42 42 42 43 44 44 46 46 49 50 50 51 51 50 52 53 53 52 51 51 52 53 54 57 58 58 57 62 68 73 73 73 73 72 69 69 66 53 53
41 42 40 42 43 42 42 42 41 41 42 44 46 48 48 47 47 47 48 49 50 49 49 49 50 50 52 53 55 57 58 59 60 64 70 69 73 73 72 70 70 68 61 57
36 38 40 39 41 41 40 40 40 41 42 44 45 45 47 48 47 47 47 47 47 46 47 47 47 48 51 53 55 55 56 57 58 62 68 68 70 70 71 71 71 68 67 65
37 37 37 38 40 41 41 41 41 42 44 44 44 45 46 46 46 46 45 46 46 45 46 46 46 48 50 52 52 53 55 57 58 66 66 68 67 67 68 68 69 67 67 65
40 39 38 38 38 41 40 41 42 43 44 45 45 45 43 44 44 44 45 45 45 44 44 45 47 48 47 48 51 52 55 58 61 64 68 67 66 68 67 68 67 66 65 62
42 41 40 41 39 38 41 41 41 43 44 44 45 44 44 45 44 44 45 43 43 42 43 45 47 45 45 47 49 50 53 55 56 58 63 60 60 61 62 62 62 64 66 66
43 43 42 41 41 41 41 41 42 40 44 43 44 45 44 44 44 43 44 42 43 44 45 45 45 44 44 44 46 43 45 47 48 48 52 53 59 58 57 55 58 59 60 60
43 42 42 41 40 42 41 41 41 39 40 42 43 44 43 42 42 43 42 41 43 45 45 45 45 44 44 42 41 41 41 42 42 43 42 43 46 45 47 48 48 51 54 55
44 44 40 40 37 36 39 41 41 42 41 41 44 44 43 42 41 40 41 42 44 44 44 44 44 45 44 43 40 39 40 40 39 39 39 40 39 39 39 39 41 42 42 43
45 46 44 41 39 35 35 38 37 41 42 42 43 42 41 41 40 39 37 41 42 44 42 42 43 43 43 42 40 40 39 39 38 38 38 38 38 39 38 37 37 37 38 39
45 44 43 42 41 38 37 40 38 42 42 43 42 42 41 40 41 40 41 43 44 44 42 43 44 42 41 42 40 39 39 39 38 38 38 38 39 39 38 38 38 38 38 37
46 44 43 43 41 38 36 36 35 41 41 41 42 41 41 41 40 41 41 41 43 44 42 43 43 43 39 39 39 39 38 38 37 37 37 38 38 38 39 38 38 38 39 39
47 46 45 42 42 35 33 35 32 32 37 39 41 41 40 41 41 41 41 39 40 42 36 40 41 40 40 39 39 39 39 39 39 39 39 39 38 38 39 39 39 39 39 39
45 44 46 44 39 35 36 36 33 33 37 38 41 41 43 40 40 38 39 36 36 35 34 34 34 36 35 39 39 39 39 39 38 39 39 39 40 40 40 39 39 39 39 39

GFSNGP_sfc_dewp_066.txt.gz
Dewpoint
20 23 21 20 19 20 20 20 14 16 17 26 38 45 54 55 57 59 60 62 63 63 62 62 62 62 62 62 64 67 67 68 67 69 69 67 64 65 66 69 68 68 71 72
28 27 26 25 25 25 23 21 22 18 16 42 44 50 53 54 55 56 58 60 60 60 60 62 61 64 65 67 65 67 68 68 69 68 69 70 69 65 66 65 67 69 71 71
24 27 26 23 24 25 27 33 35 23 37 42 43 46 50 51 52 54 57 60 61 60 61 62 64 65 66 66 68 64 68 69 69 70 70 70 70 69 67 66 64 67 68 71
26 26 20 22 26 25 34 37 38 40 41 42 43 45 46 48 51 53 55 56 57 60 61 62 64 67 68 69 69 68 68 69 70 71 71 70 70 70 69 68 66 64 68 68
25 25 25 25 24 28 29 36 38 38 38 42 41 45 45 46 49 52 55 56 58 59 60 62 64 66 69 68 65 64 65 67 68 70 70 70 70 70 70 70 69 66 67 71
31 24 22 27 37 36 30 31 39 39 38 39 42 39 43 45 47 50 54 56 57 57 59 61 63 64 66 68 66 64 67 68 68 68 69 70 70 70 70 70 70 70 67 67
29 27 32 38 38 38 28 30 39 40 40 40 40 42 44 44 46 49 52 55 57 57 58 58 61 61 63 65 66 67 68 69 70 69 68 69 70 70 70 70 69 70 69 69
33 27 26 39 38 35 38 39 39 40 39 40 40 42 42 43 45 46 51 54 56 56 56 58 58 59 60 61 62 64 64 66 68 71 69 69 69 70 70 70 70 69 70 71
32 35 40 38 36 39 39 38 39 38 38 40 40 42 43 44 45 47 51 53 55 55 54 55 56 56 57 58 60 61 62 64 66 70 72 71 69 69 70 69 69 70 69 69
29 35 37 36 39 39 41 40 39 39 38 38 40 43 45 47 46 46 50 52 55 55 56 56 56 56 56 55 57 58 60 62 64 67 71 71 70 69 69 70 69 69 70 70
31 34 36 38 39 40 41 42 41 40 39 41 43 44 46 46 48 48 50 51 54 54 54 55 55 56 55 54 56 56 58 60 62 68 72 71 70 70 69 70 69 69 69 70
28 34 36 37 40 41 41 39 40 42 42 42 44 44 46 46 49 49 51 52 52 55 54 53 53 53 53 53 54 54 57 59 61 63 66 72 71 69 53 55 57 57 58 66
34 38 38 39 41 42 41 41 42 42 43 43 44 46 46 48 49 51 52 53 51 53 51 50 50 51 51 52 53 53 56 57 59 59 64 71 71 71 70 61 49 51 52 56
39 39 38 40 40 41 42 42 43 43 42 43 44 47 48 49 50 49 48 50 52 50 49 48 48 48 49 50 51 52 55 53 57 59 60 66 73 72 71 71 70 69 51 56
40 41 39 39 41 42 42 41 41 41 41 43 45 46 46 47 46 47 47 48 48 47 46 46 45 46 48 49 51 51 52 53 56 57 58 61 67 71 72 71 71 72 62 55
40 41 41 40 40 41 40 40 40 41 42 42 44 44 45 47 47 46 46 47 45 45 44 43 45 46 48 49 49 51 52 53 54 56 58 61 65 69 71 71 69 68 67 69
36 35 37 36 39 40 40 40 41 42 44 43 44 44 45 45 45 45 45 45 45 45 44 44 44 46 46 47 48 51 52 53 55 59 61 64 66 68 71 71 71 69 67 64
37 36 36 36 36 40 40 41 42 42 44 45 45 44 44 43 43 43 44 44 44 42 43 44 46 45 44 45 49 49 50 50 52 52 58 61 61 66 68 70 68 66 64 62
40 38 38 37 38 37 40 40 41 42 44 43 44 43 44 43 43 43 43 42 42 42 42 45 46 45 44 45 46 46 46 47 48 47 49 53 59 59 59 66 65 65 64 64
42 42 42 39 40 39 39 40 41 41 43 43 44 43 42 42 43 42 43 41 43 44 44 45 45 44 44 44 45 43 43 44 45 45 44 46 47 47 51 53 60 61 61 61
44 45 46 45 39 39 39 37 38 38 42 42 42 42 41 41 42 42 41 40 43 45 44 44 44 44 44 43 42 41 43 41 41 42 42 42 43 42 43 46 47 48 49 52
44 44 44 45 41 35 38 37 39 38 39 42 43 43 42 41 40 41 42 42 44 45 45 44 44 44 44 44 41 40 40 40 40 40 40 40 40 40 40 40 41 42 44 44
44 45 44 42 42 38 35 37 37 39 40 42 42 41 39 39 40 38 38 42 44 44 45 45 44 43 43 41 41 40 39 38 38 39 39 39 39 39 39 39 39 39 39 39
42 44 43 43 41 35 33 36 39 40 39 41 40 40 40 39 39 40 40 42 44 44 44 44 45 43 43 42 41 40 40 39 38 38 39 39 38 38 38 38 38 39 39 38
44 44 42 42 39 36 35 37 40 40 39 40 40 40 40 40 39 39 40 41 43 43 42 44 45 42 41 42 41 41 40 40 40 39 39 39 38 38 39 39 38 38 39 39
44 44 45 44 43 36 35 34 38 38 39 39 40 40 40 39 40 40 40 40 37 39 38 39 40 40 39 39 39 39 39 40 40 40 39 38 37 37 38 39 39 39 39 39
42 43 43 44 45 44 34 34 36 36 38 40 40 41 41 40 39 41 41 36 35 32 34 34 35 39 39 39 39 39 39 39 38 39 39 40 40 39 39 38 39 39 39 39

GFSNGP_sfc_dewp_069.txt.gz
Dewpoint
23 26 26 25 25 25 22 20 17 17 21 38 41 50 52 51 54 56 58 59 60 60 61 64 64 62 62 63 66 66 66 66 66 67 66 64 64 64 67 69 67 67 69 72
27 27 26 25 25 24 24 22 23 27 26 41 43 48 49 50 51 53 55 56 58 60 61 61 62 65 66 66 65 66 66 66 67 67 68 66 65 64 64 66 67 67 67 68
22 26 24 19 25 25 33 38 34 26 37 42 41 44 46 49 50 52 54 55 57 58 60 62 63 65 66 67 67 67 66 67 67 68 68 69 68 65 64 64 64 64 67 68
24 25 16 21 26 28 36 37 38 37 38 40 40 41 44 43 45 50 54 55 56 57 59 61 63 64 65 68 68 67 68 67 67 68 68 69 69 68 66 64 64 64 63 64
24 23 23 25 29 30 32 36 38 38 39 39 40 42 44 43 44 45 51 55 57 57 58 61 62 62 65 68 67 64 65 67 68 69 70 69 69 69 69 68 66 66 64 64
26 21 22 25 37 38 37 31 39 39 39 39 40 37 43 42 42 44 46 52 56 56 57 58 59 60 63 64 64 64 66 68 69 68 71 70 70 70 70 70 69 68 67 66
26 23 28 37 37 39 27 28 39 40 39 39 37 39 41 42 42 43 45 47 55 56 56 55 59 59 60 61 60 62 64 64 66 68 69 70 70 70 70 70 70 69 69 68
30 26 23 37 36 33 36 37 38 39 39 39 39 40 40 41 42 44 45 47 53 55 57 56 57 57 58 58 59 61 62 63 64 66 69 70 69 69 70 70 70 69 69 69
31 30 37 37 35 37 39 38 37 37 38 37 37 37 39 41 42 46 46 47 50 55 56 55 56 56 55 56 57 58 60 61 62 63 65 69 71 69 69 70 69 70 69 69
29 30 34 37 37 39 39 39 40 40 40 38 36 37 39 41 42 46 46 47 50 53 54 56 55 56 55 55 54 55 57 59 61 61 62 65 71 72 71 71 71 71 70 70
28 31 33 37 39 38 40 41 39 38 39 39 37 38 40 43 43 45 46 48 50 52 55 55 54 54 54 53 53 52 53 57 59 60 61 62 65 72 71 71 70 70 69 71
27 31 31 32 37 39 40 40 40 41 41 42 42 41 43 43 45 46 46 49 51 53 54 52 50 50 51 51 51 52 52 54 56 58 59 60 63 66 57 56 55 56 56 64
32 34 36 36 39 40 41 42 41 41 43 42 42 43 43 44 46 48 49 49 53 53 52 50 47 48 49 49 50 50 51 53 54 54 57 60 61 62 68 64 52 51 49 53
37 38 36 38 38 39 42 43 42 42 42 42 43 45 46 47 47 47 49 50 52 50 48 47 46 45 46 47 48 49 52 50 52 54 55 56 58 60 64 69 70 70 56 53
39 39 38 36 39 40 41 43 41 41 42 42 43 43 44 45 45 45 46 47 47 46 44 44 44 44 45 47 47 48 49 49 52 53 55 55 57 58 59 65 71 71 68 56
40 40 40 39 39 40 40 40 39 40 42 43 42 43 44 45 45 45 45 46 44 44 44 43 43 44 46 46 45 46 48 51 52 53 55 57 58 59 61 64 69 71 71 70
36 36 37 37 38 38 39 40 39 41 43 43 41 42 44 44 44 43 44 44 44 44 45 44 43 44 46 45 46 46 48 50 52 52 53 53 55 61 63 64 67 71 71 68
37 36 36 36 35 36 38 40 40 40 41 43 44 43 43 42 42 42 43 43 44 43 44 45 45 46 44 45 45 47 46 48 49 50 50 50 50 56 61 64 66 68 66 59
41 39 38 37 37 38 38 38 40 40 41 42 43 42 41 42 43 43 43 43 42 41 42 44 46 44 43 44 47 44 45 46 46 47 47 47 47 49 50 52 64 68 66 64
43 42 42 41 41 39 38 39 39 40 41 42 42 40 39 41 42 42 42 41 42 44 44 44 44 43 43 43 45 43 43 43 43 43 43 44 44 44 45 46 49 54 61 61
43 45 45 44 43 42 39 40 37 39 39 42 42 40 38 41 41 43 41 41 43 45 43 44 44 43 43 43 42 41 41 41 41 41 41 41 42 42 42 44 44 46 50 50
43 45 45 43 42 42 39 38 37 38 39 41 42 41 40 39 39 40 42 42 44 45 45 43 43 44 43 43 41 40 40 40 39 40 40 40 40 39 40 40 41 42 43 44
43 44 43 41 41 41 39 36 37 38 40 41 41 40 38 39 40 38 38 43 44 45 45 45 42 43 43 41 40 40 39 39 39 39 39 39 39 39 39 39 40 40 40 40
43 44 44 44 42 42 37 35 38 39 39 41 40 39 38 37 38 39 40 42 44 44 44 44 43 41 41 41 40 40 40 40 39 39 39 39 39 39 39 39 39 39 39 38
45 45 45 44 41 39 34 37 39 39 39 39 39 40 40 39 39 39 40 40 42 43 42 44 41 40 41 41 41 40 40 40 40 39 39 39 39 39 39 39 39 38 38 38
42 43 44 43 41 37 35 39 38 39 39 38 39 40 40 40 39 40 39 39 36 40 38 40 40 40 39 40 41 41 41 40 40 40 39 39 39 39 39 39 39 39 39 39
41 41 39 40 41 41 35 37 37 38 38 39 39 40 41 39 40 40 39 35 34 34 34 35 39 40 39 39 39 39 40 41 39 40 40 40 41 40 40 40 40 39 39 39

GFSNGP_sfc_dewp_072.txt.gz
Dewpoint
26 25 25 25 25 24 22 21 18 18 28 39 43 47 48 49 50 52 54 55 57 59 61 62 64 66 66 65 66 67 66 66 66 67 67 67 67 68 69 69 69 69 69 71
26 27 25 24 25 25 24 24 23 24 33 41 44 47 46 46 48 50 53 54 56 57 59 60 63 65 66 67 67 66 66 66 68 68 68 67 67 67 68 69 69 69 69 70
21 27 23 23 25 26 35 38 37 29 38 41 40 44 43 43 43 45 47 52 55 56 57 59 61 63 64 65 68 68 67 67 68 68 68 68 68 67 67 67 68 68 68 69
24 22 10 16 27 26 35 37 39 37 39 39 40 40 43 42 42 42 44 46 50 55 57 58 61 61 61 66 68 67 67 68 68 68 68 69 69 68 67 66 66 67 68 68
23 21 21 26 34 34 33 33 39 38 39 39 39 40 43 42 42 42 44 45 48 52 57 58 59 59 60 64 64 65 66 67 69 69 68 69 69 70 69 68 67 66 67 67
24 21 19 24 37 37 38 28 39 39 39 39 37 34 43 41 40 42 42 43 46 48 54 56 56 59 59 62 62 62 63 64 65 67 70 70 70 70 71 71 69 68 67 68
25 22 26 36 37 39 27 28 39 39 39 38 37 38 39 40 40 42 43 44 47 48 51 55 57 58 57 59 59 60 62 64 64 66 67 70 71 71 71 71 71 71 69 69
27 24 22 37 35 32 35 38 38 38 39 38 39 39 40 39 39 41 42 44 47 47 49 53 57 58 57 57 59 59 60 61 64 65 65 67 68 70 71 72 71 71 71 70
29 28 36 37 35 37 39 37 38 38 39 39 39 38 38 38 38 39 41 44 46 47 48 51 55 57 55 56 57 56 57 59 60 63 64 65 66 67 70 71 71 71 70 70
28 28 33 37 37 38 39 38 40 40 40 40 40 40 37 37 37 39 40 44 44 45 48 51 53 56 55 55 55 54 55 56 59 60 62 63 64 66 67 71 71 71 71 70
28 30 32 34 37 39 39 40 40 39 40 40 41 40 40 38 38 40 44 44 46 46 46 49 54 55 53 53 51 50 52 54 57 59 59 59 61 62 64 67 69 71 71 71
28 31 31 31 37 39 39 39 41 41 41 41 42 42 42 42 43 44 44 45 46 46 47 49 53 53 51 51 50 49 49 51 54 56 56 57 59 60 56 55 53 52 54 65
30 32 34 35 38 39 39 39 42 42 42 42 42 42 43 44 45 45 46 47 49 49 49 51 52 50 48 48 48 48 48 50 52 52 53 56 58 58 59 59 54 51 49 51
35 37 36 38 37 39 40 41 44 43 43 43 43 43 44 44 45 45 45 46 47 48 49 48 46 46 46 46 47 47 48 48 50 51 53 54 55 56 57 58 60 62 58 53
38 38 37 37 39 39 40 41 42 41 42 43 44 43 42 43 43 44 45 46 46 46 46 45 44 45 46 46 45 45 44 46 48 50 52 53 55 55 57 59 59 62 66 60
38 39 39 39 39 39 40 40 40 40 41 43 43 41 42 43 44 44 44 45 43 43 44 44 43 44 45 46 46 44 44 46 47 48 51 52 54 55 57 60 61 62 65 68
38 38 39 39 39 39 38 39 39 40 41 42 43 43 44 42 42 42 43 44 44 44 44 44 43 44 46 46 45 44 45 45 47 47 49 51 51 53 56 59 62 63 65 67
40 39 37 37 37 37 37 38 40 41 40 41 42 44 43 41 41 42 42 43 42 42 42 43 44 46 45 44 44 45 46 46 46 47 49 49 50 51 52 54 56 59 63 65
42 40 39 38 38 37 38 38 39 40 41 41 42 43 41 42 42 42 42 42 41 41 40 42 45 45 43 44 46 46 44 44 45 46 47 47 47 48 48 49 49 51 57 63
45 44 42 40 41 40 39 40 40 40 40 41 42 42 40 40 41 42 42 42 42 43 45 43 43 43 43 43 45 42 42 43 43 43 44 44 44 44 44 44 45 47 54 55
43 44 44 44 45 44 43 41 40 39 40 42 42 41 39 40 41 41 41 41 43 45 44 43 43 43 43 44 42 41 41 41 41 41 41 41 42 42 42 41 41 44 45 45
42 42 45 45 45 44 42 39 39 39 40 42 42 42 41 40 39 40 42 42 44 44 44 44 44 44 43 43 41 41 40 40 40 40 40 40 40 39 39 41 40 41 41 41
43 44 44 43 42 41 41 39 38 39 40 42 42 41 41 40 40 39 39 43 45 44 45 44 42 43 42 40 40 40 40 39 39 39 39 39 39 39 39 38 39 39 39 39
44 45 44 45 44 42 41 42 38 40 41 42 42 41 39 37 38 39 41 42 43 44 45 44 42 42 42 41 40 39 39 39 39 39 39 39 39 39 38 38 38 38 39 39
46 45 45 44 44 44 43 41 41 42 40 41 41 41 42 43 40 41 41 40 42 44 43 42 40 42 43 42 41 39 39 39 39 39 39 39 39 39 39 38 38 38 38 38
43 43 44 44 44 43 42 40 43 41 41 40 40 41 42 45 44 43 40 39 38 42 41 42 40 41 42 42 41 41 40 39 39 38 38 39 39 39 39 39 39 39 39 39
42 41 42 42 43 40 40 43 42 41 41 40 39 41 41 40 44 41 38 35 35 35 36 39 39 40 39 39 39 39 40 40 39 40 39 38 38 39 39 39 39 38 38 39

GFSNGP_sfc_dewp_075.txt.gz
Dewpoint
26 24 23 23 21 19 17 21 20 23 28 43 46 47 47 47 48 49 50 52 55 56 58 61 63 64 66 67 68 66 66 66 67 69 69 68 70 72 71 71 71 72 72 72
26 25 23 20 22 22 20 20 21 23 33 43 46 47 45 44 44 44 45 47 50 54 56 56 60 61 62 65 67 68 68 67 69 70 71 71 72 72 72 71 71 71 71 71
23 26 22 15 21 22 25 33 27 23 33 40 41 44 41 38 37 39 40 44 47 50 53 57 58 60 60 62 67 69 69 68 69 70 70 71 71 71 71 72 71 72 71 71
23 22 15 22 29 27 29 35 38 38 39 39 39 39 41 41 42 41 41 42 44 46 49 53 56 58 59 62 64 67 69 69 69 70 69 71 71 71 72 70 71 71 71 72
25 18 21 23 27 30 27 27 38 37 39 39 39 39 41 43 42 41 42 41 43 44 47 51 53 57 59 60 62 62 64 66 68 70 70 70 70 71 71 71 70 70 70 71
31 20 14 24 35 37 37 24 39 40 39 38 38 30 40 41 40 41 41 42 43 44 46 47 51 54 57 56 59 60 60 62 65 67 69 71 71 72 72 72 71 69 69 70
28 27 24 32 36 38 26 30 39 39 39 38 37 38 40 40 40 41 41 42 43 44 47 48 50 53 56 57 57 58 59 59 61 65 66 67 72 74 72 73 73 72 71 72
32 29 26 38 36 33 37 39 37 37 37 38 38 39 39 40 40 41 40 41 42 43 45 46 48 51 54 56 59 58 57 57 59 62 64 66 67 68 70 72 72 72 72 72
34 33 38 39 36 38 38 36 38 39 37 38 38 38 39 39 40 39 40 41 41 42 44 46 47 49 52 55 58 58 56 56 56 58 61 65 65 68 68 69 69 71 70 71
31 33 38 40 38 38 39 38 39 39 38 38 37 38 38 39 39 40 40 41 41 42 43 45 47 48 50 54 57 56 55 54 55 55 57 60 61 63 67 67 66 67 70 70
35 34 35 37 37 38 40 40 39 39 39 38 39 39 39 40 41 42 44 44 44 44 44 45 47 48 49 52 56 53 53 52 52 53 55 56 58 57 60 64 65 68 71 71
35 37 36 35 39 41 40 40 40 40 37 40 41 41 41 41 43 44 45 47 47 48 48 48 49 51 51 53 54 52 51 50 49 49 51 53 52 54 54 53 52 51 49 54
34 38 37 39 40 41 40 40 40 41 40 41 42 42 42 43 44 45 45 46 46 46 45 47 47 50 51 52 49 50 50 50 49 48 49 50 51 53 55 55 51 50 48 49
38 37 37 39 39 41 41 41 42 42 42 43 43 42 41 42 43 43 44 45 45 45 45 45 46 46 47 47 48 48 49 47 47 47 48 49 50 51 53 54 56 58 55 55
38 38 37 40 41 41 42 42 42 42 42 42 43 42 42 42 42 42 44 45 44 44 44 44 44 45 45 46 46 46 46 45 46 47 47 48 50 52 53 54 56 58 59 58
39 38 38 39 41 41 42 42 42 42 42 41 42 41 42 44 43 42 43 44 43 43 44 43 42 43 44 45 46 46 45 46 46 46 46 46 49 50 53 55 57 58 59 60
38 38 39 39 40 40 41 41 42 41 42 42 43 43 45 45 42 42 42 43 44 44 42 43 41 44 46 46 46 44 43 44 45 47 45 46 49 50 51 53 54 56 59 60
43 42 41 41 41 40 40 41 42 43 43 43 44 44 44 43 42 42 42 43 42 43 44 43 44 45 43 43 42 42 43 45 46 46 45 47 48 49 50 50 51 53 54 56
45 42 42 40 40 40 40 40 41 43 45 44 44 44 45 43 42 41 41 42 42 42 43 45 44 43 42 43 45 45 45 45 44 45 46 47 48 48 48 49 49 50 51 52
45 45 45 44 43 42 41 42 42 42 43 44 44 45 44 43 42 42 42 41 43 44 44 44 44 43 42 42 44 41 41 42 43 44 44 45 44 45 45 44 45 46 48 51
44 45 45 46 46 46 44 44 44 43 43 44 45 45 45 42 42 43 43 43 44 45 42 42 44 44 42 42 41 40 41 41 41 42 41 42 42 42 42 43 43 43 44 44
44 44 44 44 45 46 47 46 45 43 43 44 45 46 45 42 42 42 43 43 42 45 47 43 44 43 42 43 40 38 39 40 40 40 40 40 40 40 40 41 41 41 41 41
45 46 46 46 45 46 44 44 43 42 43 44 45 45 41 37 38 37 37 43 43 45 47 44 42 42 41 41 39 37 37 38 38 39 40 40 40 39 39 39 39 39 39 39
46 46 46 47 47 45 44 46 43 41 43 46 44 44 40 36 37 40 40 42 43 43 45 45 41 41 41 42 41 39 37 36 35 37 39 39 39 39 39 39 38 39 39 39
44 45 47 46 46 46 46 44 44 44 43 45 44 44 42 42 40 39 39 38 41 41 42 42 41 40 42 42 42 40 39 38 37 35 35 38 38 38 38 39 39 38 38 38
45 46 46 46 44 44 45 45 45 45 43 41 41 41 41 42 41 39 36 37 37 40 37 40 37 40 43 42 41 41 40 39 39 37 36 35 37 38 38 37 37 38 38 38
44 43 44 44 44 43 42 45 46 44 42 39 39 40 40 40 41 38 38 33 33 34 34 35 36 39 40 39 41 42 42 42 39 39 38 37 37 37 37 37 36 35 36 37

GFSNGP_sfc_dewp_078.txt.gz
Dewpoint
23 21 20 19 17 17 22 25 25 28 39 43 46 47 48 48 49 49 49 50 52 54 57 59 59 62 64 66 67 68 67 66 67 69 70 70 70 71 71 72 72 72 71 71
24 21 20 17 19 19 17 19 25 29 38 43 47 46 43 43 43 43 44 45 48 50 53 54 57 59 60 62 65 69 70 69 69 70 70 71 71 70 72 72 73 73 72 71
19 21 17 12 15 17 19 20 20 24 35 41 43 43 42 41 42 42 41 42 43 44 47 50 53 56 58 60 63 64 69 70 70 71 71 71 72 72 72 72 72 73 72 72
20 21 11 24 26 21 21 29 29 35 37 39 40 41 42 45 45 44 44 43 43 41 44 47 47 51 58 60 62 62 62 63 65 70 70 72 73 73 73 72 72 72 72 73
19 14 20 20 25 23 26 31 33 35 37 37 38 38 42 44 43 43 43 42 43 42 44 48 48 49 53 56 59 62 60 61 62 64 67 70 71 72 73 73 72 72 72 73
24 20 15 25 32 34 30 28 37 36 37 36 36 27 42 42 41 41 42 42 43 43 43 45 48 47 50 51 54 58 59 61 62 63 64 65 70 72 74 73 72 71 71 72
24 25 21 31 33 33 21 33 39 38 39 38 34 38 41 41 41 42 42 43 43 44 44 46 47 47 49 52 52 56 58 59 59 61 64 65 66 69 73 75 76 74 72 73
29 28 27 35 34 29 39 41 38 38 38 38 38 39 39 40 41 42 41 42 42 43 44 46 47 48 49 51 54 57 57 58 59 59 57 62 66 67 67 70 71 74 75 76
30 33 39 39 39 41 37 37 38 38 37 38 37 37 38 39 41 41 42 43 43 42 44 46 47 48 49 51 53 55 57 57 57 58 58 59 61 64 67 68 68 70 73 73
32 31 37 39 39 39 37 36 38 38 38 38 37 38 39 40 41 41 43 44 45 46 46 47 48 49 50 51 52 53 55 56 55 55 55 57 55 56 58 61 63 64 64 72
35 34 34 38 39 37 38 38 37 37 37 37 38 38 40 41 42 42 44 44 45 46 46 46 47 48 50 52 53 51 53 53 53 50 52 53 54 54 54 55 56 60 63 66
33 32 36 33 38 40 39 39 38 37 37 38 40 40 41 41 42 43 43 44 45 45 46 46 46 47 49 50 52 53 53 49 48 48 48 49 50 51 49 48 48 48 48 53
35 38 36 37 39 40 38 39 38 37 39 38 39 40 40 40 41 41 42 44 44 45 44 45 45 46 47 49 49 48 49 51 48 48 48 48 49 49 49 49 48 47 46 46
40 38 38 37 37 39 39 40 41 39 38 39 39 40 40 41 39 40 40 43 44 43 44 43 44 43 44 47 48 48 47 47 48 48 47 47 48 48 49 49 49 50 50 50
40 40 36 37 39 40 40 40 40 40 40 38 39 40 40 40 41 41 41 43 43 43 43 43 43 43 43 43 44 45 45 45 46 46 47 47 48 48 48 48 50 50 52 51
42 41 40 38 39 39 39 39 39 39 38 39 39 40 40 42 42 40 41 43 43 43 43 42 42 42 43 43 43 44 45 46 47 46 46 46 46 47 48 49 50 51 51 52
42 40 41 39 38 39 39 39 39 38 38 39 40 42 43 42 41 41 42 42 43 43 43 43 43 44 45 41 39 41 42 43 44 45 44 45 46 46 47 48 49 50 51 52
43 42 41 41 40 39 39 40 40 40 39 40 41 43 43 43 41 43 43 43 42 41 40 42 43 43 41 40 39 41 43 42 42 43 44 45 45 46 46 48 48 49 50 51
40 40 41 41 41 41 40 39 40 41 42 43 42 43 43 43 42 42 43 41 41 41 40 40 42 41 41 41 43 43 42 41 42 43 44 45 46 45 45 46 48 48 49 50
44 43 43 42 44 44 43 42 41 41 41 42 42 43 44 44 42 42 42 42 42 40 43 43 43 41 41 41 43 38 39 40 41 41 42 43 43 45 45 46 47 48 48 49
44 44 44 44 45 47 47 46 44 44 43 43 43 44 44 44 42 42 42 38 42 44 43 44 42 38 38 42 41 40 39 39 39 40 41 41 42 43 43 44 45 46 46 46
44 43 44 44 44 45 46 47 47 46 46 43 44 44 45 43 42 41 43 42 40 45 43 43 39 41 39 41 41 40 39 38 37 38 39 40 40 40 41 42 42 43 43 43
46 45 46 46 45 46 46 47 48 46 43 44 45 45 44 37 36 35 35 41 37 41 41 43 40 39 40 41 42 41 40 39 38 37 36 38 39 39 39 39 40 40 40 41
43 44 45 46 48 45 44 46 48 46 44 46 47 46 42 36 35 35 37 41 43 41 40 41 39 40 40 42 43 41 41 40 39 38 37 36 37 37 38 39 39 39 39 39
42 43 45 47 46 45 45 46 46 47 44 46 46 43 41 37 35 35 36 36 41 38 35 44 43 42 41 43 43 42 41 41 40 39 37 36 36 35 34 34 37 39 39 39
41 46 46 45 47 45 46 45 45 46 47 46 43 37 37 37 37 38 37 36 34 36 31 34 39 40 39 42 43 42 43 41 41 40 38 37 37 36 34 33 34 34 35 37
40 41 42 44 47 44 46 45 44 44 44 44 42 37 37 35 36 35 38 34 31 30 31 31 30 33 31 35 39 43 43 43 40 40 39 39 38 35 36 36 34 33 33 34

GFSNGP_sfc_dewp_081.txt.gz
Dewpoint
21 19 19 21 21 20 23 24 26 40 42 45 48 48 50 51 51 51 52 52 53 56 59 61 61 62 63 65 68 69 70 69 70 70 71 71 72 73 73 74 74 74 75 74
22 17 18 17 18 17 20 22 25 37 42 46 47 47 47 47 47 47 48 48 49 51 54 54 57 60 62 63 65 67 68 69 69 73 73 72 72 72 73 73 75 76 75 74
19 19 14 14 16 17 18 19 25 34 43 45 44 43 43 44 45 45 45 45 46 47 48 50 51 54 57 60 63 62 63 63 65 68 71 73 74 74 73 73 74 76 75 75
19 25 16 23 23 16 18 21 26 39 42 43 43 43 44 45 45 45 46 46 45 43 46 48 46 49 55 57 62 61 61 61 62 65 67 70 72 73 74 74 75 74 75 76
20 20 20 22 24 19 20 27 28 36 38 39 40 41 44 43 44 44 43 44 44 44 45 49 48 48 51 53 58 59 60 61 61 61 64 66 68 69 73 75 74 74 73 75
23 21 18 25 27 30 22 26 33 35 36 36 36 33 41 43 40 41 42 43 44 43 44 45 48 47 49 49 52 54 56 59 61 63 62 63 64 67 70 74 74 76 73 75
22 24 23 33 31 29 23 33 36 34 36 35 34 42 43 41 41 42 42 43 44 44 45 46 48 48 50 50 51 53 55 57 58 60 61 62 64 67 67 67 70 73 74 76
28 27 26 34 31 28 41 41 39 39 38 37 39 38 38 39 40 41 41 42 42 44 44 46 47 48 50 52 53 54 54 56 58 59 57 57 63 63 65 67 67 70 73 74
30 36 42 38 39 42 41 40 38 38 37 37 36 37 38 40 41 42 43 45 45 45 47 48 49 50 50 53 54 54 54 55 56 58 57 58 59 61 58 65 69 69 66 71
32 35 37 37 39 39 38 36 38 38 37 36 37 38 38 40 41 42 44 45 45 46 47 48 48 49 50 51 52 53 55 54 54 55 55 55 52 52 52 54 56 57 63 66
32 34 35 38 39 39 37 37 36 37 36 35 36 37 39 41 43 43 44 45 45 46 45 46 48 48 47 49 50 50 51 52 53 51 52 52 54 50 50 56 52 52 53 54
32 36 37 35 39 39 38 37 36 36 37 38 38 40 42 42 43 44 43 44 45 45 45 46 45 46 47 48 48 48 48 47 47 48 48 47 48 48 47 48 47 46 46 49
37 41 39 36 37 39 38 39 38 37 38 38 39 41 40 41 43 42 42 42 44 45 45 45 45 44 44 46 46 48 47 48 46 46 46 47 47 47 46 46 46 45 44 45
41 40 39 37 37 38 39 40 39 38 39 39 38 40 39 40 41 42 42 43 43 43 43 43 43 43 44 44 46 46 45 45 45 45 45 45 46 46 45 46 46 46 45 47
43 42 39 39 39 39 39 39 39 38 39 38 39 40 40 39 41 43 44 43 42 42 42 42 42 43 44 43 44 43 41 40 41 43 45 46 47 47 46 45 46 46 46 45
42 43 43 41 40 40 39 39 38 38 37 38 37 39 41 41 43 43 43 43 42 40 41 42 42 43 43 43 41 40 40 43 42 41 43 45 45 46 45 46 46 46 46 46
43 44 43 43 41 40 39 39 39 37 37 37 39 40 44 42 43 41 42 41 42 42 42 41 42 43 43 41 41 38 38 39 42 41 41 42 43 45 46 47 46 46 45 47
46 45 44 43 42 42 40 40 38 38 38 38 39 41 42 45 44 42 42 42 42 42 42 42 43 43 42 40 40 38 37 37 38 39 40 43 43 43 43 44 45 46 46 47
44 44 43 43 43 43 41 39 39 41 44 44 41 40 42 42 44 42 42 42 42 41 41 41 41 42 40 40 40 35 35 36 37 38 40 41 41 41 41 43 44 45 46 47
43 44 43 43 43 42 43 44 41 42 43 43 44 42 42 41 42 42 43 42 42 40 43 40 42 40 39 39 40 35 36 37 38 39 39 40 39 40 40 41 43 45 45 46
42 44 43 45 45 48 45 48 44 44 44 46 45 45 46 46 43 43 42 38 46 45 41 42 41 38 35 37 36 36 38 38 39 38 38 38 39 39 39 40 41 42 43 45
43 44 44 45 47 47 48 49 49 48 47 48 47 46 45 44 43 42 42 40 38 46 39 38 40 41 37 40 37 37 38 39 39 39 37 37 37 38 38 39 40 41 42 43
41 42 42 42 44 45 46 46 47 49 49 51 49 46 47 42 41 36 36 43 41 42 36 35 43 42 41 39 39 40 40 40 40 38 38 37 37 37 37 37 39 40 40 41
39 40 40 41 43 45 46 45 45 47 49 50 50 48 49 47 39 34 35 43 44 40 36 36 42 43 43 39 45 43 43 43 42 40 39 37 37 37 37 36 36 38 39 40
39 39 41 44 45 45 46 47 45 46 47 48 50 50 47 43 38 39 37 37 43 40 36 45 45 45 40 41 46 45 45 43 42 41 40 39 37 37 37 37 37 36 35 37
39 37 39 43 48 48 48 44 45 47 48 48 48 50 49 40 36 35 36 37 37 39 33 37 37 41 38 34 34 43 43 45 42 40 40 39 39 37 37 37 36 36 36 36
38 40 39 41 45 48 46 46 42 45 46 46 46 48 47 38 36 35 38 36 34 34 33 30 29 34 30 30 36 36 38 44 41 38 41 40 40 39 37 37 36 35 35 36

GFSNGP_sfc_dewp_084.txt.gz
Dewpoint
32 19 20 19 20 20 24 26 42 45 45 48 51 53 53 52 53 52 52 54 55 55 57 61 62 63 64 66 66 69 70 70 71 72 74 75 76 75 76 76 75 76 76 75
21 18 19 18 19 20 21 23 35 38 44 48 49 50 50 50 50 49 50 50 52 53 54 56 59 62 63 64 64 66 66 66 69 72 72 74 75 75 76 76 76 76 75 75
23 19 17 18 19 19 19 22 43 45 46 47 46 46 46 46 47 47 46 47 49 49 51 52 53 58 62 64 64 63 63 64 65 67 69 70 71 74 75 75 75 75 75 76
22 23 19 21 22 18 19 20 36 45 46 45 45 45 45 46 46 47 46 46 46 46 49 50 48 52 59 61 64 64 64 63 64 64 66 68 70 69 70 73 75 75 74 75
23 20 21 22 23 17 18 21 36 44 45 42 43 44 44 45 45 45 45 45 45 45 48 53 49 53 56 57 60 59 60 63 63 63 64 64 66 67 68 69 70 73 74 75
26 22 21 28 26 26 17 22 31 39 41 42 41 40 41 43 42 42 43 44 44 44 45 47 50 48 51 50 55 56 57 60 62 63 64 64 65 66 69 69 69 71 72 75
25 25 28 32 28 26 20 29 34 38 39 38 40 43 44 43 43 43 43 43 43 45 46 48 49 49 52 53 53 54 55 57 60 62 63 64 65 67 67 68 70 69 71 73
25 25 27 34 29 27 43 40 36 38 38 42 43 43 42 42 42 41 42 43 43 45 46 48 50 51 52 55 56 57 57 57 59 60 59 58 63 64 64 65 67 68 69 70
33 39 42 41 43 44 41 42 41 41 38 39 38 38 39 40 41 43 44 45 45 46 48 50 50 50 50 54 55 55 55 57 59 59 59 61 62 61 60 63 63 66 65 66
34 40 40 39 41 41 40 40 38 38 38 36 36 38 39 41 42 43 45 46 45 46 46 48 50 49 49 52 54 53 54 55 54 54 57 58 56 55 56 54 56 58 58 57
32 34 36 37 38 39 38 37 38 37 37 37 37 37 40 42 45 44 45 45 46 46 46 46 47 48 47 49 50 48 49 50 51 50 52 53 55 55 55 58 52 53 54 54
32 37 40 38 41 40 39 37 36 37 35 36 36 41 42 43 44 44 45 45 46 45 45 46 45 46 46 47 47 46 45 45 45 46 47 48 49 50 49 47 45 44 44 48
40 42 40 39 37 38 38 37 36 36 39 39 39 41 41 43 44 42 43 44 44 45 45 46 46 44 45 46 46 45 43 45 43 43 44 46 48 48 48 49 46 44 42 43
43 43 41 38 36 38 38 39 41 38 38 39 40 41 41 42 43 43 43 43 43 43 44 44 44 44 44 45 47 46 45 44 41 41 42 43 45 46 47 48 48 50 47 45
42 42 42 43 44 44 39 39 39 37 38 39 39 40 40 41 43 43 43 43 43 43 43 43 43 44 45 43 43 43 40 39 40 40 41 42 42 44 44 45 46 48 49 47
40 40 43 43 44 41 43 40 39 39 38 39 39 41 41 41 43 44 43 43 42 41 43 43 43 46 43 45 44 40 40 43 42 39 40 40 41 42 42 43 44 46 47 48
42 43 44 42 44 43 42 43 42 39 40 40 41 44 43 42 43 43 44 42 43 43 43 44 44 43 46 42 42 37 36 36 41 37 37 38 39 40 41 42 43 43 43 46
44 44 44 44 45 44 43 44 44 41 43 39 41 45 45 44 45 45 46 43 43 44 44 46 45 42 43 41 40 36 34 35 36 36 36 37 37 38 38 40 41 41 41 44
41 42 43 43 43 43 43 43 43 43 44 46 45 43 47 46 47 46 47 43 44 42 44 46 45 43 42 42 39 34 34 35 36 36 36 38 37 36 37 38 39 39 41 42
41 44 45 44 44 43 44 45 45 43 45 44 45 45 45 47 48 48 46 46 45 44 46 44 44 41 43 40 38 34 35 36 37 37 36 37 36 36 36 38 38 38 39 40
43 45 44 48 47 48 47 46 46 45 45 47 46 47 47 49 48 48 45 40 46 47 45 47 42 38 38 37 34 33 35 36 37 38 39 38 37 35 35 37 37 37 38 38
41 44 46 46 45 47 48 50 50 50 50 50 51 48 49 49 49 48 45 44 44 47 43 42 41 45 40 40 33 35 37 38 38 39 39 39 37 36 36 35 36 37 37 38
39 42 43 42 42 44 43 47 47 50 51 50 50 51 52 52 50 48 43 46 40 46 41 39 45 47 44 39 37 37 39 41 41 41 40 39 37 37 37 36 36 36 36 37
38 42 41 39 41 41 44 47 47 45 46 46 49 52 52 50 50 51 50 46 45 42 40 39 44 47 46 39 42 42 45 44 44 43 41 38 39 37 37 36 35 36 36 36
39 42 41 41 41 41 46 47 45 48 48 47 49 50 52 51 50 50 50 46 44 42 39 44 47 47 41 39 43 49 50 47 45 44 43 40 39 38 37 36 36 35 35 36
40 36 38 43 43 46 49 48 42 44 45 48 49 50 50 51 50 50 45 46 43 40 37 39 39 42 39 39 36 34 39 44 42 41 43 42 40 40 39 37 36 35 35 35
37 39 38 40 40 40 44 43 41 43 45 46 46 48 48 49 48 45 46 46 38 37 35 35 35 36 32 30 31 36 38 43 41 39 37 41 41 41 40 39 38 35 35 36

GFSNGP_sfc_dewp_087.txt.gz
Dewpoint
33 34 32 26 22 22 24 43 44 47 50 52 53 52 53 54 54 55 54 55 57 59 60 62 63 64 65 65 67 67 67 68 67 70 71 72 72 73 73 73 73 73 73 73
34 32 22 19 21 22 23 41 45 46 49 53 52 52 52 51 51 51 52 53 53 56 57 59 61 62 63 63 65 66 65 66 67 69 70 69 71 72 72 71 72 73 73 73
30 25 20 22 22 21 28 43 46 46 51 52 51 48 48 47 47 47 48 49 50 50 52 53 57 61 62 63 63 64 64 64 65 67 68 68 69 68 68 69 73 72 72 72
31 27 23 25 24 21 22 44 47 48 49 52 46 46 46 46 46 46 46 47 48 48 49 48 51 55 62 63 63 63 63 63 63 64 65 66 67 67 68 68 69 71 72 73
28 24 25 28 28 26 34 46 48 48 46 45 46 45 44 46 47 46 45 45 46 50 50 50 50 51 53 56 54 54 55 59 62 63 63 63 64 66 67 67 68 68 69 71
32 28 25 30 29 26 29 43 47 44 43 43 43 41 43 43 44 44 44 44 45 48 48 49 49 52 51 53 53 52 53 54 57 61 60 60 62 63 65 66 68 70 70 70
28 29 32 33 30 28 25 38 47 44 44 43 42 43 43 44 44 44 45 43 46 48 48 50 52 52 53 52 53 54 54 55 56 56 57 58 59 61 62 62 64 66 68 69
29 30 31 44 39 38 43 43 43 44 44 43 43 43 44 44 43 44 45 45 47 49 50 50 50 50 51 51 53 53 53 53 54 55 56 55 58 60 58 58 60 63 66 66
40 39 44 45 44 44 42 43 41 41 43 42 42 42 42 42 43 46 46 46 47 48 49 49 50 49 48 50 51 51 50 50 52 52 51 52 57 57 55 57 55 57 59 57
40 43 42 43 42 43 42 40 41 39 37 37 39 40 41 43 44 46 46 45 46 46 47 47 48 48 48 48 48 47 47 47 48 48 47 48 50 51 51 52 53 51 52 52
35 41 41 42 43 41 40 42 39 40 38 39 39 41 43 46 45 46 46 46 45 45 46 46 45 46 46 46 47 45 45 45 44 44 44 44 46 48 48 48 48 46 47 51
39 43 41 43 43 43 40 40 40 39 39 39 42 43 45 44 45 46 45 45 45 46 45 44 45 45 44 45 46 45 43 43 43 42 43 44 45 45 46 46 45 44 43 43
44 45 44 43 42 44 43 40 39 39 40 38 42 43 45 45 44 43 44 44 44 44 44 44 43 43 44 45 44 44 44 43 42 43 41 41 42 42 41 43 44 44 43 43
44 44 43 44 42 41 41 42 43 39 41 42 43 43 44 44 42 44 43 43 44 44 43 43 42 42 42 43 44 43 42 44 40 39 40 41 41 41 41 41 41 42 44 44
44 44 43 43 42 44 43 42 40 40 40 39 44 43 44 42 43 45 44 43 43 43 43 42 42 43 43 42 43 41 40 40 40 40 40 41 41 41 41 41 41 41 42 42
43 43 43 44 44 45 42 42 41 40 40 41 41 43 43 44 45 44 44 43 42 42 42 42 41 43 44 43 40 38 38 44 41 38 39 38 39 39 39 39 39 39 39 39
42 44 44 44 44 44 44 42 43 42 41 41 43 44 43 45 45 44 45 43 43 43 43 43 43 43 42 42 38 37 37 37 39 37 37 37 37 37 37 37 37 38 38 39
44 44 44 44 44 44 45 44 44 43 42 44 46 43 42 43 43 44 45 45 45 43 43 44 44 42 41 42 39 37 36 37 37 37 37 36 36 37 36 36 36 36 36 37
46 45 45 45 44 44 44 45 44 44 45 45 45 44 44 44 45 46 46 45 43 43 43 45 48 43 43 42 39 35 36 36 36 36 37 37 35 35 35 34 34 34 35 35
47 45 45 47 46 45 45 46 46 45 45 45 44 44 47 45 45 46 47 43 43 43 44 45 45 42 43 42 42 35 36 37 37 37 37 37 36 35 35 34 33 34 35 34
45 46 47 49 47 47 48 48 47 48 48 49 46 46 45 48 47 47 47 43 44 47 44 48 45 43 43 42 40 35 35 37 37 37 39 37 37 36 35 34 34 34 33 35
43 42 43 45 46 47 48 48 49 50 49 50 48 49 49 48 49 48 46 43 44 48 46 46 44 46 43 46 35 33 35 38 38 38 38 37 37 35 36 36 35 35 35 35
41 42 41 41 43 43 44 46 48 48 49 48 49 49 50 50 49 49 47 48 47 47 44 45 46 48 48 41 37 37 38 39 41 40 39 38 36 35 37 36 36 35 34 35
41 43 45 44 43 43 45 47 47 47 47 47 47 49 50 50 50 52 51 50 49 49 46 45 47 48 47 42 41 42 43 43 42 41 40 39 36 37 37 36 36 36 36 35
43 43 44 43 43 44 46 47 45 44 46 47 48 49 50 51 50 50 50 50 49 50 49 48 48 48 43 42 42 44 45 44 43 42 41 39 39 38 38 37 36 37 35 35
42 42 43 44 43 44 47 45 41 43 45 47 48 48 48 50 49 49 49 49 49 48 47 43 44 45 42 41 41 42 43 45 44 42 41 40 39 37 36 36 38 37 36 35
41 41 41 43 42 43 43 42 41 42 45 46 45 47 47 48 48 48 49 49 48 48 45 42 40 43 41 41 40 39 39 44 43 43 42 42 41 40 39 38 38 37 36 36

GFSNGP_sfc_dewp_090.txt.gz
Dewpoint
32 32 33 30 29 23 28 38 39 49 49 53 53 54 55 56 56 56 57 59 60 61 62 63 64 64 66 67 68 68 67 67 68 69 69 70 71 71 73 72 73 72 72 72
31 32 28 21 22 23 38 45 50 50 50 53 53 54 53 54 53 53 54 56 57 59 60 61 62 63 63 64 66 66 66 66 67 68 68 69 69 68 70 71 71 72 72 72
32 33 27 22 25 29 40 47 51 48 52 52 52 51 52 51 52 52 50 51 52 54 57 60 61 61 62 63 64 63 64 64 66 67 67 67 67 68 67 68 69 70 70 71
33 30 25 25 26 41 46 48 51 52 52 52 50 48 47 47 47 48 48 49 49 50 48 50 58 61 62 62 62 63 63 63 64 64 64 65 65 65 67 67 67 68 69 70
35 31 25 28 28 28 42 48 52 51 48 46 46 45 46 46 45 45 47 48 48 48 48 50 52 54 53 53 53 53 54 56 59 61 62 63 64 65 65 67 66 67 69 68
33 32 28 31 31 31 43 45 51 46 45 44 45 42 43 44 43 43 44 47 47 48 50 51 52 53 52 52 51 51 53 55 56 57 58 61 60 61 64 63 65 66 67 68
29 27 33 38 41 39 33 39 48 48 45 44 42 43 43 43 43 42 44 47 50 50 49 49 51 50 50 51 51 52 52 52 53 52 53 55 56 57 59 57 58 61 64 66
29 28 27 42 40 37 41 45 48 45 43 45 43 42 43 43 42 44 47 49 48 48 49 49 49 48 48 49 50 49 49 48 49 50 50 50 51 54 55 54 56 56 57 65
38 37 41 41 41 42 41 45 45 46 44 45 43 41 42 44 44 45 46 48 48 47 47 47 47 47 46 47 47 46 46 46 46 46 46 46 48 48 48 49 48 47 48 50
39 40 39 40 40 41 40 38 40 43 43 42 41 41 44 44 44 44 45 46 46 46 46 45 45 45 45 46 45 45 45 44 44 44 44 44 45 47 46 46 45 45 46 46
37 39 40 41 40 39 42 41 38 38 39 39 41 43 45 44 44 44 44 44 45 45 44 44 44 43 44 45 44 43 43 43 42 42 42 43 44 45 44 44 44 44 44 45
36 40 39 39 42 41 39 40 40 38 39 42 44 44 44 44 44 44 45 45 45 44 43 44 43 43 43 43 43 43 42 42 42 41 41 41 41 41 43 43 43 42 41 43
41 43 42 42 43 43 38 39 39 38 40 43 44 43 44 44 43 45 44 44 44 44 43 43 42 42 43 43 43 42 40 40 39 39 39 40 41 41 40 41 42 41 41 41
42 41 40 41 39 41 41 40 43 39 38 43 43 44 44 41 43 43 43 43 43 43 43 42 42 41 41 43 42 41 40 43 38 39 39 40 40 40 40 39 39 39 40 41
41 40 41 44 42 40 42 41 38 39 40 41 43 43 43 41 42 42 42 44 43 42 42 42 41 42 42 41 38 37 38 38 37 38 38 38 38 38 38 37 37 37 37 38
40 41 42 43 43 43 43 41 38 38 40 41 42 43 43 41 42 43 42 43 42 41 42 41 41 42 43 40 36 37 39 41 39 37 37 37 37 36 36 36 36 36 37 37
39 39 40 41 43 43 43 44 42 40 40 41 42 42 44 42 43 43 42 42 42 42 42 41 41 43 41 39 35 37 37 37 39 36 36 36 36 36 36 36 35 35 35 36
41 42 43 43 42 42 43 44 44 43 43 43 44 43 44 43 42 43 43 42 42 42 42 42 42 42 41 40 37 36 36 37 37 36 36 36 36 35 35 35 34 33 33 33
44 43 43 43 43 42 42 43 44 43 44 44 45 43 43 43 43 43 44 42 42 40 41 42 46 46 40 42 39 36 36 36 36 36 36 37 36 35 35 34 34 33 33 32
45 45 44 44 44 44 43 44 44 44 44 44 46 46 47 46 43 43 44 43 42 41 41 42 45 44 40 43 46 35 36 37 37 37 37 36 36 35 35 35 34 34 32 32
43 44 45 45 45 45 46 46 46 46 46 46 46 46 48 49 49 46 47 43 43 43 42 46 44 44 41 43 45 36 35 36 37 37 37 37 36 35 34 34 34 34 33 33
40 40 41 42 43 43 45 45 46 47 48 48 48 48 48 47 48 49 48 45 46 46 44 44 45 46 43 47 42 38 34 36 37 37 37 37 36 35 34 33 34 34 34 35
38 39 39 40 39 40 43 44 44 45 45 45 46 46 47 48 48 47 46 48 49 48 45 45 46 48 49 46 42 36 34 37 37 38 38 37 36 35 34 34 34 36 35 34
39 41 41 41 43 43 42 43 43 43 44 45 45 45 45 45 47 49 51 51 50 50 49 46 47 48 49 43 39 37 38 39 39 39 39 39 37 35 35 34 34 35 36 35
41 41 41 41 41 41 41 41 41 41 41 43 44 44 47 47 48 48 50 51 49 50 50 50 50 49 49 43 41 41 41 41 41 41 40 38 37 36 37 34 34 34 36 37
40 40 41 41 42 42 41 40 39 41 45 45 46 46 48 49 49 49 49 49 50 50 50 49 49 49 46 42 41 41 41 42 42 42 41 40 39 38 37 35 34 34 37 38
39 40 40 40 41 41 41 40 39 40 41 42 41 44 46 48 48 48 48 48 47 46 46 47 48 45 44 42 41 41 41 42 43 43 42 41 40 39 38 37 36 37 38 37

GFSNGP_sfc_dewp_096.txt.gz
Dewpoint
32 32 32 32 27 27 24 25 31 37 46 51 53 55 58 59 59 60 61 62 63 64 65 66 66 68 68 68 68 68 67 68 68 68 68 69 68 68 69 70 71 72 71 71
33 34 34 26 28 34 33 46 48 48 47 54 54 58 58 56 58 58 60 61 62 63 64 64 65 66 66 66 68 68 67 67 67 67 67 66 68 68 68 68 68 69 70 71
30 34 29 22 29 31 34 47 49 45 48 55 56 56 55 55 56 57 59 60 61 62 62 62 63 64 63 64 65 65 65 66 66 65 65 65 66 66 65 66 67 68 68 68
34 32 24 25 34 36 46 52 52 52 53 55 54 53 53 53 54 55 55 55 58 61 61 58 57 57 56 57 58 58 59 60 63 65 64 64 63 63 63 63 64 65 66 68
33 31 32 31 35 37 37 48 53 52 53 50 50 49 49 50 50 50 52 53 56 56 57 55 54 53 53 53 52 52 52 54 55 58 60 61 62 63 62 61 61 62 65 68
35 33 31 32 38 41 45 43 53 53 50 49 50 46 46 48 48 49 52 56 54 53 53 53 53 51 49 49 48 49 50 50 53 53 55 57 59 61 62 61 62 64 65 65
35 34 35 40 40 42 34 36 52 51 50 50 48 48 46 48 47 50 52 52 52 52 50 49 49 48 48 47 47 47 48 48 49 50 51 52 52 53 53 52 53 60 59 57
29 29 30 41 39 37 40 46 51 51 52 50 48 45 46 47 50 49 49 49 49 48 48 48 48 47 46 46 47 47 47 47 48 48 48 49 50 47 48 50 50 50 50 50
33 34 40 42 41 44 46 48 50 50 52 51 48 46 46 47 48 48 48 47 47 46 46 46 46 46 45 46 47 46 45 45 45 46 46 48 46 46 45 46 47 47 46 46
36 38 41 41 42 44 48 49 51 51 52 50 48 47 47 49 48 47 46 46 46 45 44 44 45 45 45 45 45 44 44 43 43 43 43 44 44 44 44 43 43 42 43 43
37 39 40 40 41 42 46 49 50 52 51 50 48 48 48 48 48 47 46 46 46 45 44 44 44 44 44 44 44 42 41 41 41 41 41 42 43 43 42 43 42 40 40 41
37 39 39 40 42 43 44 45 47 47 48 52 49 47 48 49 47 46 46 45 44 44 43 43 43 43 43 44 43 41 39 40 40 40 40 39 39 38 41 42 40 39 40 39
39 42 41 43 43 43 41 43 44 44 45 45 46 47 46 45 46 46 46 44 44 44 43 43 43 43 43 43 42 41 39 39 39 38 37 37 37 36 34 36 40 39 39 39
41 41 40 42 41 41 42 42 43 44 45 45 45 46 45 45 46 45 45 45 45 44 43 43 43 43 44 43 42 41 40 39 37 36 35 36 35 35 35 34 33 34 37 37
41 40 39 42 43 43 42 41 41 40 44 44 45 45 44 44 45 45 45 45 44 44 43 43 42 42 43 40 40 39 37 36 36 36 36 35 35 35 34 33 33 33 34 35
40 41 41 41 42 43 44 43 41 39 41 44 44 45 45 45 45 45 44 44 43 42 43 43 42 43 42 40 39 37 37 39 37 36 35 35 35 34 33 33 33 33 33 33
38 38 39 39 41 42 43 44 44 44 42 43 45 45 45 44 44 44 44 44 44 44 43 43 43 44 43 39 39 38 39 39 38 36 36 36 35 35 34 33 33 33 33 34
41 40 38 39 41 42 41 42 43 45 44 43 44 46 45 43 44 44 43 44 43 43 43 43 44 44 43 38 38 39 38 39 37 37 36 37 36 36 35 34 34 33 33 34
45 43 42 43 43 43 42 42 43 44 45 45 45 45 45 43 43 44 43 43 43 43 43 43 46 46 43 40 39 37 37 37 36 37 37 38 38 37 36 35 35 34 34 33
43 44 44 44 44 44 43 44 44 45 45 45 45 45 45 46 45 43 44 44 43 43 44 43 45 45 43 43 45 36 36 37 37 37 37 37 37 37 38 37 36 35 34 34
44 45 45 44 45 45 45 46 46 45 46 46 45 45 46 47 48 48 46 45 45 46 46 45 44 44 44 42 45 38 36 36 37 37 37 39 38 38 37 37 37 35 35 34
40 42 42 43 42 43 43 44 44 44 44 44 45 47 47 47 48 49 49 48 50 48 48 48 48 46 45 47 43 43 38 37 37 37 39 39 39 39 39 39 38 37 35 35
39 39 39 40 39 39 42 43 43 44 43 44 44 44 44 46 46 46 47 50 51 50 49 48 48 49 49 46 44 44 42 40 38 38 39 40 40 40 40 40 40 39 38 37
39 40 40 40 42 41 40 41 41 41 41 43 44 44 45 45 45 46 47 48 48 50 51 51 50 50 50 50 48 44 43 42 42 41 41 39 41 40 40 41 40 40 39 38
40 40 41 41 41 41 40 40 40 41 43 43 44 44 45 47 47 48 49 49 48 48 50 50 51 50 50 50 49 46 45 44 43 43 42 42 41 41 41 41 41 41 40 40
40 40 40 40 41 41 41 40 41 41 41 42 43 44 45 46 46 48 49 49 50 49 50 50 51 51 51 50 49 47 46 45 43 41 43 43 43 42 42 42 42 41 42 41
40 40 40 40 41 41 40 39 39 40 42 42 42 43 44 45 46 46 46 48 46 48 50 50 50 50 50 49 48 47 47 46 44 43 42 42 44 44 43 43 43 42 42 41

GFSNGP_sfc_dewp_102.txt.gz
Dewpoint
27 27 26 28 27 27 29 27 24 23 26 31 49 56 59 61 62 62 63 63 64 65 66 68 68 68 69 69 69 69 70 70 71 72 73 72 72 73 73 73 72 74 72 73
29 30 30 28 28 28 31 29 26 27 29 44 51 57 59 61 61 62 63 63 64 65 66 67 68 69 69 70 69 70 68 68 69 70 71 71 72 72 73 73 74 74 73 73
26 30 30 29 29 28 32 37 36 28 36 50 54 56 59 60 61 62 62 63 64 65 66 67 68 69 70 69 70 69 68 68 68 69 69 70 70 71 72 72 72 72 72 72
27 32 27 31 37 37 36 39 46 46 49 52 55 57 59 60 60 61 62 63 62 63 63 64 67 69 69 69 69 69 68 68 69 68 67 67 67 68 69 70 70 70 70 68
32 27 29 31 36 36 37 39 49 51 52 53 57 57 57 58 59 60 61 61 60 61 60 59 59 62 62 62 63 64 64 66 67 66 65 65 65 66 67 70 68 69 67 64
31 29 30 37 36 38 37 41 49 51 53 55 55 53 54 57 58 59 59 58 57 57 57 57 56 58 57 59 59 59 59 59 61 63 66 66 66 65 64 68 65 62 60 58
29 28 31 41 39 39 36 40 49 53 54 54 55 55 57 57 58 57 56 56 55 54 55 55 56 57 55 55 55 57 58 59 59 61 62 62 62 64 64 59 57 58 55 51
31 30 30 45 41 40 48 46 49 53 54 53 55 56 57 57 55 54 53 52 52 51 52 53 53 54 55 54 56 58 57 57 58 58 55 58 62 62 61 59 58 57 55 52
39 42 46 47 48 50 50 48 51 53 53 54 54 54 56 53 52 52 52 51 51 50 50 53 56 56 53 53 54 55 55 56 56 56 56 58 60 57 55 58 56 55 53 50
42 42 42 44 46 51 53 51 52 53 52 52 52 54 55 53 52 52 52 52 50 51 50 50 52 53 54 53 52 53 54 54 53 53 53 53 50 52 52 52 52 51 50 49
42 42 42 43 46 49 52 54 53 53 53 52 52 52 52 52 52 53 53 53 52 51 50 50 51 51 49 50 50 50 50 49 50 48 50 50 46 45 44 42 41 48 46 44
43 44 46 45 45 47 49 51 52 53 53 53 53 52 52 52 52 53 51 52 52 52 50 50 48 48 49 49 50 49 47 45 43 44 44 43 42 39 40 39 39 38 38 39
45 46 46 45 45 43 46 49 51 52 53 54 54 54 53 53 53 54 53 52 52 50 50 50 48 48 48 48 48 49 47 47 42 41 40 41 40 37 35 36 39 38 37 38
46 46 45 44 43 44 43 45 48 49 52 54 54 54 55 54 55 55 54 54 53 51 50 49 48 47 48 48 49 47 47 42 39 38 36 37 37 36 34 35 35 34 36 36
44 44 43 44 44 44 44 43 43 45 48 50 53 54 54 54 55 55 54 53 52 50 49 48 48 47 47 46 46 45 41 35 35 35 35 36 35 34 32 33 33 33 35 37
43 42 40 39 41 41 40 41 42 43 43 47 49 51 52 52 53 54 53 52 50 49 50 49 48 48 48 46 45 42 41 40 38 34 34 34 33 32 32 32 33 32 32 32
41 41 38 37 37 39 40 41 43 44 46 45 45 47 50 50 51 52 53 51 51 51 51 51 50 50 48 46 45 39 37 36 40 34 33 33 32 32 32 31 31 31 31 32
39 39 36 38 39 39 40 41 42 42 43 45 47 48 48 49 50 52 52 52 52 52 52 51 51 49 48 46 43 38 34 35 35 35 34 35 34 33 32 32 32 31 30 31
41 40 39 39 39 40 41 42 43 45 46 46 45 46 48 48 49 50 51 51 52 52 51 52 52 50 48 46 44 38 34 33 34 35 36 38 35 34 33 33 33 33 32 30
42 43 43 43 45 44 44 46 45 47 48 47 45 44 44 46 48 50 50 51 51 48 51 50 51 49 48 47 46 38 36 34 35 35 35 35 35 36 37 38 36 35 34 32
43 44 46 47 47 48 47 47 47 47 48 46 44 45 46 47 48 50 50 47 50 51 51 51 49 48 47 46 46 41 37 36 36 36 35 36 36 36 37 38 37 37 36 34
43 45 46 46 46 46 48 47 45 45 45 45 45 45 45 45 46 46 47 48 48 51 50 50 48 50 48 49 44 44 42 40 37 37 35 36 36 37 38 38 38 38 37 37
45 46 46 45 44 45 45 43 43 43 44 46 47 47 45 43 43 42 41 45 45 47 47 50 51 51 51 52 48 47 45 42 40 38 37 36 36 37 37 38 38 38 38 39
47 46 45 43 42 43 43 44 43 45 46 46 46 46 45 41 41 43 46 47 47 48 46 46 48 51 50 52 52 51 50 49 48 46 43 38 36 36 37 39 39 39 39 40
47 45 45 43 43 40 43 44 43 45 45 45 45 45 44 44 43 44 44 44 48 48 49 49 49 49 50 53 52 51 51 51 49 50 49 49 42 43 42 40 39 39 39 39
46 42 40 43 38 37 37 39 36 38 38 39 40 41 41 42 41 42 43 44 43 45 43 47 48 50 50 51 52 51 51 51 51 50 51 49 50 50 52 52 51 49 45 43
44 39 39 39 36 36 35 36 36 37 38 39 39 39 40 41 42 42 42 39 38 38 39 41 43 46 49 49 50 52 52 52 49 50 49 49 50 51 50 50 50 52 52 50

GFSNGP_sfc_dewp_105.txt.gz
Dewpoint
29 29 28 27 23 21 26 26 25 23 23 28 47 52 58 60 62 63 63 62 63 66 68 69 68 69 68 68 70 70 71 71 71 74 72 72 72 73 70 71 71 71 71 74
34 25 26 25 27 29 25 25 24 24 24 35 51 55 58 61 61 62 63 64 65 66 67 68 68 68 69 68 69 70 70 70 72 73 72 73 73 72 73 72 72 72 71 72
28 23 25 23 25 26 26 26 26 25 28 46 49 53 57 60 61 62 63 64 65 65 66 67 68 69 68 69 69 70 69 69 70 70 70 71 72 73 73 73 73 73 72 72
28 28 27 28 32 32 34 32 36 40 38 49 50 56 58 59 61 62 63 65 66 66 67 68 70 71 71 71 70 70 70 69 69 69 69 70 70 69 70 71 72 73 72 70
30 23 35 32 34 34 34 40 51 47 45 48 56 57 58 59 60 62 63 63 62 63 64 63 65 69 70 70 70 69 69 69 69 69 68 67 67 67 68 70 71 69 68 66
34 32 27 42 43 37 36 32 45 50 52 53 55 50 53 59 60 61 61 60 59 59 59 58 58 62 62 62 64 64 65 67 67 68 66 66 66 66 66 67 66 66 61 60
27 32 35 42 40 38 34 41 46 52 54 55 54 56 59 59 59 59 58 57 56 55 56 57 57 58 57 58 58 61 61 61 62 64 64 66 66 67 65 64 62 61 58 56
31 37 38 43 40 42 48 46 47 52 54 56 56 58 58 56 56 55 53 53 53 53 54 55 56 56 55 56 58 60 61 62 61 62 59 61 65 63 61 61 60 59 58 55
42 45 45 47 47 49 48 46 49 53 54 55 56 56 55 54 53 52 52 52 52 52 54 56 56 55 54 56 58 59 59 61 61 59 60 62 62 62 60 60 59 59 56 54
38 41 43 44 47 50 50 48 50 53 54 55 54 53 53 53 52 52 53 52 52 52 50 51 54 55 55 56 58 56 56 58 57 56 57 59 58 58 58 57 56 56 55 53
41 41 42 43 45 49 51 53 52 54 54 54 52 52 52 53 54 54 53 53 52 51 51 51 51 51 53 54 56 56 57 56 54 51 53 51 45 40 47 41 39 44 51 50
41 46 46 45 45 46 48 51 53 54 54 54 53 53 53 52 54 53 54 54 52 52 50 50 50 51 52 51 53 54 54 54 52 46 47 45 45 41 39 39 39 39 39 41
44 45 45 45 44 43 45 47 51 54 54 52 52 53 53 53 54 54 53 53 54 53 52 52 51 50 49 50 53 52 51 51 50 42 42 44 43 41 38 35 39 38 37 38
45 46 45 43 43 43 44 45 48 51 54 52 51 51 50 51 55 56 54 55 55 54 53 52 51 49 50 49 49 51 50 44 43 39 38 39 40 39 37 36 35 34 36 37
45 44 41 44 45 44 44 44 45 46 49 51 52 52 53 52 53 54 55 57 56 55 53 52 50 49 48 47 47 46 44 38 37 38 38 37 37 37 34 35 37 36 34 36
43 42 41 41 42 42 42 42 41 43 45 47 50 52 53 54 54 54 56 55 54 53 52 52 51 51 49 48 47 44 43 41 39 36 36 35 35 34 32 34 34 34 34 34
43 42 40 38 38 39 39 40 41 42 44 44 47 49 50 51 52 53 55 54 54 54 53 53 52 52 51 48 47 41 39 38 41 34 34 33 34 33 33 32 32 32 32 34
41 40 39 37 38 38 39 40 40 41 42 44 46 48 49 50 51 52 53 54 54 53 54 54 54 52 51 48 45 41 38 37 35 35 35 36 35 34 33 33 32 36 31 30
39 39 37 37 38 39 40 40 40 42 44 43 43 43 46 47 49 50 51 52 53 53 52 55 54 52 50 49 47 41 37 34 35 35 36 39 37 35 33 33 32 32 32 31
39 39 39 39 40 41 41 43 43 43 45 45 44 44 44 45 47 47 50 52 53 52 53 54 55 51 50 50 50 41 39 37 36 35 35 35 35 35 35 36 35 34 34 32
40 40 41 43 43 45 44 44 44 45 45 47 44 44 45 46 46 47 49 45 51 54 52 52 54 52 50 49 48 44 40 39 37 38 37 36 36 34 34 36 36 36 36 35
40 41 42 43 44 44 45 44 44 46 47 45 43 43 44 45 45 45 46 45 46 50 50 52 50 53 53 53 48 45 44 41 40 39 38 39 37 36 36 37 37 36 36 37
41 42 43 44 44 44 45 44 43 44 44 44 44 45 45 42 41 39 39 47 44 47 45 45 50 51 52 50 49 47 47 46 42 44 44 41 39 37 37 36 37 37 38 38
44 45 46 46 45 44 45 44 41 42 43 45 45 46 43 37 40 41 44 47 47 47 45 47 47 48 50 52 52 51 50 49 50 49 49 45 43 42 38 39 38 37 39 39
47 48 48 47 45 42 43 45 43 42 44 45 46 44 43 42 39 40 41 44 46 45 45 49 50 50 47 46 51 53 54 53 51 50 50 48 45 47 47 44 40 41 42 42
49 47 45 47 42 38 38 40 37 38 39 39 39 38 38 39 40 40 41 42 40 42 38 43 43 44 46 49 50 52 53 53 51 51 51 51 49 47 50 51 49 47 45 43
51 47 46 42 38 37 35 36 35 36 37 37 37 37 37 38 38 38 41 37 36 36 37 38 39 43 42 44 46 50 53 53 49 52 52 50 50 49 49 49 50 50 51 50

GFSNGP_sfc_dewp_108.txt.gz
Dewpoint
32 30 29 31 29 26 22 23 22 24 29 46 49 51 52 58 60 62 63 62 63 63 65 71 69 70 71 70 72 72 72 72 71 72 73 75 74 75 75 75 74 74 75 75
30 29 28 26 26 30 25 20 23 25 28 45 57 59 57 59 63 63 62 62 66 67 68 68 70 69 70 70 70 70 70 70 72 72 72 72 72 74 75 75 75 75 74 74
27 27 25 26 26 29 28 27 24 23 41 40 52 60 61 60 62 64 64 65 67 66 67 70 70 71 70 70 70 70 70 70 71 72 72 71 71 73 72 73 74 74 74 74
30 30 28 31 38 38 30 29 40 45 48 54 59 56 54 63 62 64 65 66 67 67 68 69 71 71 71 71 71 70 70 70 70 70 70 69 69 71 72 71 70 70 70 69
28 25 29 34 41 38 37 38 47 47 47 47 56 58 61 63 63 63 62 62 62 62 63 63 65 70 71 71 71 70 70 70 69 69 68 69 68 68 69 69 69 67 66 63
36 26 30 40 42 40 37 35 46 49 51 49 56 54 59 61 60 59 59 59 59 60 60 59 60 64 64 64 67 68 69 69 70 70 68 67 67 67 68 68 66 64 61 57
30 32 40 45 44 39 33 43 50 50 53 56 57 58 58 57 57 57 57 56 56 57 57 57 58 60 59 60 59 62 63 65 67 68 68 67 67 69 67 64 62 60 57 55
39 39 38 45 46 41 47 51 51 54 52 54 58 58 56 55 54 54 53 54 54 54 55 56 56 57 57 57 59 61 62 62 62 63 62 65 64 62 63 62 61 60 58 57
43 43 52 51 53 49 44 46 51 53 56 56 53 53 53 53 52 52 52 53 54 53 53 55 56 55 55 57 59 59 59 60 61 64 63 64 62 62 60 61 59 59 59 56
45 47 49 45 45 48 49 51 53 55 55 54 52 52 52 52 52 52 52 52 52 52 51 52 53 54 56 57 58 57 58 59 59 59 56 51 52 57 55 48 56 59 60 57
39 47 47 43 46 48 51 52 53 55 54 53 52 52 53 52 53 54 54 53 50 49 50 52 52 52 54 54 56 56 57 56 57 55 55 48 40 41 43 39 39 44 44 45
43 42 49 46 45 46 52 53 53 53 53 53 53 52 52 52 53 53 54 54 51 52 51 52 52 52 52 54 56 55 55 54 55 57 56 52 50 40 39 39 39 38 38 42
48 47 50 47 43 43 45 53 53 53 53 53 53 53 53 53 53 54 54 54 54 52 52 53 52 51 52 51 52 53 53 51 50 50 54 53 52 47 42 36 39 38 38 38
44 44 44 41 42 42 43 46 53 52 51 51 52 52 52 52 52 53 53 54 54 53 52 53 52 51 52 51 52 52 49 46 43 50 44 49 51 48 44 42 40 37 37 37
41 42 40 41 44 43 43 44 44 52 51 50 50 50 51 53 53 53 55 56 56 55 55 54 51 52 53 51 50 49 48 48 46 45 45 43 45 45 43 44 46 39 33 35
41 41 40 41 41 42 41 41 41 47 50 51 51 51 52 52 52 53 54 55 55 53 55 54 54 53 53 53 52 49 47 45 45 45 44 42 44 41 43 43 44 42 40 40
41 41 40 38 38 39 40 40 40 41 45 51 53 54 54 54 54 55 56 56 56 56 56 56 54 55 54 51 50 44 46 44 45 41 38 41 40 40 41 40 41 43 39 37
43 43 41 40 38 37 37 38 40 41 43 46 50 51 48 53 53 55 55 57 57 57 56 57 56 55 53 51 49 45 42 40 39 38 39 42 41 41 40 41 40 39 36 33
41 40 39 37 38 39 40 40 40 42 45 43 43 43 45 50 54 56 57 56 56 56 57 58 56 55 54 52 50 45 42 39 38 37 39 42 41 42 40 40 38 38 38 33
38 39 38 38 39 40 42 42 41 43 47 47 49 46 44 45 47 51 52 54 55 55 57 58 56 57 53 53 53 45 43 42 40 39 40 38 37 39 39 38 39 40 41 37
39 39 39 40 41 44 43 43 43 44 44 48 48 45 46 48 48 50 50 45 53 53 54 56 55 52 57 56 52 47 44 43 44 43 41 40 39 37 37 38 38 39 40 41
40 40 40 41 43 44 45 45 45 46 46 49 45 44 44 45 46 47 50 48 50 49 48 51 50 53 53 55 55 49 47 46 45 44 44 43 42 40 41 41 39 39 39 41
43 44 45 45 45 45 44 45 47 45 45 46 46 45 45 43 43 41 46 48 46 46 45 46 49 50 51 49 50 50 49 48 46 46 44 43 41 44 44 42 41 41 44 42
49 50 49 48 45 47 48 48 46 48 46 45 45 46 45 40 41 41 45 47 47 46 46 44 45 49 48 47 48 52 53 53 52 50 50 43 45 44 43 43 41 41 44 45
52 51 50 51 52 48 51 49 48 44 45 45 47 46 44 41 45 44 44 42 46 46 47 47 48 48 46 48 49 51 54 55 55 54 54 49 49 46 46 45 45 45 46 46
53 45 48 52 47 44 43 44 43 40 39 42 41 41 40 40 40 40 42 43 40 42 45 47 43 42 41 43 44 50 53 54 54 54 53 53 53 50 50 50 50 49 48 45
52 48 49 47 45 44 39 43 41 38 39 40 38 38 37 38 42 40 41 37 36 36 36 38 41 42 38 40 43 45 48 51 49 52 53 52 52 54 52 52 52 50 50 51

GFSNGP_sfc_dewp_111.txt.gz
Dewpoint
30 31 31 30 30 29 29 28 28 33 46 53 54 55 55 55 57 58 58 59 63 65 65 65 65 66 67 67 67 70 69 70 69 70 71 71 71 69 71 72 72 71 71 71
29 29 29 29 31 30 29 30 25 44 49 52 56 61 60 60 64 62 62 62 63 65 67 63 64 63 65 64 66 71 69 69 70 70 70 71 71 70 70 70 69 70 70 70
32 30 29 27 34 33 34 42 47 50 55 57 54 55 58 57 62 63 64 64 66 66 68 68 66 64 68 68 70 70 69 69 69 70 69 70 70 70 71 70 70 69 69 64
32 32 28 37 38 37 44 46 47 51 57 54 55 55 59 63 63 61 61 60 62 63 64 65 70 69 70 69 69 69 68 69 70 70 69 68 67 68 70 70 70 68 67 65
32 29 31 38 39 38 40 46 48 51 49 55 57 58 59 60 59 59 59 59 60 61 62 63 64 67 69 69 69 69 68 69 68 68 67 67 67 67 68 68 66 64 64 61
37 34 31 42 42 45 38 44 52 52 55 56 55 52 58 59 58 57 56 56 57 59 59 59 61 64 64 66 67 68 68 68 68 68 67 66 65 66 67 65 62 61 59 56
39 38 42 46 46 46 34 44 54 52 56 56 54 55 56 56 55 55 55 55 56 57 56 58 59 60 60 61 61 63 65 68 68 67 67 66 65 65 65 61 58 56 53 49
38 37 36 48 47 45 49 52 55 56 57 56 55 54 53 53 53 53 53 54 54 54 55 56 58 59 58 58 60 62 62 62 63 64 65 64 63 64 61 60 59 58 56 51
42 43 49 52 52 51 52 54 56 54 53 52 52 52 52 52 52 52 53 53 53 53 53 54 55 55 56 57 59 60 60 60 62 59 61 62 61 61 60 60 59 58 56 54
45 46 49 51 55 55 54 55 55 54 53 52 52 52 51 51 51 51 52 52 52 51 50 51 52 53 55 56 58 57 58 59 58 52 48 43 45 45 44 43 48 49 57 54
45 46 47 50 51 52 55 55 54 53 53 52 51 51 51 50 52 53 52 51 49 50 50 51 51 51 53 54 55 56 56 56 57 54 49 40 39 44 38 36 38 40 44 43
43 47 48 47 48 53 53 54 54 53 52 53 51 51 52 51 52 52 52 51 51 50 49 49 50 50 50 51 54 53 53 53 54 58 54 46 43 41 40 39 38 38 39 36
47 50 48 47 46 53 53 54 53 53 52 52 52 52 51 51 51 53 52 52 50 49 49 51 49 48 50 52 51 47 47 46 50 53 53 50 47 44 38 36 39 38 38 38
50 50 48 47 44 48 53 54 54 53 53 52 52 52 52 51 51 51 51 53 51 52 51 50 49 49 50 50 51 49 48 47 40 45 46 50 49 48 43 40 39 35 37 36
46 46 44 45 46 46 46 52 52 52 52 51 52 52 52 51 51 51 52 53 53 52 51 52 51 50 50 49 48 46 44 41 41 45 39 41 43 41 42 41 40 35 30 35
44 44 46 45 44 45 46 46 51 51 51 51 51 50 52 53 53 53 54 55 53 52 53 52 52 52 52 50 47 47 45 45 43 41 39 37 39 39 40 41 39 37 34 34
44 43 42 42 44 43 42 42 45 51 52 51 51 52 53 53 53 53 54 55 55 55 55 55 54 54 53 50 49 48 46 42 45 39 39 37 38 40 35 36 38 41 38 38
49 49 44 43 42 39 40 43 43 48 50 48 53 55 54 53 53 53 54 55 55 55 55 56 56 54 53 50 48 48 44 43 41 39 39 40 37 39 39 38 37 39 33 33
49 48 46 44 44 44 44 41 41 48 46 45 44 45 48 48 50 54 55 56 55 53 54 56 58 56 53 52 51 48 44 42 41 38 39 41 40 38 40 39 37 36 37 30
45 45 43 43 44 46 47 44 46 47 47 46 46 44 45 46 50 49 49 50 52 54 54 56 55 55 54 52 55 47 45 44 42 40 39 38 38 40 39 39 39 39 41 34
45 45 43 46 44 45 46 47 46 45 49 50 48 46 45 47 47 47 47 49 50 49 53 55 54 54 55 54 54 48 46 46 45 42 41 40 40 39 40 39 39 39 39 37
45 44 45 45 47 48 47 47 46 46 51 50 48 45 44 44 44 46 49 50 46 48 49 49 50 52 51 53 53 52 50 47 47 46 44 43 41 40 41 41 39 39 40 41
48 47 47 46 47 48 49 49 47 48 51 49 47 46 45 45 47 46 46 45 46 44 47 46 48 49 49 47 48 50 50 50 49 49 48 45 44 44 42 42 42 42 43 41
50 50 48 49 49 51 49 48 46 48 49 48 47 47 48 44 45 46 45 46 46 47 44 44 46 48 48 46 47 47 49 50 49 49 49 46 44 44 44 44 44 44 43 44
52 51 51 50 51 50 49 49 48 49 47 47 48 48 45 46 46 45 45 46 47 48 46 46 46 48 47 45 46 48 48 49 50 50 49 48 47 47 46 46 46 44 44 43
55 51 50 50 49 49 47 46 44 45 44 45 47 46 45 46 44 46 46 46 46 46 48 47 46 47 45 44 45 47 49 49 48 48 48 48 48 49 48 47 47 46 45 44
57 51 53 50 48 47 45 44 44 44 44 44 44 44 44 43 44 44 45 43 41 42 43 46 46 43 43 44 45 46 47 48 46 48 47 47 46 47 48 49 49 48 47 48

GFSNGP_sfc_dewp_117.txt.gz
Dewpoint
33 36 30 32 42 45 41 41 31 44 51 54 57 56 58 57 59 60 61 63 64 61 64 66 67 68 69 70 70 70 70 70 70 70 70 70 69 69 69 68 67 68 69 69
28 32 34 43 45 46 48 50 51 52 51 54 58 59 59 59 58 57 60 62 64 65 65 66 66 67 68 68 68 69 69 69 70 69 70 70 70 70 70 70 70 69 69 66
28 32 33 33 43 47 49 53 51 45 50 54 56 56 57 58 59 59 59 61 62 63 65 65 65 65 66 66 68 68 68 69 69 69 68 69 70 70 70 69 69 68 65 63
29 30 28 40 47 50 50 51 53 51 53 55 56 56 56 57 56 57 56 59 60 61 64 64 65 66 66 66 66 67 67 68 68 68 68 69 69 69 69 69 69 67 65 62
31 31 36 43 43 44 44 49 52 53 52 54 56 55 54 56 56 56 56 57 58 59 60 62 63 66 67 67 66 67 67 68 68 68 68 67 67 67 68 68 69 67 64 61
36 32 30 40 46 47 48 45 51 54 53 53 53 49 53 55 55 55 56 56 56 57 58 59 60 64 67 67 67 66 67 67 68 68 67 67 67 67 66 66 63 62 59 58
36 33 38 45 45 48 37 39 51 53 53 50 50 53 54 54 54 54 54 54 56 56 56 57 60 62 61 63 63 64 68 68 67 67 67 67 66 66 63 59 56 53 50 47
36 33 30 46 46 40 45 50 54 54 54 53 54 53 53 53 53 53 53 53 54 55 55 56 59 60 59 59 61 63 63 63 66 66 67 66 64 62 60 57 53 49 45 43
37 38 44 47 48 49 51 54 54 53 53 53 52 51 51 52 51 51 52 52 53 52 53 54 56 58 58 58 59 58 58 58 56 56 57 60 63 61 60 60 56 51 47 44
40 42 45 48 51 53 55 54 54 53 51 51 50 51 51 51 51 50 51 51 51 51 50 50 52 54 56 58 58 57 56 56 56 57 55 55 54 54 55 55 58 57 53 50
40 43 46 47 50 54 54 53 52 52 51 50 50 50 51 51 50 50 50 49 49 49 49 49 49 50 53 54 56 56 54 53 52 52 51 48 47 48 49 45 47 52 52 52
40 44 43 45 52 55 53 52 52 51 50 50 49 48 48 48 50 50 50 49 47 47 47 47 47 48 49 50 52 55 54 52 51 51 49 47 47 45 41 42 41 40 40 43
42 47 46 48 54 55 53 52 52 51 50 49 49 49 48 47 48 51 49 49 48 47 46 48 47 47 49 49 45 43 43 42 50 50 47 44 40 38 36 39 39 39 39 39
47 47 46 53 53 55 54 53 53 52 51 50 50 49 48 47 48 47 45 46 47 47 47 47 45 46 47 48 46 42 41 45 44 49 50 47 43 42 34 31 31 31 35 36
47 46 46 50 54 54 54 53 52 51 51 50 50 49 49 48 47 47 48 49 48 47 47 48 48 47 48 47 45 41 38 38 40 39 41 44 44 45 42 39 38 34 26 32
48 47 46 51 52 53 53 52 51 51 51 51 50 50 49 49 48 48 49 49 48 48 48 47 47 48 48 47 44 45 43 44 41 38 37 36 38 36 36 41 39 33 28 27
45 42 44 50 51 53 52 52 52 51 51 51 51 51 50 50 49 48 49 49 49 49 49 49 50 50 50 48 46 46 45 42 42 36 37 38 37 38 36 36 38 37 35 35
43 42 44 47 48 50 50 53 53 52 52 52 52 52 51 50 50 49 50 50 50 50 51 52 52 52 51 50 48 47 46 43 41 38 37 36 36 36 36 36 37 38 38 37
44 42 43 43 43 43 45 47 51 52 52 52 52 52 52 51 51 51 51 51 50 50 52 53 55 55 52 53 51 47 46 45 42 40 39 39 36 37 36 36 36 37 36 36
46 45 42 42 42 42 44 47 49 50 51 51 52 52 51 51 51 51 50 50 52 52 52 52 52 53 53 52 56 49 47 46 44 41 40 38 36 36 37 38 37 38 37 35
45 45 43 43 42 42 44 46 45 44 43 45 47 47 47 48 48 48 47 47 46 48 50 53 51 51 51 52 54 51 49 47 46 44 43 41 40 38 37 37 38 38 38 38
43 43 42 42 43 42 41 44 44 44 43 43 43 45 47 46 44 46 46 47 45 50 47 46 47 50 50 54 51 51 49 49 48 48 46 45 43 42 41 40 39 38 38 38
42 40 40 40 41 42 43 43 44 45 45 45 44 45 44 43 45 44 43 44 47 46 42 42 47 48 48 44 45 45 45 47 47 46 46 46 47 46 43 42 42 41 40 40
41 40 39 39 40 41 41 42 43 46 47 46 44 43 43 44 45 45 45 46 47 45 42 45 47 48 46 44 43 43 43 43 44 45 46 46 48 45 44 43 43 44 43 43
41 41 40 40 40 40 40 41 43 45 46 45 43 43 44 45 44 43 44 43 46 43 42 48 48 47 44 43 42 43 43 44 44 44 45 45 44 44 46 46 46 44 45 44
43 42 43 41 40 40 41 44 43 46 46 45 45 45 45 45 43 43 43 45 43 43 41 42 44 45 44 43 43 43 44 45 44 44 43 44 44 43 42 41 41 42 43 44
49 46 46 47 46 43 45 45 45 46 45 45 45 45 47 49 49 47 44 44 43 43 43 43 43 44 43 43 43 43 43 43 42 44 43 43 41 41 41 42 42 42 43 46

GFSNGP_sfc_dewp_120.txt.gz
Dewpoint
33 36 32 34 43 47 45 43 31 44 49 53 55 57 58 58 58 60 61 62 61 62 63 65 66 67 67 68 70 69 69 69 69 70 71 71 70 70 70 69 69 69 68 70
28 32 39 44 45 46 50 51 50 50 49 54 57 58 57 59 59 58 60 62 64 64 66 66 67 67 69 69 69 70 69 69 70 70 70 70 70 70 70 70 70 69 70 70
23 32 36 33 42 47 49 51 50 46 51 56 55 56 56 56 57 57 58 60 62 64 65 65 65 66 66 66 68 68 68 69 69 70 70 70 70 70 70 70 69 70 69 66
29 30 29 38 48 50 50 51 52 52 53 55 54 55 56 56 56 56 57 58 59 60 61 64 66 66 66 66 66 68 68 68 69 69 69 69 70 69 69 70 68 68 66 65
28 30 35 42 44 45 46 49 53 52 53 53 55 55 54 55 56 55 56 57 57 58 59 61 62 65 66 66 66 66 67 68 68 69 68 68 68 68 69 69 69 68 66 64
35 30 33 39 45 48 50 43 52 54 54 54 56 48 52 55 55 55 55 56 56 57 58 59 60 62 66 66 66 66 67 67 68 68 68 68 67 67 67 67 66 65 62 62
34 32 36 43 46 49 41 39 52 52 53 53 51 53 53 54 54 54 54 54 56 57 57 57 60 62 63 64 63 64 66 68 68 68 68 68 67 66 64 63 61 60 58 57
35 32 30 47 47 43 44 50 55 54 53 52 53 53 53 53 52 53 52 53 53 55 55 57 58 60 59 59 60 62 62 63 65 66 67 66 64 62 60 60 57 56 56 55
35 35 41 45 46 49 51 53 55 53 53 53 52 51 52 52 52 51 51 52 52 52 52 53 56 58 57 58 58 58 58 58 57 57 58 61 62 61 59 58 56 54 53 46
40 40 45 47 50 52 55 55 53 53 53 52 51 52 52 51 51 50 51 51 51 50 50 50 51 54 56 58 57 56 55 55 55 55 55 55 54 55 56 58 59 57 56 54
40 41 45 46 48 54 54 53 52 52 51 51 51 51 51 51 50 49 49 49 49 48 48 48 49 50 52 55 56 55 55 54 53 54 52 50 48 49 50 46 49 54 55 55
38 42 41 44 51 55 53 53 52 51 50 50 50 49 49 48 49 50 48 48 47 48 48 48 49 49 48 50 55 54 50 49 51 51 49 50 50 48 46 46 46 44 44 47
41 45 46 49 55 54 53 52 52 51 50 49 49 49 48 48 48 50 49 48 47 46 47 48 48 48 49 49 46 45 44 51 49 48 44 42 41 41 41 38 40 39 39 40
47 48 49 53 53 54 53 53 52 51 51 50 49 49 48 48 48 47 46 47 48 48 48 47 47 47 48 47 46 44 44 45 49 51 48 45 43 39 37 38 34 34 36 35
47 48 47 53 55 53 53 52 51 50 50 50 49 49 48 48 47 47 47 49 49 49 49 50 48 48 49 47 45 42 41 42 42 43 43 46 45 47 43 42 41 37 35 35
47 46 52 53 54 53 53 52 50 50 50 50 49 49 48 48 48 48 49 49 49 49 50 50 50 50 50 48 47 46 45 45 42 40 39 40 40 39 41 43 42 38 35 32
45 44 49 51 52 52 52 52 50 50 51 50 50 50 50 49 49 48 49 50 50 50 50 50 51 51 51 49 47 46 45 43 41 39 40 39 39 40 39 39 40 40 38 38
47 47 47 51 52 52 52 52 52 51 51 51 51 51 50 49 49 49 50 50 50 50 51 52 53 53 53 52 49 48 46 45 42 41 39 40 39 39 39 39 39 40 39 40
46 46 46 49 52 53 53 53 53 52 52 52 52 51 51 51 50 51 51 51 51 51 53 54 54 56 54 54 53 49 47 46 44 42 42 41 39 39 38 38 38 38 39 38
45 45 45 46 49 50 50 51 52 53 53 52 52 52 51 52 52 52 52 52 52 53 53 54 55 55 55 55 57 51 49 47 46 44 43 41 39 39 39 38 39 39 39 39
46 46 44 44 45 46 47 48 50 51 52 52 52 52 52 52 52 52 51 50 52 50 52 53 53 53 53 54 56 54 51 49 48 47 46 44 43 42 41 40 39 39 40 40
45 45 45 44 43 43 45 47 48 49 48 50 51 51 50 50 49 50 50 50 48 50 49 49 49 51 53 54 54 53 52 51 50 49 48 46 46 45 45 45 43 41 40 41
44 44 44 43 43 42 43 46 46 46 46 46 47 47 48 47 47 47 47 48 48 48 45 44 47 49 47 45 46 46 48 49 50 50 50 49 49 48 48 47 46 44 44 43
44 43 43 43 43 43 43 43 45 46 46 46 45 46 46 45 46 46 46 47 48 45 43 46 48 48 45 45 45 45 46 47 48 48 48 45 48 48 47 46 46 46 46 45
44 43 41 41 41 42 43 44 44 45 46 47 47 46 46 47 46 46 46 47 47 44 44 48 49 47 44 44 44 46 48 48 49 49 49 49 48 49 48 47 44 44 44 44
43 43 43 42 41 41 41 43 43 44 45 46 45 45 45 46 45 46 47 46 46 43 43 46 48 46 45 44 43 45 48 48 49 49 48 49 49 48 46 45 45 45 46 46
46 43 44 45 44 42 42 43 42 43 45 46 45 45 46 48 48 49 47 46 44 42 42 43 45 46 45 45 45 44 44 46 44 48 48 47 47 47 45 46 46 47 47 48

GFSNGP_sfc_dewp_123.txt.gz
Dewpoint
31 34 32 42 43 46 42 44 31 34 45 53 55 56 57 58 60 61 62 62 63 64 65 66 68 69 69 69 70 70 71 70 69 72 71 71 72 72 72 72 72 72 71 70
27 31 34 40 40 42 48 48 48 48 48 54 57 58 58 57 58 59 60 61 64 64 64 66 67 68 68 68 69 71 69 70 71 72 72 72 73 73 73 73 73 73 72 71
27 32 34 33 37 37 46 50 50 48 51 56 55 55 56 57 57 58 58 59 60 61 65 67 68 68 69 70 72 71 71 72 72 72 72 71 72 74 73 74 74 73 73 72
27 33 28 37 47 48 45 49 50 51 55 55 54 55 56 57 56 56 57 57 58 59 61 63 64 67 68 69 70 70 70 69 70 71 71 71 70 71 70 73 71 73 72 71
29 28 33 38 45 48 45 47 53 52 53 54 55 55 55 56 56 56 56 57 59 59 60 61 62 63 66 68 69 68 67 68 68 69 69 69 69 69 70 70 70 69 70 70
40 33 26 39 44 47 49 43 53 53 54 54 55 52 54 55 55 55 56 56 57 58 59 61 61 63 64 67 68 67 68 68 68 69 69 69 69 68 69 70 69 68 67 67
37 35 36 41 46 49 41 40 52 54 54 55 54 55 55 55 54 54 55 55 56 57 58 59 60 63 63 64 64 65 66 68 68 69 70 69 68 68 67 65 64 62 60 58
39 37 31 47 47 44 48 52 54 54 54 54 55 54 54 53 53 54 54 54 54 55 55 58 59 60 58 58 61 64 65 64 64 66 68 68 66 64 62 60 58 56 55 55
37 36 45 49 48 49 52 53 55 54 53 53 53 53 53 53 52 53 53 53 53 53 54 55 59 59 58 58 59 59 59 58 58 58 57 58 62 62 59 59 57 56 55 54
42 43 43 48 50 51 54 56 56 55 54 53 52 52 53 53 52 52 52 52 52 52 52 52 56 58 58 58 57 57 56 56 56 54 53 54 54 55 55 59 58 57 55 54
43 44 45 48 50 53 56 56 55 55 54 53 52 52 52 52 51 51 51 50 50 49 49 51 52 53 54 55 57 56 56 55 54 54 54 51 48 51 50 47 49 57 56 55
35 46 46 45 51 56 55 55 55 53 52 53 53 53 53 52 52 51 51 50 50 50 49 50 50 50 52 53 54 52 50 51 53 54 53 53 52 49 45 47 46 45 48 49
44 47 48 49 53 56 54 55 53 52 52 52 52 52 52 51 51 50 49 49 48 48 49 50 50 50 50 50 49 50 50 49 47 44 44 45 48 46 41 39 41 41 42 43
48 51 51 54 54 54 53 53 52 52 52 52 51 48 47 48 48 48 48 50 50 50 48 48 48 49 49 48 49 48 48 50 52 50 47 47 43 41 39 39 37 34 36 36
48 50 49 54 55 53 53 52 51 51 51 50 48 48 48 48 47 48 50 51 52 53 53 51 50 50 50 48 46 46 43 42 43 44 46 46 46 45 43 43 40 35 34 34
46 48 50 54 53 52 52 50 49 50 51 50 49 49 49 48 49 49 50 52 51 50 52 52 52 52 51 49 49 45 44 46 44 41 40 41 40 39 41 43 43 41 37 33
48 48 52 53 53 52 50 50 48 49 51 51 50 51 50 50 50 50 52 52 53 53 53 54 54 54 54 52 49 46 45 43 42 40 40 39 39 39 40 39 39 40 40 39
49 50 53 54 54 52 51 51 51 51 51 51 52 51 51 50 51 52 52 53 54 54 55 55 55 56 55 54 52 50 48 45 44 42 41 41 40 40 39 38 39 39 38 40
50 50 53 55 54 54 54 53 52 52 53 53 53 52 52 52 52 52 53 54 54 54 55 57 56 56 57 57 55 52 51 49 46 44 44 42 39 40 39 39 39 39 39 38
49 50 50 52 55 54 55 55 54 54 54 54 53 53 53 53 53 54 54 55 55 55 57 56 57 57 58 57 57 54 53 52 51 48 45 42 41 42 42 39 39 40 41 40
49 49 50 51 52 55 55 56 55 55 55 55 55 55 54 54 54 55 55 53 56 55 55 54 55 55 55 55 55 55 54 53 52 50 47 46 46 44 43 45 45 45 44 43
49 48 48 48 49 51 52 54 54 55 56 56 56 56 56 55 56 56 56 55 52 51 52 52 53 54 55 55 56 55 55 54 53 52 51 51 50 48 47 48 48 48 47 45
49 50 49 49 48 49 50 50 51 53 54 55 56 56 55 53 53 52 52 54 51 50 50 48 49 49 48 45 45 46 49 51 52 53 53 52 52 51 51 49 48 47 47 46
50 51 50 50 49 48 48 50 49 52 54 54 54 55 54 50 50 52 50 49 49 48 47 45 47 48 45 43 44 45 46 48 49 49 51 46 49 48 48 48 45 42 41 41
51 51 50 48 48 46 50 51 49 50 51 52 52 52 53 50 48 49 48 49 48 47 45 49 48 46 41 43 45 48 50 51 51 52 51 50 48 49 45 41 40 40 41 41
50 47 47 50 46 45 45 46 44 44 45 46 47 48 47 47 48 48 49 48 48 46 45 48 46 43 41 41 42 44 46 48 48 50 51 50 49 45 47 47 47 47 45 44
48 45 46 46 46 45 44 44 43 43 45 46 45 47 47 47 49 50 47 47 45 43 43 45 45 45 43 43 43 42 43 45 44 45 46 46 47 48 46 48 50 50 51 50

GFSNGP_sfc_dewp_129.txt.gz
Dewpoint
29 30 32 34 38 37 29 28 31 39 40 51 54 56 58 59 61 62 63 64 64 61 65 66 66 67 68 68 68 70 69 68 70 72 71 71 72 71 71 72 72 72 72 72
26 24 22 22 26 25 27 31 42 44 44 58 57 58 57 59 60 60 61 62 64 65 67 66 67 68 69 70 70 71 72 70 71 72 73 73 74 75 74 73 74 74 73 73
27 26 28 25 23 24 32 32 37 35 52 54 55 57 57 57 58 59 59 60 61 62 63 66 68 69 69 71 70 70 72 71 72 74 73 74 74 73 73 73 74 74 74 73
25 26 25 25 34 33 33 37 38 45 40 55 57 58 58 59 58 58 58 59 60 61 63 65 67 68 70 69 71 72 71 71 72 72 71 73 74 74 74 73 74 73 74 73
25 22 22 18 26 29 29 33 31 37 39 53 55 56 56 57 58 58 58 59 61 62 62 64 65 67 68 69 69 70 71 72 72 73 73 73 73 73 73 74 75 74 73 73
28 23 21 24 37 38 34 29 33 39 42 50 54 54 56 58 57 58 59 60 61 62 62 63 63 66 68 70 68 69 70 70 71 71 70 68 69 71 71 71 72 73 73 73
26 25 24 36 39 38 28 39 48 49 48 52 53 57 58 58 58 59 59 60 61 62 62 62 62 67 68 68 67 69 70 70 69 70 70 70 71 70 68 66 62 60 60 59
25 27 24 39 37 29 48 48 51 48 53 58 58 56 56 57 57 58 59 59 60 60 61 62 62 62 63 63 65 67 67 67 67 67 67 67 67 66 65 64 59 58 57 56
29 35 45 43 39 42 44 47 49 53 54 57 55 54 55 56 57 57 58 58 58 59 61 61 62 62 60 61 62 64 63 62 63 63 64 64 66 65 63 64 60 58 57 57
35 32 34 36 40 40 43 45 48 51 52 52 51 53 54 55 55 56 57 57 57 58 59 60 61 61 61 61 60 60 60 59 58 57 59 59 59 61 61 61 61 60 58 56
38 35 35 39 40 38 44 48 50 51 52 52 52 53 53 55 56 56 57 56 57 57 57 58 59 59 60 59 60 58 57 57 56 56 55 53 50 52 56 52 54 60 59 57
31 36 42 40 42 44 44 51 52 52 53 52 52 53 53 54 56 56 55 55 56 56 57 56 56 56 57 59 59 57 55 56 56 55 55 57 56 53 44 46 45 44 45 51
37 38 40 42 42 46 48 52 52 53 52 51 52 53 54 55 55 55 55 55 54 54 54 54 54 54 56 56 53 52 51 50 47 49 51 52 53 53 53 48 42 43 43 45
37 41 43 41 41 48 50 51 52 50 50 51 53 53 54 54 54 54 52 52 52 52 52 51 51 51 52 55 57 55 52 50 47 46 44 46 44 47 47 50 49 47 38 45
40 42 38 41 45 49 50 52 48 47 49 51 52 52 52 50 50 50 50 50 50 51 52 51 51 50 50 51 53 52 47 46 47 46 46 46 45 45 42 41 40 36 34 35
41 42 41 38 49 49 50 49 47 47 49 50 48 49 49 50 50 51 53 54 53 52 54 53 53 53 51 51 50 46 45 47 47 44 42 43 42 42 42 42 41 42 39 38
40 43 43 41 45 48 50 48 47 47 48 47 48 50 50 50 51 53 53 52 52 53 53 53 52 53 52 52 50 43 41 41 44 41 40 40 40 40 41 39 39 40 39 39
43 43 44 44 48 48 49 48 46 46 47 48 49 50 49 51 52 53 52 52 53 53 53 54 55 54 54 52 51 47 44 44 43 44 42 43 42 41 40 41 42 41 40 38
44 44 43 44 48 51 48 46 45 46 48 49 50 50 50 50 52 52 52 52 53 54 53 55 57 55 54 55 54 48 45 45 45 44 44 45 42 42 42 42 42 43 43 41
44 42 43 45 48 49 49 47 46 47 49 49 50 51 51 50 52 52 53 53 53 49 53 53 57 54 54 55 57 46 45 44 44 44 45 44 42 43 43 42 42 43 43 43
43 43 47 48 49 50 48 48 46 48 50 51 52 53 53 53 52 53 54 50 53 55 54 56 53 48 48 53 54 49 46 43 46 46 45 46 45 43 43 44 44 46 49 50
43 43 47 48 48 48 48 48 47 49 51 53 53 54 55 55 55 54 55 51 56 53 53 51 48 53 50 54 46 44 42 44 46 48 50 50 52 52 52 52 49 47 49 48
45 44 47 48 48 48 48 48 48 49 52 54 56 56 54 51 51 50 50 55 53 54 50 47 53 55 55 46 43 43 42 43 44 47 46 48 49 48 50 47 49 48 48 43
47 47 47 48 47 48 49 50 48 51 54 55 56 57 55 50 47 47 48 49 51 52 50 50 51 50 49 45 45 42 41 39 39 40 41 43 43 41 41 45 42 42 42 40
49 48 48 48 49 46 49 51 50 50 52 55 55 55 53 48 46 44 46 47 50 51 49 49 48 47 43 43 42 42 42 43 43 42 41 42 39 42 42 42 41 39 38 39
50 45 44 49 46 43 43 45 46 45 46 48 47 46 47 47 44 45 46 48 52 51 47 48 44 42 42 40 41 42 42 43 43 45 44 43 44 44 42 39 39 40 42 39
48 44 44 45 45 43 41 42 43 43 44 44 43 44 44 46 46 45 45 46 48 50 46 47 43 42 44 40 39 39 38 39 42 42 42 42 41 39 38 41 44 46 46 44